[[{"header":{"parameterUnit":"m.s-1","parameterCategory":1,"la1":30.6,"la2":29.2853,"lo1":-89.7004,"lo2":-87.6739,"dy":0.0162,"dx":0.0183,"nx":112,"ny":82,"refTime":"2024-08-12T18:00:00:Z","depth":0,"parameterNumber":2,"parameterNumberName":"U-component_of_WINDS"},"data":[0.0,0.0,0.0,0.0,0.0,0.0,0.0,0.0,0.0,0.0,0.0,0.0,0.0,0.0,0.0,0.0,0.0,0.0,0.0,0.0,0.0,0.0,0.0,0.0,0.0,0.0,0.0,0.0,0.0,0.0,0.0,0.0,0.0,0.0,0.0,0.0,0.0,0.0,0.0,0.0,0.0,0.0,0.0,0.0,0.0,0.0,0.0,0.0,0.0,0.0,0.0,0.0,0.0,0.0,0.0,0.0,0.0,0.0,0.0,0.0,0.0,0.0,0.0,0.0,0.0,0.0,0.0,0.0,0.0,0.0,0.0,0.0,0.0,0.0,0.0,0.0,0.0,0.0,0.0,0.0,0.0,0.0,0.0,0.0,0.0,0.0,0.0,0.0,0.0,0.0,0.0,-2.7163,-2.9931,-3.1271,-3.0717,-3.0387,-2.8449,-2.4383,0.0,0.0,0.0,0.0,0.0,0.0,0.0,0.0,0.0,0.0,0.0,0.0,0.0,0.0,0.0,0.0,0.0,0.0,0.0,0.0,0.0,0.0,0.0,0.0,0.0,0.0,0.0,0.0,0.0,0.0,0.0,0.0,0.0,0.0,0.0,0.0,0.0,0.0,0.0,0.0,0.0,0.0,0.0,0.0,0.0,0.0,0.0,0.0,0.0,0.0,0.0,0.0,0.0,0.0,0.0,0.0,0.0,0.0,0.0,0.0,0.0,0.0,0.0,0.0,0.0,0.0,0.0,0.0,0.0,0.0,0.0,0.0,0.0,0.0,0.0,0.0,0.0,0.0,0.0,0.0,0.0,0.0,0.0,0.0,0.0,0.0,0.0,0.0,0.0,0.0,0.0,0.0,0.0,0.0,0.0,0.0,0.0,0.0,0.0,0.0,0.0,0.0,0.0,0.0,-2.3952,-2.8718,-3.0595,-3.1466,-3.1361,-2.9849,-2.8172,-2.6492,0.0,0.0,0.0,0.0,0.0,0.0,0.0,0.0,0.0,0.0,0.0,0.0,0.0,0.0,0.0,0.0,0.0,0.0,0.0,0.0,0.0,0.0,0.0,0.0,0.0,0.0,0.0,0.0,0.0,0.0,0.0,0.0,0.0,0.0,0.0,0.0,0.0,0.0,0.0,0.0,0.0,0.0,0.0,0.0,0.0,0.0,0.0,0.0,0.0,0.0,0.0,0.0,0.0,0.0,0.0,0.0,0.0,0.0,0.0,0.0,0.0,0.0,0.0,0.0,0.0,0.0,0.0,0.0,0.0,0.0,0.0,0.0,0.0,0.0,0.0,0.0,0.0,0.0,0.0,0.0,0.0,0.0,0.0,0.0,0.0,0.0,0.0,0.0,0.0,0.0,0.0,0.0,0.0,0.0,0.0,0.0,0.0,0.0,0.0,0.0,0.0,0.0,0.0,-2.2981,-2.547,-2.9187,-3.0746,-3.1346,-3.0972,-2.952,-2.76,-2.5262,-2.2158,0.0,0.0,0.0,0.0,0.0,0.0,0.0,0.0,0.0,0.0,0.0,0.0,0.0,0.0,0.0,0.0,0.0,0.0,0.0,0.0,0.0,0.0,0.0,0.0,0.0,0.0,0.0,0.0,0.0,0.0,0.0,0.0,0.0,0.0,0.0,0.0,0.0,0.0,0.0,0.0,0.0,0.0,0.0,0.0,0.0,0.0,0.0,0.0,0.0,0.0,0.0,0.0,0.0,0.0,0.0,0.0,0.0,0.0,0.0,0.0,0.0,0.0,0.0,0.0,0.0,0.0,0.0,0.0,0.0,0.0,0.0,0.0,0.0,0.0,0.0,0.0,0.0,0.0,0.0,0.0,0.0,0.0,0.0,0.0,0.0,0.0,0.0,0.0,0.0,0.0,0.0,0.0,0.0,0.0,0.0,0.0,0.0,0.0,0.0,0.0,0.0,0.0,-2.5115,-2.6976,-2.9352,-3.0746,-3.1227,-3.0567,-2.9041,-2.6876,-2.3963,-2.0686,0.0,0.0,0.0,0.0,0.0,0.0,0.0,0.0,0.0,0.0,0.0,0.0,0.0,0.0,0.0,0.0,0.0,0.0,0.0,0.0,0.0,0.0,0.0,0.0,0.0,0.0,0.0,0.0,0.0,0.0,0.0,0.0,0.0,0.0,0.0,0.0,0.0,0.0,0.0,0.0,0.0,0.0,0.0,0.0,0.0,0.0,0.0,0.0,0.0,0.0,0.0,0.0,0.0,0.0,0.0,0.0,0.0,0.0,0.0,0.0,0.0,0.0,0.0,0.0,0.0,0.0,0.0,0.0,0.0,0.0,0.0,0.0,0.0,0.0,0.0,0.0,0.0,0.0,0.0,0.0,0.0,0.0,0.0,0.0,0.0,0.0,0.0,0.0,0.0,0.0,0.0,0.0,0.0,0.0,0.0,0.0,0.0,0.0,0.0,0.0,0.0,0.0,-2.5342,-2.8004,-2.9457,-3.0746,-3.1227,-3.0567,-2.8188,-2.6036,-2.4353,-1.9671,0.0,0.0,0.0,0.0,0.0,0.0,0.0,0.0,0.0,0.0,0.0,0.0,0.0,0.0,0.0,0.0,0.0,0.0,0.0,0.0,0.0,0.0,0.0,0.0,0.0,0.0,0.0,0.0,0.0,0.0,0.0,0.0,0.0,0.0,0.0,0.0,0.0,0.0,0.0,0.0,0.0,0.0,0.0,0.0,0.0,0.0,0.0,0.0,0.0,0.0,0.0,0.0,0.0,0.0,0.0,0.0,0.0,0.0,0.0,0.0,0.0,0.0,0.0,0.0,0.0,0.0,0.0,0.0,0.0,0.0,0.0,0.0,0.0,0.0,0.0,0.0,0.0,0.0,0.0,0.0,0.0,0.0,0.0,0.0,0.0,0.0,0.0,0.0,0.0,0.0,0.0,0.0,0.0,0.0,0.0,0.0,0.0,0.0,0.0,0.0,0.0,0.0,-2.4383,-2.6722,0.0,-3.0028,-3.0208,-2.9953,-2.7874,-2.5575,-2.315,0.0,0.0,0.0,0.0,0.0,0.0,0.0,0.0,0.0,0.0,0.0,0.0,0.0,0.0,0.0,0.0,0.0,0.0,0.0,0.0,0.0,0.0,0.0,0.0,0.0,0.0,0.0,0.0,0.0,0.0,0.0,0.0,0.0,0.0,0.0,0.0,0.0,0.0,0.0,0.0,0.0,0.0,0.0,0.0,0.0,0.0,0.0,0.0,0.0,0.0,0.0,0.0,0.0,0.0,0.0,0.0,0.0,0.0,0.0,0.0,0.0,0.0,0.0,0.0,0.0,0.0,0.0,0.0,0.0,0.0,0.0,0.0,0.0,0.0,0.0,0.0,0.0,0.0,0.0,0.0,0.0,0.0,0.0,0.0,0.0,0.0,0.0,0.0,0.0,0.0,0.0,0.0,0.0,0.0,0.0,0.0,0.0,0.0,0.0,0.0,0.0,0.0,-2.2059,-2.4116,-2.6264,0.0,-2.9487,-2.9517,-2.928,-2.7036,-2.4558,-2.1999,0.0,0.0,0.0,0.0,0.0,0.0,0.0,0.0,0.0,0.0,0.0,0.0,0.0,0.0,0.0,0.0,0.0,0.0,0.0,0.0,0.0,0.0,0.0,0.0,0.0,0.0,0.0,0.0,0.0,0.0,0.0,0.0,0.0,0.0,0.0,0.0,0.0,0.0,0.0,0.0,0.0,0.0,0.0,0.0,0.0,0.0,0.0,0.0,0.0,0.0,0.0,0.0,0.0,0.0,0.0,0.0,0.0,0.0,0.0,0.0,0.0,0.0,0.0,0.0,0.0,0.0,0.0,0.0,0.0,0.0,0.0,0.0,0.0,0.0,0.0,0.0,0.0,0.0,0.0,0.0,0.0,0.0,0.0,0.0,0.0,0.0,0.0,0.0,0.0,0.0,0.0,0.0,0.0,0.0,0.0,0.0,0.0,0.0,0.0,0.0,0.0,0.0,-2.1879,-2.4783,-2.7096,-2.8457,-2.9175,-2.9295,-2.8652,-2.554,-2.2911,0.0,0.0,0.0,0.0,0.0,0.0,0.0,0.0,0.0,0.0,0.0,0.0,0.0,0.0,0.0,0.0,0.0,0.0,0.0,0.0,0.0,0.0,0.0,0.0,0.0,0.0,0.0,0.0,0.0,0.0,0.0,0.0,0.0,0.0,0.0,0.0,0.0,0.0,0.0,0.0,0.0,0.0,0.0,0.0,0.0,0.0,0.0,0.0,0.0,0.0,0.0,0.0,0.0,0.0,0.0,0.0,0.0,0.0,0.0,0.0,0.0,0.0,0.0,0.0,0.0,0.0,0.0,0.0,0.0,0.0,0.0,0.0,0.0,0.0,0.0,0.0,0.0,0.0,0.0,0.0,0.0,0.0,0.0,0.0,0.0,0.0,0.0,0.0,0.0,0.0,0.0,0.0,0.0,0.0,0.0,0.0,0.0,0.0,0.0,0.0,0.0,0.0,0.0,-2.2202,-2.4511,-2.6587,-2.8412,-2.8364,-2.8304,-2.8577,-2.6393,-2.4215,-2.2347,0.0,0.0,0.0,0.0,0.0,0.0,0.0,0.0,0.0,0.0,0.0,0.0,0.0,0.0,0.0,0.0,0.0,0.0,0.0,0.0,0.0,0.0,0.0,0.0,0.0,0.0,0.0,0.0,0.0,0.0,0.0,0.0,0.0,0.0,0.0,0.0,0.0,0.0,0.0,0.0,0.0,0.0,0.0,0.0,0.0,0.0,0.0,0.0,0.0,0.0,0.0,0.0,0.0,0.0,0.0,0.0,0.0,0.0,0.0,0.0,0.0,0.0,0.0,0.0,0.0,0.0,0.0,0.0,0.0,0.0,0.0,0.0,0.0,0.0,0.0,0.0,0.0,0.0,0.0,0.0,0.0,0.0,0.0,0.0,0.0,0.0,0.0,0.0,0.0,0.0,0.0,0.0,0.0,0.0,0.0,0.0,0.0,0.0,0.0,0.0,0.0,0.0,-2.196,-2.4236,-2.6273,-2.8008,-2.7839,-2.7764,-2.8184,-2.6363,-2.442,-2.2568,0.0,0.0,0.0,0.0,0.0,0.0,0.0,0.0,0.0,0.0,0.0,0.0,0.0,0.0,0.0,0.0,0.0,0.0,0.0,0.0,0.0,0.0,0.0,0.0,0.0,0.0,0.0,0.0,0.0,0.0,0.0,0.0,0.0,0.0,0.0,0.0,0.0,0.0,0.0,0.0,0.0,0.0,0.0,0.0,0.0,0.0,0.0,0.0,0.0,0.0,0.0,0.0,0.0,0.0,0.0,0.0,0.0,0.0,0.0,0.0,0.0,0.0,0.0,0.0,0.0,0.0,0.0,0.0,0.0,0.0,0.0,0.0,0.0,0.0,0.0,0.0,0.0,0.0,0.0,0.0,0.0,0.0,0.0,0.0,0.0,0.0,0.0,0.0,0.0,0.0,0.0,0.0,0.0,0.0,0.0,0.0,0.0,0.0,0.0,0.0,0.0,0.0,-2.1523,-2.4051,-2.6108,-2.7465,-2.76,-2.76,-2.76,-2.5809,-2.4003,-2.2404,0.0,0.0,0.0,0.0,0.0,0.0,0.0,0.0,0.0,0.0,0.0,0.0,0.0,0.0,0.0,0.0,0.0,0.0,0.0,0.0,0.0,0.0,0.0,0.0,0.0,0.0,0.0,0.0,0.0,0.0,0.0,0.0,0.0,0.0,0.0,0.0,0.0,0.0,0.0,0.0,0.0,0.0,0.0,0.0,0.0,0.0,0.0,0.0,0.0,0.0,0.0,0.0,0.0,0.0,0.0,0.0,0.0,0.0,0.0,0.0,-1.9181,0.0,0.0,0.0,0.0,0.0,0.0,0.0,0.0,0.0,0.0,0.0,0.0,0.0,0.0,0.0,0.0,0.0,0.0,0.0,0.0,0.0,0.0,0.0,0.0,0.0,0.0,0.0,0.0,0.0,0.0,0.0,0.0,0.0,0.0,0.0,0.0,0.0,0.0,0.0,0.0,0.0,-2.2461,-2.446,-2.6108,-2.7465,-2.76,-2.76,-2.76,-2.6243,-2.492,-2.382,0.0,0.0,0.0,0.0,0.0,0.0,0.0,0.0,0.0,0.0,0.0,0.0,0.0,0.0,0.0,0.0,0.0,0.0,0.0,0.0,0.0,0.0,0.0,0.0,0.0,0.0,0.0,0.0,0.0,0.0,0.0,0.0,0.0,0.0,0.0,0.0,0.0,0.0,0.0,0.0,0.0,0.0,0.0,0.0,0.0,0.0,0.0,0.0,0.0,0.0,0.0,0.0,0.0,0.0,0.0,0.0,0.0,0.0,0.0,0.0,0.0,-2.1207,0.0,0.0,0.0,0.0,0.0,0.0,0.0,0.0,0.0,0.0,0.0,0.0,0.0,0.0,0.0,0.0,0.0,0.0,0.0,0.0,0.0,0.0,0.0,0.0,0.0,0.0,0.0,0.0,0.0,0.0,0.0,0.0,0.0,0.0,0.0,0.0,0.0,0.0,0.0,0.0,-2.2611,-2.4792,-2.6467,-2.748,-2.76,-2.76,-2.76,-2.6686,-2.5603,-2.4463,-2.1941,0.0,0.0,0.0,0.0,0.0,0.0,0.0,0.0,0.0,0.0,0.0,0.0,0.0,0.0,0.0,0.0,0.0,0.0,0.0,0.0,0.0,0.0,0.0,0.0,0.0,0.0,0.0,0.0,0.0,0.0,0.0,0.0,0.0,0.0,0.0,0.0,0.0,0.0,0.0,0.0,0.0,0.0,0.0,0.0,0.0,0.0,0.0,0.0,0.0,0.0,0.0,0.0,0.0,0.0,-2.4161,-2.3985,-2.4594,-2.5109,-2.5468,-2.4402,-2.4389,-2.4997,0.0,0.0,0.0,0.0,0.0,0.0,0.0,0.0,0.0,0.0,0.0,0.0,0.0,0.0,0.0,0.0,0.0,0.0,0.0,0.0,0.0,0.0,0.0,0.0,0.0,-2.6632,-2.6033,0.0,0.0,0.0,0.0,0.0,0.0,0.0,0.0,0.0,0.0,0.0,0.0,-2.2763,-2.5129,-2.6866,-2.7525,-2.76,-2.76,-2.76,-2.7001,-2.6126,-2.498,-2.3386,-2.1738,0.0,0.0,0.0,0.0,0.0,0.0,0.0,0.0,0.0,0.0,0.0,0.0,0.0,0.0,0.0,0.0,0.0,0.0,0.0,0.0,0.0,0.0,0.0,0.0,0.0,0.0,0.0,0.0,0.0,0.0,0.0,0.0,-1.4706,-1.5678,0.0,0.0,0.0,0.0,0.0,0.0,0.0,0.0,0.0,0.0,0.0,0.0,0.0,0.0,-2.3775,-2.5669,-2.6496,-2.6173,-2.802,-2.8398,-2.7469,-2.7998,-2.8286,-2.8336,-2.8168,0.0,-2.6263,-2.497,0.0,0.0,0.0,0.0,0.0,0.0,0.0,0.0,0.0,0.0,0.0,0.0,0.0,0.0,0.0,0.0,0.0,0.0,0.0,0.0,0.0,0.0,-2.9355,-2.8427,-2.8712,-2.8888,0.0,-2.5285,-2.3056,-2.2104,0.0,0.0,0.0,0.0,0.0,0.0,0.0,0.0,-2.4022,-2.5674,-2.6866,-2.7525,-2.76,-2.76,-2.76,-2.7001,-2.6473,-2.6188,-2.4863,-2.3912,-2.3465,-2.1069,0.0,0.0,0.0,0.0,0.0,0.0,0.0,0.0,0.0,0.0,0.0,0.0,0.0,0.0,0.0,0.0,0.0,0.0,0.0,0.0,0.0,0.0,0.0,0.0,0.0,0.0,0.0,0.0,0.0,-1.4768,-1.6704,-1.6897,-1.7501,-1.7589,0.0,0.0,0.0,0.0,0.0,0.0,0.0,0.0,0.0,-2.3766,-2.4865,-2.5824,-2.6766,-2.7733,-2.8247,-2.8385,-2.9327,-2.9528,-2.9063,-2.9302,-2.9415,-2.9415,-2.9415,-2.9,-2.8301,-2.717,-2.6227,-2.536,0.0,0.0,0.0,0.0,0.0,-2.5097,-2.7341,-2.792,0.0,0.0,0.0,0.0,0.0,0.0,0.0,0.0,0.0,0.0,0.0,0.0,0.0,-3.0836,-3.1016,-3.1046,-3.036,-2.8786,-2.6961,0.0,-2.4185,-2.2802,-2.0378,0.0,0.0,0.0,0.0,0.0,-2.4963,-2.6333,-2.727,-2.757,-2.76,-2.76,-2.76,-2.733,-2.6814,-2.5993,-2.5394,-2.4664,-2.3739,-2.2491,-2.1123,0.0,0.0,0.0,0.0,0.0,0.0,0.0,0.0,0.0,0.0,0.0,0.0,0.0,0.0,0.0,0.0,0.0,0.0,0.0,0.0,0.0,0.0,0.0,0.0,0.0,0.0,0.0,0.0,-1.7055,-1.851,-1.8073,-1.9233,-1.9559,0.0,0.0,0.0,0.0,0.0,0.0,-2.3314,-2.4443,-2.5485,-2.6414,-2.7143,-2.8109,-2.9314,-2.9452,-2.9779,-3.0206,-3.0206,-3.0206,-3.0206,-3.0206,-3.0131,-3.0005,-3.0005,-2.993,-2.973,-2.8758,-2.7894,-2.7051,-2.6578,-2.6109,-2.5837,-2.6781,-2.6954,-2.7138,-3.0017,-3.0851,-3.0659,-3.0818,0.0,-2.8951,-2.6757,0.0,0.0,0.0,0.0,-2.8996,-3.0791,-3.1644,-3.2123,-3.2647,-3.2632,-3.2348,-3.1854,-3.1212,-3.0133,0.0,-2.732,-2.6273,-2.3676,0.0,0.0,0.0,0.0,-2.5555,-2.6048,-2.7111,-2.7794,-2.7615,-2.76,-2.76,-2.76,-2.7435,-2.69,-2.587,-2.5766,-2.5185,-2.3909,-2.3786,-2.2783,-2.0767,0.0,0.0,0.0,0.0,0.0,0.0,0.0,0.0,0.0,0.0,0.0,0.0,0.0,0.0,0.0,0.0,0.0,0.0,0.0,0.0,0.0,0.0,0.0,0.0,0.0,0.0,0.0,0.0,0.0,-1.9724,-2.1578,0.0,0.0,0.0,0.0,-2.2857,-2.3948,-2.5096,-2.6235,-2.7306,-2.816,-2.8712,-2.979,-3.0444,-3.0532,-3.1022,-3.1286,-3.1311,-3.1311,-3.1311,-3.1311,-3.1311,-3.1035,-3.057,-3.057,-3.0281,-2.9741,-2.9101,-2.8952,-2.9,-2.8454,-2.8352,-2.8479,-2.8372,-2.8839,-2.9621,-3.0522,-3.134,-3.2237,-3.3773,-3.2946,-3.1212,-3.0447,-2.9355,0.0,0.0,-3.0748,-3.1615,-3.2991,-3.3365,-3.341,-3.344,-3.2961,-3.2497,-3.2452,-3.1914,-3.1212,0.0,-2.9325,-2.8233,-2.745,0.0,-2.6333,-2.6303,-2.6971,-2.7465,-2.7495,-2.8098,-2.8308,-2.766,-2.76,-2.76,-2.76,-2.7031,-2.6572,-2.6356,-2.623,-2.5847,-2.5131,-2.4987,-2.4288,-2.2959,-2.0863,0.0,0.0,0.0,0.0,0.0,0.0,0.0,0.0,0.0,0.0,0.0,0.0,0.0,0.0,0.0,0.0,0.0,0.0,0.0,0.0,0.0,0.0,0.0,0.0,0.0,0.0,0.0,0.0,-2.2518,-2.4142,0.0,0.0,-2.4004,-2.4657,-2.5234,-2.6302,-2.7268,-2.8009,-2.9114,-2.9817,-3.0005,-3.0733,-3.111,-3.111,-3.1298,-3.1386,-3.1386,-3.1386,-3.1386,-3.1386,-3.1386,-3.1286,-3.111,-3.111,-3.0997,-3.0783,-3.0244,-2.9833,-2.9553,-2.94,-2.933,-2.9383,-2.9345,-2.9897,-3.0806,-3.1679,-3.2559,-3.3469,-3.4248,-3.3709,-3.2751,-3.2497,-3.2108,-3.1928,-3.2811,-3.3245,-3.3634,-3.4547,-3.4786,-3.4681,-3.4233,-3.3948,-3.3544,-3.2706,-3.2303,-3.1944,-3.1271,-3.0447,-2.949,-2.8427,-2.8382,-2.8244,-2.7375,-2.8184,-2.8888,-2.8888,-2.8712,-2.8502,-2.8263,-2.7869,-2.76,-2.76,-2.7001,-2.6219,-2.5304,-2.478,-2.4184,-2.3425,-2.3307,-2.301,-2.2482,-2.0951,-1.9245,0.0,0.0,0.0,0.0,0.0,0.0,0.0,0.0,0.0,0.0,0.0,0.0,0.0,0.0,0.0,0.0,0.0,0.0,0.0,0.0,0.0,0.0,0.0,0.0,0.0,0.0,-2.445,-2.4532,-2.6,-2.659,-2.5485,-2.6189,-2.6879,-2.7268,-2.8323,-2.9114,-2.9439,-3.0369,-3.0871,-3.0871,-3.1386,-3.1675,-3.1675,-3.1863,-3.1951,-3.1951,-3.1951,-3.1951,-3.1951,-3.1951,-3.1851,-3.1675,-3.1675,-3.1562,-3.1361,-3.1022,-3.0658,-3.0294,-2.993,-2.9792,-2.983,-3.0139,-3.0457,-3.0908,-3.2177,-3.3429,-3.4537,-3.4758,-3.4532,-3.4173,-3.4173,-3.4173,-3.4262,-3.4696,-3.4848,-3.4936,-3.5385,-3.5504,-3.5385,-3.4936,-3.4668,-3.4279,-3.3365,-3.3006,-3.2647,-3.1959,-3.1286,-3.0554,-2.9702,-2.9953,-2.9939,-2.9041,-2.9669,-3.0163,-2.9924,-2.952,-2.9086,-2.8652,-2.8188,-2.7854,-2.7615,-2.6947,-2.6151,-2.5258,-2.4706,-2.3997,-2.3048,-2.3276,-2.2991,-2.2131,-2.0709,-1.9704,-1.9097,0.0,0.0,0.0,0.0,0.0,0.0,0.0,0.0,0.0,0.0,0.0,0.0,0.0,0.0,0.0,0.0,0.0,0.0,0.0,0.0,0.0,0.0,0.0,-2.415,-2.5018,-2.5685,-2.5703,-2.7155,-2.7733,-2.67,-2.8034,-2.8938,-2.8938,-3.0005,-3.0633,-3.0633,-3.1135,-3.1411,-3.1411,-3.1951,-3.224,-3.224,-3.2805,-3.3124,-3.3124,-3.3124,-3.3124,-3.3124,-3.3124,-3.2767,-3.224,-3.224,-3.1938,-3.1436,-3.1424,-3.1411,-3.1311,-3.0231,-2.9817,-2.992,-3.0871,-3.0658,-3.0177,-3.2046,-3.3939,-3.5504,-3.5504,-3.5504,-3.5504,-3.5504,-3.5504,-3.5504,-3.5504,-3.5504,-3.5504,-3.5504,-3.5504,-3.5504,-3.5504,-3.4996,-3.4533,-3.4503,-3.3978,-3.332,-3.2647,-3.1974,-3.1525,-3.1511,-3.1511,-3.1511,-3.1511,-3.1511,0.0,-3.0612,-3.0507,-3.0028,-2.8813,-2.8648,-2.8374,-2.7725,-2.6894,-2.6399,-2.6346,-2.6037,-2.5366,-2.4195,-2.5028,-2.4447,-2.2212,-2.0444,-1.9952,-2.073,0.0,0.0,0.0,0.0,0.0,0.0,0.0,0.0,0.0,0.0,0.0,0.0,0.0,0.0,0.0,0.0,0.0,0.0,0.0,0.0,0.0,0.0,-2.6691,-2.5355,-2.6462,-2.7571,-2.7946,-2.88,-2.9214,-2.8913,-2.9654,-3.0116,-3.0116,-3.0783,-3.1173,-3.1173,-3.1687,-3.1989,-3.1989,-3.2541,-3.2842,-3.2842,-3.3006,-3.3124,-3.3124,-3.3124,-3.3124,-3.3124,-3.3124,-3.2993,-3.2842,-3.2842,-3.2754,-3.2579,-3.2164,-3.1989,-3.1876,-3.0809,-3.0394,-3.045,-3.0989,-3.1888,-3.301,-3.4274,-3.5067,-3.5504,-3.5504,-3.5504,-3.5504,-3.5504,-3.5504,-3.5504,-3.5504,-3.5504,-3.5504,-3.5504,-3.5504,-3.5504,-3.5504,-3.5355,-3.5085,-3.4608,-3.4369,-3.3873,-3.2736,-3.2333,-3.2064,-3.1585,-3.1511,-3.1511,-3.1511,-3.1511,0.0,-3.1241,-3.0806,-3.0551,-3.0753,-2.9858,-2.9198,-2.9058,-2.7473,-2.6072,0.0,-2.3971,-2.3261,-2.3131,-2.3496,-2.365,-2.3549,-2.3357,-2.2678,0.0,0.0,0.0,0.0,0.0,0.0,0.0,0.0,0.0,0.0,0.0,0.0,0.0,0.0,0.0,0.0,0.0,0.0,0.0,0.0,0.0,0.0,-2.8681,-2.9492,-2.8352,-2.8678,-2.9252,-2.9803,-2.9834,-2.988,-3.0118,-3.0432,-3.0708,-3.0922,-3.1436,-3.1738,-3.1738,-3.2265,-3.2579,-3.2579,-3.2905,-3.3124,-3.3124,-3.3124,-3.3124,-3.3124,-3.3124,-3.3124,-3.3124,-3.3124,-3.3124,0.0,-3.3124,-3.3124,-3.3056,-3.2717,-3.2579,0.0,0.0,0.0,0.0,0.0,-3.2749,-3.4095,-3.4658,-3.5133,-3.5504,-3.5504,-3.5504,-3.5504,-3.5504,-3.5504,-3.5504,-3.5504,-3.5504,-3.5504,-3.5504,-3.5504,-3.5504,-3.5504,-3.5504,-3.5385,-3.4996,-3.4906,-3.4607,-3.3544,0.0,0.0,-3.2034,-3.169,-3.1511,-3.1511,-3.1511,-3.1511,-3.1511,-3.1152,-3.099,-3.1128,-3.0422,-2.9719,-2.9205,-2.8013,0.0,0.0,0.0,-2.4641,-2.4471,-2.4122,0.0,0.0,0.0,0.0,0.0,0.0,0.0,0.0,-2.309,-2.3386,0.0,0.0,0.0,0.0,0.0,0.0,0.0,0.0,0.0,0.0,0.0,0.0,0.0,0.0,0.0,0.0,-3.1199,-3.2327,-3.2238,-3.1308,-3.0771,-3.1151,-3.0432,-3.008,-3.057,-3.0721,-3.0984,-3.1449,-3.1989,-3.2303,-3.2303,0.0,0.0,0.0,0.0,-3.3269,-3.3269,-3.3269,-3.3269,-3.3269,-3.3269,-3.3269,-3.3257,-3.3206,-3.3212,-3.3212,-3.3149,-3.3124,-3.3124,-3.3124,-3.324,-3.3454,-3.3196,-3.2736,-3.2317,-3.2708,-3.3458,0.0,0.0,0.0,0.0,-3.5504,-3.5504,-3.5504,-3.5504,-3.5504,-3.5504,-3.5504,-3.5504,-3.5504,-3.5504,-3.5504,-3.5504,-3.5504,-3.5504,-3.5504,-3.5504,-3.5504,-3.5295,-3.4638,-3.4008,-3.338,-3.2647,-3.1944,-3.1511,-3.1511,-3.1511,-3.1511,-3.1511,-3.1511,-3.13,-3.0784,0.0,0.0,-2.9154,-2.8713,-2.8232,-2.7597,-2.7849,-2.7758,-2.718,-2.627,-2.6007,-2.649,-2.6757,-2.7435,-2.8499,-2.8697,-2.882,-2.8768,-2.6418,-2.6379,0.0,0.0,0.0,0.0,0.0,0.0,0.0,0.0,0.0,0.0,0.0,0.0,0.0,0.0,0.0,-3.1649,-3.3105,-3.4216,-3.4706,-3.3259,-3.1947,-3.1278,-3.0753,-3.0507,-3.0608,-3.1399,-3.1938,-3.2051,-3.2591,-3.2918,-3.2918,-3.3432,0.0,-3.3746,-3.4173,-3.4399,-3.4399,-3.4399,-3.4399,-3.4399,0.0,0.0,-3.4387,-3.3935,-3.3746,-3.3721,-3.3269,-3.3124,-3.3124,-3.3124,-3.4095,-3.5466,-3.414,-3.3775,-3.3967,-3.4391,-3.5165,-3.5945,-3.5391,-3.5359,-3.5504,-3.5504,-3.5504,-3.5504,-3.5504,-3.5504,0.0,-3.5504,-3.5504,-3.5504,-3.5504,-3.5504,-3.5504,-3.5504,-3.5504,-3.5504,-3.5504,-3.5504,-3.5295,-3.4638,-3.4414,-3.3903,-3.2721,-3.1944,-3.1511,-3.1511,-3.1511,-3.1511,-3.1511,-3.1511,-3.1694,-3.2143,-3.1589,-3.1382,-3.1785,-3.0228,-2.8956,-2.8412,-2.788,-2.7955,-2.8717,-2.9205,-2.9509,-2.9562,-3.0179,-3.0029,-2.9144,-2.9787,-3.0129,-3.0103,-2.9136,-2.8604,0.0,0.0,0.0,0.0,0.0,0.0,0.0,0.0,0.0,0.0,0.0,-2.895,0.0,0.0,-3.2437,-3.3799,-3.4562,-3.5115,-3.5459,-3.4225,-3.2961,-3.1997,-3.1138,-3.0721,-3.0972,-3.1738,-3.234,-3.2629,-3.3169,-3.3483,-3.3483,-3.401,-3.4311,-3.4311,-3.4575,-3.468,-3.468,-3.468,-3.468,-3.468,-3.468,-3.468,-3.4668,-3.4437,-3.4311,-3.4299,-3.4022,-3.3746,-3.3501,-3.3785,-3.4802,-3.617,-3.5933,-3.5756,-3.5753,-3.6087,-3.6026,-3.5751,-3.5922,-3.5774,-3.5504,-3.5504,-3.5504,-3.5504,-3.5504,-3.5504,-3.5504,-3.5504,-3.5504,-3.5504,-3.5504,-3.5504,-3.5504,-3.5504,-3.5504,-3.5504,-3.5504,-3.5504,-3.54,-3.5055,-3.4711,-3.4294,-3.3604,-3.2677,-3.1884,-3.1555,-3.1511,-3.1511,-3.1511,-3.1511,-3.164,-3.2007,-3.1688,-3.1488,-3.1548,-3.0604,-3.0164,-3.0523,-3.0225,-3.0257,-3.082,-3.1269,-3.1348,-3.0998,-3.1694,-3.1691,-3.0948,-3.1353,-3.1563,-3.153,-3.0854,-3.0387,0.0,0.0,0.0,0.0,0.0,0.0,0.0,0.0,-2.9376,-3.0997,-3.1798,-3.2352,-3.2792,-3.3425,-3.4277,-3.5504,-3.5699,-3.5744,-3.5863,-3.4907,-3.3842,-3.2915,-3.1765,-3.1122,-3.1389,-3.1989,-3.2579,-3.3043,-3.3583,-3.3897,-3.3897,-3.4525,-3.4876,-3.4876,-3.4989,-3.5039,-3.5039,-3.5039,-3.5039,-3.5039,-3.5039,-3.5039,-3.5039,-3.4926,-3.4967,-3.5212,-3.5309,-3.5071,-3.455,-3.5033,-3.571,-3.6604,-3.7472,-3.7676,-3.7463,-3.7545,-3.6778,-3.5744,-3.6301,-3.6148,-3.5669,-3.5549,-3.5504,-3.5504,-3.5504,-3.5504,-3.5504,-3.5504,-3.5504,-3.5504,-3.5504,-3.5504,-3.5504,-3.5504,-3.5504,-3.5504,-3.5504,-3.5504,-3.5504,-3.5504,-3.5055,-3.4668,-3.4533,-3.3589,-3.2632,-3.1809,-3.1585,-3.1511,-3.1511,-3.1511,-3.1511,-3.1511,-3.1511,-3.1326,-3.0925,-3.1073,-3.1606,-3.2602,-3.2563,-3.2607,-3.289,-3.289,-3.2669,-3.2176,-3.2716,-3.2908,-3.28,-3.2798,-3.2722,-3.2602,-3.1979,-3.164,-2.4861,-2.6167,-2.7773,-2.9227,-2.9668,-3.097,0.0,0.0,-3.3469,-3.5589,-3.5539,-3.5153,-3.5191,-3.5245,-3.5519,-3.6252,-3.6372,-3.6567,-3.712,-3.5878,-3.4533,-3.3576,-3.2946,-3.2265,-3.1455,-3.2353,-3.3048,-3.3111,-3.3583,-3.3897,-3.3897,-3.4843,-3.5408,-3.5408,-3.5931,-3.6229,-3.6229,-3.6229,-3.6229,-3.6229,-3.6229,-3.6229,-3.6204,-3.5667,-3.6011,-3.7042,-3.758,-3.7428,-3.6825,-3.6919,-3.7214,-3.7625,-3.7753,-3.8339,-3.9071,-3.8491,-3.8157,-3.7848,-3.6847,-3.6432,-3.6282,-3.5684,-3.5504,-3.5504,-3.5504,-3.5504,-3.5504,-3.5504,-3.5504,-3.5504,-3.5504,-3.5504,-3.5504,-3.5504,-3.5504,-3.5504,-3.5504,-3.5504,-3.5504,-3.5504,-3.5444,-3.519,-3.4608,-3.4384,-3.3844,-3.2587,-3.1884,-3.1511,-3.1511,-3.1511,-3.1511,-3.1511,-3.1511,-3.1706,-3.2218,-3.2878,-3.3264,-3.3313,-3.2801,-3.304,-3.4228,-3.4267,-3.427,-3.4257,-3.4339,-3.408,-3.3496,-3.3499,-3.3198,-3.2586,-3.252,-3.212,-2.9566,-3.0277,0.0,0.0,-3.3981,-3.5216,-3.7415,-3.6956,-3.6426,-3.776,-3.7415,-3.6749,-3.6272,-3.5809,-3.5729,0.0,-3.6492,-3.6701,-3.733,-3.6531,-3.5319,-3.3796,-3.3319,-3.268,-3.1511,-3.2102,-3.2842,-3.3508,-3.406,-3.4512,-3.4793,-3.5592,-3.6019,-3.6019,-3.6292,-3.6405,-3.6405,-3.6405,-3.6405,-3.6405,-3.6405,-3.6405,-3.6405,-3.6119,-3.6678,-3.7801,-3.841,-3.8852,-3.9145,-3.8422,-3.8621,-3.9261,-3.8892,-3.9017,-3.9394,-3.9095,-3.8736,-3.8317,-3.7778,-3.7105,-3.6432,-3.6163,-3.5818,-3.5504,-3.5504,-3.5504,-3.5504,-3.5504,-3.5504,-3.5504,-3.5504,-3.5504,-3.5504,-3.5504,-3.5504,-3.5504,-3.5504,-3.5504,-3.5504,-3.5504,-3.5504,-3.5415,-3.513,-3.4773,-3.4324,-3.3739,-3.2766,-3.2079,-3.2079,-3.1735,-3.1511,-3.1511,-3.1881,-3.2408,-3.308,-3.3771,-3.4336,-3.4665,-3.4438,-3.4566,-3.5109,-3.5148,-3.5133,-3.5168,-3.5184,-3.5052,-3.4752,-3.4358,-3.4046,-3.3745,-3.3337,-3.2968,-3.2211,0.0,0.0,-3.5509,-3.7077,-3.8261,-3.8464,-3.8514,-3.8638,-3.9125,-3.8624,-3.7847,-3.7084,-3.6321,0.0,-3.6645,-3.6746,-3.703,-3.7853,-3.7255,-3.6143,-3.4445,-3.3631,-3.282,-3.1891,-3.2041,-3.2616,-3.3596,-3.4324,-3.4856,-3.5257,-3.5981,-3.6405,-3.6405,-3.6405,-3.6405,-3.6405,-3.6405,-3.6534,-3.6896,-3.6896,-3.7023,-3.7381,-3.7678,-3.8289,-3.9129,-3.9858,-4.0508,-4.1022,-3.993,-3.9864,-4.0337,-3.9679,-3.9388,-3.9388,-3.9388,-3.9095,-3.8646,-3.8452,-3.7659,-3.6716,-3.6537,-3.6043,-3.5504,-3.5504,-3.5504,-3.5504,-3.5504,-3.5504,-3.5504,-3.5504,-3.5504,-3.5504,-3.5504,-3.5504,-3.5504,-3.5504,-3.5504,-3.5504,-3.5504,-3.5504,-3.5504,-3.5504,-3.51,-3.4788,-3.4788,-3.3784,-3.2916,-3.2557,-3.1914,-3.1511,-3.1511,-3.2312,-3.3066,-3.3556,-3.4382,-3.5075,-3.5577,-3.56,-3.56,-3.56,-3.56,-3.56,-3.56,-3.56,-3.56,-3.56,-3.511,-3.4781,-3.4585,-3.4041,-3.3765,0.0,0.0,-3.6268,-3.6673,-3.7855,-3.914,-3.9876,-4.0028,-4.0045,-4.007,-3.9437,-3.8635,-3.7892,-3.71,-3.6752,-3.7286,-3.7375,-3.7838,-3.9134,-3.8212,-3.7001,-3.6063,-3.3965,-3.2668,0.0,-3.2426,-3.2466,-3.3056,-3.411,-3.4726,-3.4705,-3.5768,-3.6405,-3.6405,-3.6405,-3.6405,-3.6405,-3.6405,-3.693,-3.8062,-3.8062,-3.8649,-3.9855,-4.0958,-4.1462,-4.1545,-4.2655,-4.2862,-4.2297,-4.1586,-4.098,-4.0337,-3.9679,-3.9388,-3.9388,-3.9388,-3.9373,-3.929,-3.8616,-3.7943,-3.7285,-3.6686,-3.6043,-3.5504,-3.5504,-3.5504,-3.5504,-3.5504,-3.5504,-3.5504,-3.5504,-3.5504,-3.5504,-3.5504,-3.5504,-3.5504,-3.5504,-3.5504,-3.5504,-3.5504,-3.5504,-3.5504,-3.5504,-3.5489,-3.5474,-3.5474,-3.4876,-3.3963,-3.2677,-3.1914,-3.1511,-3.1511,-3.2745,-3.3582,-3.3582,-3.48,-3.5577,-3.56,-3.56,-3.56,-3.56,-3.56,-3.56,-3.56,-3.56,-3.56,-3.56,-3.5577,-3.5235,-3.4601,-3.4498,-3.4468,0.0,0.0,-3.6973,-3.8437,-3.9259,-3.9791,-4.0045,-4.0096,-4.0096,-4.0096,-3.908,-3.8093,-3.7867,-3.6743,-3.623,-3.7281,-3.7443,-3.7883,-3.9194,-3.8631,-3.7733,-3.6794,-3.4973,0.0,0.0,0.0,0.0,-3.3508,-3.3972,-3.45,-3.5182,-3.5956,-3.6405,-3.6405,-3.6405,-3.6405,-3.6405,-3.715,-3.7723,-3.8107,-3.8917,-3.9492,-3.9942,-4.1085,-4.1587,-4.167,-4.2805,-4.317,-4.2955,-4.2336,-4.1677,-4.0995,-4.0337,-3.9798,-3.9388,-3.9388,-3.9388,-3.9394,-3.9155,-3.8631,-3.7958,-3.7315,-3.6671,-3.6073,-3.5639,-3.5504,-3.5504,-3.5504,-3.5504,-3.5504,-3.5504,-3.5504,-3.5504,-3.5504,-3.5504,-3.5504,-3.5504,-3.5504,-3.5504,-3.5504,-3.5504,-3.5504,-3.5504,-3.5504,-3.5504,-3.5504,-3.4921,-3.4189,-3.3275,-3.2587,-3.2153,-3.2153,-3.2644,-3.2949,-3.2949,-3.4178,-3.4941,-3.4941,-3.5362,-3.56,-3.56,-3.56,-3.56,-3.56,-3.56,-3.5853,-3.64,-3.6411,-3.6257,-3.5991,-3.5962,-3.5669,0.0,-3.8018,-3.8119,-3.9783,-4.0155,-4.0096,-4.0096,-4.0096,-3.996,-3.9436,-3.8539,-3.76,-3.6757,-3.5641,-3.5404,-3.7279,-3.7077,-3.7447,-3.9571,-3.9008,-3.8255,-3.7901,-3.6353,0.0,0.0,0.0,0.0,-3.3815,-3.4261,-3.4756,-3.5458,-3.6056,-3.6405,-3.6405,-3.6405,-3.6405,-3.6405,-3.715,-3.7893,-3.8783,-4.0361,-4.1099,-4.1141,-4.1864,-4.2208,-4.2249,-4.2981,-4.329,-4.3245,-4.2626,-4.2006,-4.1309,-4.0651,-3.9993,-3.9388,-3.9388,-3.9388,-3.9388,-3.9388,-3.896,-3.8287,-3.7629,-3.6985,-3.6357,-3.5699,-3.5504,-3.5504,-3.5504,-3.5504,-3.5504,-3.5504,-3.5504,-3.5504,-3.5504,-3.5504,-3.5504,-3.5504,-3.5504,-3.5504,-3.5504,-3.5504,-3.5504,-3.5504,-3.5504,-3.5504,-3.5504,-3.513,-3.4607,-3.3933,-3.3275,-3.2871,-3.2871,-3.311,-3.3163,-3.2958,-3.4156,-3.4872,-3.4616,-3.523,-3.56,-3.56,-3.56,-3.5735,-3.6028,-3.6028,-3.6417,-3.7178,-3.716,-3.7159,-3.7083,-3.6807,-3.6393,-3.9967,-3.9862,-3.9705,-4.0699,-4.0521,-4.0096,-4.0096,-4.0045,-3.9588,-3.8142,-3.7753,-3.7006,0.0,0.0,-3.4436,-3.7064,-3.6415,-3.6793,-4.0164,-3.9388,-3.8751,0.0,0.0,0.0,0.0,0.0,0.0,-3.4111,0.0,-3.547,-3.5495,-3.6056,-3.6405,-3.6405,-3.6405,-3.6452,-3.6499,-3.6628,-3.7815,-4.0116,-4.2263,-4.329,-4.329,-4.329,-4.329,-4.329,-4.329,-4.329,-4.3245,-4.2671,-4.2036,-4.1324,-4.0696,-4.0023,-3.9388,-3.9388,-3.9388,-3.9388,-3.9388,-3.899,-3.8332,-3.7674,-3.7045,-3.6417,-3.5744,-3.5534,-3.5504,-3.5504,-3.5504,-3.5504,-3.5504,-3.5504,-3.5504,-3.5504,-3.5504,-3.5504,-3.5504,-3.5504,-3.5504,-3.5504,-3.5504,-3.5504,-3.5504,-3.5504,-3.5504,-3.5504,-3.5504,-3.5265,-3.4638,-3.3979,-3.3544,-3.3544,-3.4103,-3.422,-3.3599,-3.4818,-3.535,-3.4765,-3.5348,-3.5718,-3.5718,-3.5718,-3.6096,-3.6846,-3.6863,-3.7212,-3.7973,-3.7893,-3.7844,-3.784,-3.7049,-3.6661,-4.0515,-4.0705,-4.069,-4.1385,-4.0838,-4.0096,-4.0096,-3.9242,-3.8193,-3.7286,-3.5723,-3.4018,-3.2349,0.0,0.0,-3.4238,-3.5784,0.0,-3.9461,-3.9824,0.0,0.0,0.0,-3.9071,-3.911,-3.763,0.0,0.0,-3.5462,-3.5069,-3.547,-3.6056,-3.6405,-3.6405,-3.6405,-3.6803,-3.7678,-3.942,-4.0986,-4.2441,-4.3036,-4.329,-4.329,-4.329,-4.329,-4.329,-4.329,-4.329,-4.329,-4.315,-4.2417,-4.1369,-4.119,-4.0427,-3.9388,-3.9388,-3.9388,-3.9388,-3.9388,-3.9305,-3.9035,-3.8362,-3.7704,-3.706,-3.6432,-3.5893,-3.5504,-3.5504,-3.5504,-3.5504,-3.5504,-3.5504,-3.5504,-3.5504,-3.5504,-3.5504,-3.5504,-3.5504,-3.5504,-3.5504,-3.5504,-3.5504,-3.5504,-3.5504,-3.5504,-3.5504,-3.5504,-3.5444,-3.5265,-3.4651,-3.4264,-3.4264,-3.3953,-3.3923,-3.4355,-3.5193,-3.5837,-3.6232,-3.693,-3.7307,-3.7307,-3.7307,-3.7415,-3.7618,-3.7618,-3.7973,-3.8717,-3.8697,-3.8662,-3.8617,-3.8427,-3.77,-4.2366,-4.2456,-4.2306,-4.2641,-4.1576,-4.0192,-3.9224,-3.8169,-3.6738,-3.4336,-3.2848,0.0,-2.955,0.0,0.0,0.0,0.0,0.0,-3.9221,-4.0022,-4.0651,0.0,-4.1133,0.0,-4.0602,-3.9747,-3.8741,0.0,-3.6301,-3.5579,-3.5881,-3.6194,-3.6405,-3.6405,-3.6405,-3.693,-3.8107,-4.0419,-4.1932,-4.2548,-4.3076,-4.329,-4.329,-4.329,-4.329,-4.329,0.0,-4.329,-4.329,-4.329,-4.2566,-4.1422,-4.1422,-4.0576,-3.9388,-3.9388,-3.9388,-3.9388,-3.9388,-3.9388,-3.9305,-3.8616,-3.8138,-3.7674,-3.6761,-3.6237,-3.5878,-3.5594,-3.5504,-3.5504,-3.5504,-3.5504,-3.5504,-3.5504,-3.5504,-3.5504,-3.5504,-3.5504,-3.5504,-3.5504,-3.5504,-3.5504,-3.5504,-3.5504,-3.5504,-3.5504,-3.5504,-3.5504,-3.5504,-3.516,-3.4921,-3.4921,-3.4892,-3.4912,-3.5081,-3.6019,-3.6662,-3.6776,-3.75,-3.7905,-3.7905,-3.7905,-3.8058,-3.8379,-3.8379,-3.8751,-3.9486,-3.9486,-3.9277,-3.8881,-3.858,-3.7774,-4.4488,-4.4234,-4.376,-4.3868,-4.237,-4.0283,-3.8092,-3.6921,-3.5106,-3.0838,0.0,-2.8839,-2.6657,0.0,-2.9105,-3.2297,0.0,-3.5649,-3.9049,-4.0051,-4.0681,-4.1452,-4.2126,-4.2317,-4.1889,-4.1684,-4.076,-3.8725,-3.7368,-3.6534,-3.6405,-3.6405,-3.6452,-3.6628,-3.693,-3.754,-3.8545,-4.0718,-4.185,-4.185,-4.282,-4.329,-4.329,-4.329,-4.329,-4.329,0.0,0.0,-4.329,-4.329,-4.2566,-4.1422,-4.1422,-4.0576,-3.9388,-3.9388,-3.9388,-3.9388,-3.9388,-3.9388,-3.932,-3.8721,-3.8467,-3.8167,-3.6971,-3.6552,-3.6357,-3.5684,-3.5504,-3.5504,-3.5504,-3.5504,-3.5504,-3.5504,-3.5504,-3.5504,-3.5504,-3.5504,-3.5504,-3.5504,-3.5504,-3.5504,-3.5504,-3.5504,-3.5504,-3.5504,-3.5504,-3.5504,-3.5504,-3.5504,-3.5504,-3.5504,-3.6165,-3.6398,-3.5927,-3.7141,-3.7748,-3.7259,-3.7834,-3.8193,-3.8193,-3.8193,-3.8481,-3.9123,-3.914,-3.9469,-4.0096,-3.9978,-3.9568,-3.8881,-3.8133,-3.7368,-4.4488,-4.3815,-4.3054,-4.3723,-4.2251,-4.012,-3.8077,-3.5602,0.0,0.0,0.0,-2.5896,-2.4272,-2.6097,0.0,-2.9473,0.0,0.0,0.0,0.0,-4.0846,0.0,0.0,0.0,0.0,0.0,0.0,0.0,0.0,0.0,-3.6452,-3.6405,-3.6849,-3.7756,-3.9669,-4.0802,-4.0986,-4.233,-4.3036,-4.3036,-4.321,-4.329,-4.329,-4.329,-4.329,-4.329,0.0,0.0,-4.329,-4.329,-4.2566,-4.1422,-4.1422,-4.0576,-3.9388,-3.9388,-3.9388,-3.9388,-3.9388,-3.9388,-3.9394,-3.9239,-3.8856,-3.8242,-3.7479,-3.6896,-3.6357,-3.5684,-3.5504,-3.5504,-3.5504,-3.5504,-3.5504,-3.5504,-3.5504,-3.5504,-3.5504,-3.5504,-3.5504,-3.5504,-3.5504,-3.5504,-3.5504,-3.5504,-3.5504,-3.5504,-3.5504,-3.5504,-3.5504,-3.5504,-3.5504,-3.5504,-3.6165,-3.6827,-3.7369,-3.8219,-3.8934,-3.9489,-3.9631,-3.9723,-3.9723,-3.9723,-3.9791,-3.991,-3.991,-3.9977,-4.0096,-3.9437,-3.9032,-3.8881,-3.8133,-3.7368,-4.4617,-4.4218,-4.3834,-4.4216,-4.2639,-4.0089,-3.653,0.0,0.0,0.0,0.0,-2.412,-2.3038,0.0,0.0,0.0,0.0,0.0,0.0,0.0,0.0,0.0,0.0,0.0,0.0,0.0,0.0,0.0,0.0,0.0,-3.827,-3.8225,-3.8482,-3.9006,-4.0675,-4.1587,-4.1587,-4.2725,-4.329,-4.329,-4.329,-4.329,-4.329,-4.329,-4.329,-4.329,-4.329,0.0,-4.329,-4.329,-4.2566,-4.1422,-4.1422,-4.0576,-3.9388,-3.9388,-3.9388,-3.9388,-3.9388,-3.9388,-3.9388,-3.9388,-3.9185,-3.8736,-3.7719,-3.721,-3.6761,-3.5789,-3.5504,-3.5504,-3.5504,-3.5504,-3.5504,-3.5504,-3.5504,-3.5504,-3.5504,-3.5504,-3.5504,-3.5504,-3.5504,-3.5504,-3.5504,-3.5504,-3.5504,-3.5504,-3.5504,-3.5504,-3.5504,-3.5846,-3.6054,-3.6054,-3.7114,-3.7958,-3.833,-3.9059,-3.9688,-4.007,-4.0096,-4.0096,-4.0096,-4.0096,-4.0096,-4.0096,-4.0096,-4.0096,-4.0096,-3.9714,-3.9102,-3.8302,-3.795,-3.7175,-4.4617,-4.4563,-4.4488,-4.4672,-4.2868,-3.9842,-3.507,-3.2627,0.0,0.0,0.0,-2.2987,-2.2398,0.0,0.0,0.0,0.0,0.0,0.0,0.0,0.0,0.0,0.0,0.0,0.0,0.0,0.0,0.0,0.0,0.0,0.0,-4.0145,-4.0275,-4.0275,-4.1393,-4.1932,-4.1932,-4.286,-4.329,-4.329,-4.329,-4.329,-4.329,-4.329,-4.329,-4.329,-4.329,0.0,0.0,-4.329,-4.2566,-4.1422,-4.1422,-4.0576,-3.9388,-3.9388,-3.9388,-3.9388,-3.9388,-3.9388,-3.9388,-3.9388,-3.9388,-3.9134,-3.7823,-3.7404,-3.7135,-3.5863,-3.5504,-3.5504,-3.5504,-3.5504,-3.5504,-3.5504,-3.5504,-3.5504,-3.5504,-3.5504,-3.5504,-3.5504,-3.5504,-3.5504,-3.5504,-3.5504,-3.5504,-3.5504,-3.5504,-3.5504,-3.5504,-3.629,-3.6859,-3.6859,-3.8072,-3.8908,-3.8908,-3.9636,-4.0096,-4.0096,-4.0096,-4.0096,-4.0096,-4.0096,-4.0096,-4.0096,-4.0096,-4.0096,-4.0096,-3.9927,-3.9209,-3.8035,-3.769,-3.6874,-4.4305,-4.4176,-4.3791,-4.4525,-4.2344,-3.8994,-3.492,0.0,0.0,0.0,-2.2868,-2.2381,-2.2313,-2.3028,0.0,0.0,0.0,0.0,0.0,0.0,0.0,0.0,0.0,0.0,0.0,0.0,0.0,0.0,0.0,0.0,0.0,-4.0873,-4.142,-4.142,-4.2548,-4.3155,-4.3155,-4.325,-4.329,-4.329,-4.329,-4.329,-4.329,-4.329,-4.329,-4.329,0.0,0.0,0.0,-4.329,-4.2566,-4.1422,-4.1422,-4.0576,-3.9388,-3.9388,-3.9388,-3.9388,-3.9388,-3.9388,-3.9388,-3.9388,-3.9388,-3.9134,-3.7823,-3.7404,-3.7135,-3.5863,-3.5504,-3.5504,-3.5504,-3.5504,-3.5504,-3.5504,-3.5504,-3.5504,-3.5504,-3.5504,-3.5504,-3.5504,-3.5504,-3.5504,-3.5504,-3.5504,-3.5504,-3.5504,-3.5504,-3.5504,-3.5504,-3.6768,-3.769,-3.769,-3.8414,-3.8908,-3.8908,-3.9636,-4.0096,-4.0096,-4.0096,-4.0096,-4.0096,-4.0096,-4.0096,-4.0096,-4.0096,-4.0096,-4.0096,-3.9368,-3.8935,-3.8772,-3.7365,-3.663,-4.2818,-4.3369,-4.3588,-4.3901,-4.1919,-3.8766,-3.4339,0.0,-2.8053,-2.3642,-2.2499,-2.2296,-2.2296,-2.2902,-2.4079,0.0,-2.7034,-2.8863,0.0,0.0,0.0,0.0,0.0,0.0,0.0,0.0,0.0,0.0,0.0,0.0,0.0,-4.2386,-4.2629,-4.2629,-4.3076,-4.329,-4.329,-4.329,-4.329,-4.329,-4.329,-4.329,-4.329,-4.329,-4.329,-4.329,0.0,0.0,0.0,-4.291,-4.2207,-4.1339,-4.095,-4.0232,-3.9388,-3.9388,-3.9388,-3.9388,-3.9388,-3.9388,-3.9388,-3.9388,-3.9388,-3.9134,-3.7823,-3.7404,-3.7135,-3.5863,-3.5504,-3.5504,-3.5504,-3.5504,-3.5504,-3.5504,-3.5504,-3.5504,-3.5504,-3.5504,-3.5504,-3.5504,-3.5504,-3.5504,-3.5504,-3.5504,-3.5504,-3.5504,-3.5504,-3.5504,-3.5504,-3.6415,-3.7279,-3.7764,-3.8469,-3.9113,-3.9584,-3.9463,-3.9568,-4.007,-4.0096,-4.0096,-4.0096,-4.0096,-4.0096,-4.0096,-4.0096,-4.0096,-4.0096,-3.9782,-3.9368,-3.8881,-3.827,-3.7745,-4.1387,-4.2525,-4.3149,-4.3149,-4.1332,-3.8342,0.0,0.0,-2.7709,-2.3323,-2.2363,-2.2296,-2.2296,-2.2733,-2.363,0.0,-2.6049,-2.7811,-3.1896,0.0,0.0,0.0,0.0,0.0,0.0,0.0,0.0,0.0,0.0,0.0,0.0,-4.329,-4.329,-4.329,-4.329,-4.329,-4.329,-4.329,-4.329,-4.329,-4.329,-4.329,-4.329,-4.329,-4.329,-4.329,0.0,0.0,0.0,-4.259,-4.1901,-4.1055,-4.0576,-3.9993,-3.9388,-3.9388,-3.9388,-3.9388,-3.9388,-3.9388,-3.9388,-3.9388,-3.9388,-3.9134,-3.7823,-3.7404,-3.7135,-3.5863,-3.5504,-3.5504,-3.5504,-3.5504,-3.5504,-3.5504,-3.5504,-3.5504,-3.5504,-3.5504,-3.5504,-3.5504,-3.5504,-3.5504,-3.5504,-3.5668,-3.5846,-3.5846,-3.6022,-3.6164,-3.6164,-3.6828,-3.7512,-3.8048,-3.858,-3.9236,-4.002,-3.9584,-3.9489,-4.007,-4.0096,-4.0096,-4.0096,-4.0096,-4.0096,-4.0096,-4.0096,-4.0096,-4.0096,-4.0096,-3.9808,-3.9262,-3.9016,-3.8497,-4.0233,-4.1699,-4.2304,-4.2304,-4.0506,-3.7567,0.0,-3.0078,-2.708,-2.3437,-2.2473,-2.2296,-2.2296,-2.2296,-2.3023,-2.5253,-2.6826,-2.9085,-3.286,0.0,0.0,0.0,0.0,0.0,0.0,0.0,0.0,0.0,0.0,0.0,0.0,0.0,-4.329,-4.329,-4.329,-4.329,-4.329,-4.329,-4.329,-4.329,-4.329,-4.329,-4.329,-4.329,-4.329,0.0,0.0,0.0,0.0,-4.2396,-4.1632,-4.0412,-4.0397,-3.9993,-3.9388,-3.9388,-3.9388,-3.9388,-3.9388,-3.9388,-3.9388,-3.9388,-3.9388,-3.9134,-3.7823,-3.7404,-3.7135,-3.5863,-3.5504,-3.5504,-3.5504,-3.5504,-3.5504,-3.5504,-3.5504,-3.5504,-3.5504,-3.5504,-3.5504,-3.5504,-3.5504,-3.5504,-3.5504,-3.6117,-3.6584,-3.6584,-3.7279,-3.7793,-3.7793,-3.8414,-3.8881,-3.8881,-3.8908,-3.9236,-4.002,-4.0096,-4.0096,-4.0096,-4.0096,-4.0096,-4.0096,-4.0096,-4.0096,-4.0096,-4.0096,-4.0096,-4.0096,-4.0096,-4.0113,-4.007,-3.9289,-3.8497,-3.4857,-3.627,-3.7169,-3.6633,-3.5514,-3.3671,-3.0417,-2.8559,-2.6639,-2.3371,-2.2621,-2.2527,-2.2335,-2.2296,-2.3344,-2.6573,-2.7503,0.0,0.0,0.0,0.0,0.0,0.0,0.0,0.0,0.0,0.0,0.0,0.0,0.0,0.0,0.0,-4.329,-4.329,-4.329,-4.329,-4.329,-4.329,-4.329,-4.329,-4.329,-4.329,-4.329,-4.329,0.0,0.0,0.0,0.0,0.0,-4.1916,-4.119,-4.0352,-3.9903,-3.9604,-3.9388,-3.9388,-3.9388,-3.9388,-3.9388,-3.9388,-3.9388,-3.9388,-3.9095,-3.8556,-3.7674,-3.7404,-3.7135,-3.5863,-3.5504,-3.5504,-3.5504,-3.5504,-3.5504,-3.5504,-3.5504,-3.5504,-3.5504,-3.5504,-3.5636,-3.6134,-3.6244,-3.643,-3.6981,-3.7265,-3.7427,-3.7427,-3.7632,-3.7793,-3.7793,-3.8007,-3.833,-3.8854,-3.8908,-3.9236,-4.002,-3.961,-3.9516,-4.007,-4.0096,-4.0096,-4.0096,-4.0096,-4.0096,-4.0096,-4.0096,-4.0096,-4.0096,-4.0096,-4.0096,-4.0096,-3.9833,-3.9584,0.0,-3.3096,-3.3977,-3.3476,-3.2742,-3.1462,-2.8822,-2.752,-2.6081,-2.3443,-2.2797,-2.2625,-2.2349,-2.2296,-2.3226,-2.6099,0.0,0.0,0.0,0.0,0.0,0.0,0.0,0.0,0.0,0.0,0.0,0.0,0.0,0.0,0.0,0.0,-4.329,-4.329,-4.329,-4.329,-4.329,-4.329,-4.329,-4.329,-4.329,-4.329,-4.329,-4.329,0.0,0.0,0.0,0.0,0.0,-4.128,-4.0621,-3.9993,-3.9574,-3.9388,-3.9388,-3.9388,-3.9388,-3.9388,-3.9388,-3.9388,-3.9388,-3.9388,-3.8781,-3.7898,-3.7255,-3.6881,-3.6522,-3.5729,-3.5504,-3.5504,-3.5504,-3.5504,-3.5504,-3.5504,-3.5504,-3.5587,-3.5863,-3.5926,-3.6149,-3.6919,-3.7054,-3.7203,-3.769,-3.8035,-3.8234,-3.8234,-3.8486,-3.8668,-3.8668,-3.8668,-3.8859,-3.9315,-3.9342,-3.9558,-4.0045,-3.9636,-3.9584,-4.007,-4.0096,-4.0096,-4.0096,-4.0096,-4.0096,-4.0096,-4.0096,-4.0096,-4.0096,-4.0096,-4.0096,-4.0096,-4.0096,-4.0096,0.0,-3.1488,-3.2069,-3.2014,-3.1476,-3.0368,-2.8062,-2.6774,0.0,-2.359,-2.296,-2.2686,-2.2567,-2.2448,-2.297,-2.4762,0.0,0.0,0.0,0.0,0.0,0.0,0.0,0.0,0.0,0.0,0.0,0.0,0.0,0.0,0.0,0.0,0.0,-4.329,-4.329,-4.329,-4.329,-4.329,-4.329,-4.329,-4.329,-4.3329,-4.3409,-4.3329,0.0,0.0,0.0,0.0,0.0,-4.0763,-4.0117,-3.9481,-3.9409,-3.9388,-3.9388,-3.9388,-3.9388,-3.9388,-3.9388,-3.9388,-3.9373,-3.9269,-3.8437,-3.7285,-3.6626,-3.5983,-3.5504,-3.5504,-3.5504,-3.5504,-3.5504,-3.5504,-3.5504,-3.5569,-3.5587,-3.5782,-3.6538,-3.6707,-3.6904,-3.7719,-3.7863,-3.7892,-3.795,-3.8525,-3.9005,-3.9005,-3.961,-4.0096,-4.0096,-4.0096,-4.0096,-4.0096,-4.0096,-4.0096,-4.0096,-4.0096,-4.0096,-4.0096,-4.0096,-4.0096,-4.0096,-4.0096,-4.0096,-4.0096,-4.0096,-4.0096,-4.0096,-4.0096,-4.0096,-4.0096,-4.0096,-4.0096,-2.5929,0.0,-2.6935,-2.6337,-2.6494,-2.6494,0.0,-2.5305,-2.511,-2.353,0.0,0.0,-2.4615,-2.39,0.0,0.0,0.0,0.0,0.0,0.0,0.0,0.0,0.0,0.0,0.0,0.0,0.0,0.0,0.0,0.0,0.0,0.0,0.0,-4.329,-4.329,-4.329,-4.329,-4.329,-4.329,-4.329,-4.329,-4.3693,-4.4434,-4.3669,0.0,0.0,0.0,0.0,-4.1638,-4.1449,-4.1008,-4.0343,-3.9666,-3.9388,-3.9388,-3.9388,-3.9388,-3.9388,-3.9388,-3.9388,-3.9209,-3.8212,-3.7674,-3.7195,-3.6073,-3.5624,-3.5504,-3.5504,-3.5504,-3.5504,-3.5504,-3.5504,-3.5636,-3.6196,-3.6337,-3.6569,-3.7338,-3.7515,-3.7732,-3.8497,-3.8635,-3.8843,-3.9454,-3.9705,-3.9808,-3.9808,-3.9978,-4.0096,-4.0096,-4.0096,-4.0096,-4.0096,-4.0096,-4.0096,-4.0096,-4.0096,-4.0096,-4.0096,-4.0096,-4.0096,-4.0096,-4.0096,-4.0096,-4.0096,-4.0096,-4.0096,-4.0096,-4.0096,-4.0096,-4.0096,-4.0096,-4.0096,-2.4766,-2.5655,-2.6509,-2.5982,-2.6182,-2.6384,-2.5952,0.0,0.0,0.0,0.0,0.0,0.0,0.0,0.0,0.0,0.0,0.0,0.0,0.0,0.0,0.0,0.0,0.0,0.0,0.0,0.0,0.0,0.0,0.0,0.0,0.0,0.0,-4.2432,-4.2432,-4.2731,-4.329,-4.329,-4.329,-4.329,-4.343,-4.3746,-4.4294,-4.3843,0.0,0.0,0.0,0.0,-4.1728,-4.18,-4.1134,-4.015,-4.0447,-4.0095,-3.9445,-3.9864,-3.9737,-3.9388,-3.9388,-3.9215,-3.8781,-3.7749,-3.721,-3.6806,-3.5804,-3.5504,-3.5504,-3.5504,-3.5504,-3.5504,-3.5504,-3.575,-3.6117,-3.6508,-3.6873,-3.7352,-3.8133,-3.8302,-3.8525,-3.9289,-3.9463,-3.9584,-4.002,-4.0096,-4.0096,-4.0096,-4.0096,-4.0096,-4.0096,-4.0096,-4.0096,-4.0096,-4.0096,-4.0096,-4.0096,-4.0096,-4.0096,-4.0096,-4.0096,-4.0096,-4.0096,-4.0096,-4.0096,-4.0096,-4.0096,-4.0096,-4.0096,-4.0096,-4.0096,-4.0096,-4.0096,-4.0096,-2.5304,-2.7008,-2.8506,-2.7677,-2.7636,-2.778,-2.764,0.0,0.0,0.0,0.0,0.0,0.0,0.0,0.0,0.0,0.0,0.0,0.0,0.0,0.0,0.0,0.0,0.0,0.0,0.0,0.0,0.0,0.0,0.0,0.0,0.0,0.0,-4.1581,-4.1483,-4.2061,-4.3376,-4.3274,-4.3211,-4.3196,-4.3565,-4.3821,-4.395,-4.3989,-4.4029,0.0,0.0,0.0,-4.1975,-4.2124,-4.1329,-4.013,-4.1494,-4.1028,-3.9702,-4.0432,-4.015,-3.9373,-3.929,-3.8886,-3.8257,-3.7509,-3.6911,-3.6357,-3.5699,-3.5504,-3.5504,-3.5504,-3.5504,-3.5537,-3.5651,-3.6134,-3.6661,-3.6904,-3.7469,-3.8177,-3.8924,-3.9086,-3.9289,-3.9969,-4.0096,-4.0096,-4.0096,-4.0096,-4.0096,-4.0096,-4.0096,-4.0096,-4.0096,-4.0096,-4.0096,-4.0096,-4.0096,-4.0096,-4.0096,-4.0096,-4.0096,-4.0096,-4.0096,-4.0096,-4.0096,-4.0096,-4.0096,-4.0096,-4.0096,-4.0096,-4.0096,-4.0096,-4.0096,-4.0096,-4.0096,-4.0096,-2.6835,-2.9252,-3.0542,-2.6916,-2.6915,-2.7622,-2.6943,0.0,0.0,0.0,0.0,0.0,0.0,0.0,0.0,0.0,0.0,0.0,0.0,0.0,0.0,0.0,0.0,0.0,0.0,0.0,0.0,0.0,0.0,0.0,0.0,0.0,0.0,-4.2494,-4.179,-4.2199,-4.3864,-4.3169,-4.2802,-4.2786,-4.3595,-4.4354,-4.5131,-4.4343,-4.4122,0.0,0.0,-4.3706,-4.3041,-4.3096,-4.2939,-4.2661,-4.2189,-4.1379,-4.0535,-4.0656,-4.015,-3.9298,-3.8751,-3.8482,-3.8197,-3.7015,-3.6567,-3.6357,-3.5699,-3.5504,-3.5504,-3.5504,-3.5504,-3.5636,-3.6275,-3.6523,-3.6918,-3.8241,-3.8646,-3.8951,-3.9756,-3.9927,-3.9952,-4.007,-4.0096,-4.0096,-4.0096,-4.0096,-4.0096,-4.0096,-4.0096,-4.0096,-4.0096,-4.0096,-4.0096,-4.0096,-4.0096,-4.0096,-4.0096,-4.0096,-4.0096,-4.0096,-4.0096,-4.0096,-4.0096,-4.0096,-4.0096,-4.0096,-4.0096,-4.0096,-4.0096,-4.0096,-4.0096,-4.0096,-4.0096,-4.0096,-2.5625,-2.7601,-2.9288,-2.8099,-2.9765,-3.1482,-3.0668,0.0,0.0,0.0,0.0,0.0,0.0,0.0,0.0,0.0,0.0,0.0,0.0,0.0,0.0,0.0,0.0,0.0,0.0,0.0,0.0,0.0,0.0,0.0,0.0,0.0,0.0,0.0,-4.0788,-4.1153,-4.2892,-4.2509,-4.2685,-4.3425,-4.3925,-4.4397,-4.4792,-4.4459,-4.4387,-4.4491,0.0,-4.4025,-4.3336,-4.3814,-4.3456,-4.2645,-4.3183,-4.2567,-4.1346,-4.0878,-4.015,-3.932,-3.8631,-3.8153,-3.7704,-3.6791,-3.6237,-3.5893,-3.5594,-3.5504,-3.5504,-3.5504,-3.5782,-3.6086,-3.6023,-3.6904,-3.7901,-3.8246,-3.8924,-3.9636,-4.002,-4.0096,-4.0096,-4.0096,-4.0096,-4.0096,-4.0096,-4.0096,-4.0096,-4.0096,-4.0096,-4.0096,-4.0096,-4.0096,-4.0096,-4.0096,-4.0096,-4.0096,-4.0096,-4.0096,-4.0096,-4.0096,-4.0096,-4.0096,-4.0096,-4.0096,-4.0096,-4.0096,-4.0096,-4.0096,-4.0096,-4.0096,-4.0096,-4.0096,-4.0096,-4.0096,-2.499,-2.6209,-2.7834,-2.9315,0.0,-3.3506,-3.3967,0.0,0.0,0.0,0.0,0.0,0.0,0.0,0.0,0.0,0.0,0.0,0.0,0.0,0.0,0.0,0.0,0.0,0.0,0.0,0.0,0.0,0.0,0.0,0.0,0.0,0.0,0.0,-3.9864,-4.0324,-4.23,-4.2093,-4.2606,-4.3829,-4.4191,-4.436,-4.4373,-4.4522,-4.4615,-4.4615,-4.4615,-4.4224,-4.3651,-4.431,-4.3798,-4.2738,-4.4093,-4.3545,-4.1901,-4.1013,-4.0043,-3.908,-3.8392,-3.7734,-3.709,-3.6462,-3.5908,-3.5504,-3.5504,-3.5504,-3.5504,-3.5504,-3.6023,-3.6477,-3.5894,-3.7174,-3.8553,-3.8149,-3.9102,-4.0096,-4.0096,-4.0096,-4.0096,-4.0096,-4.0096,-4.0096,-4.0096,-4.0096,-4.0096,-4.0096,-4.0096,-4.0096,-4.0096,-4.0096,-4.0096,-4.0096,-4.0096,-4.0096,-4.0096,-4.0096,-4.0096,-4.0096,-4.0096,-4.0096,-4.0096,-4.0096,-4.0096,-4.0096,-4.0096,-4.0096,-4.0096,-4.0096,-4.0096,-4.0096,-4.0096,-4.0096,-2.6991,-2.7523,-2.783,-2.9551,-2.9276,0.0,-3.3957,-3.3091,0.0,-3.5312,0.0,0.0,0.0,0.0,0.0,0.0,0.0,0.0,0.0,0.0,0.0,0.0,0.0,0.0,0.0,0.0,0.0,0.0,0.0,0.0,0.0,0.0,0.0,0.0,0.0,-4.0619,-4.3169,-4.2379,-4.2443,-4.3363,-4.4164,-4.4581,-4.4581,-4.4604,-4.4615,-4.4615,-4.4615,-4.457,-4.4514,-4.457,-4.4514,-4.4412,-4.4542,-4.3545,-4.1901,-4.1013,-3.9772,-3.8377,-3.7704,-3.7075,-3.6447,-3.5789,-3.5549,-3.5504,-3.5504,-3.5504,-3.5504,-3.5504,-3.6023,-3.6584,-3.6523,-3.7203,-3.8035,-3.8663,-3.9463,-4.0096,-4.0096,-4.0096,-4.0096,-4.0096,-4.0096,-4.0096,-4.0096,-4.0096,-4.0096,-4.0096,-4.0096,-4.0096,-4.0096,-4.0096,-4.0096,-4.0096,-4.0096,-4.0096,-4.0096,-4.0096,-4.0096,-4.0096,-4.0096,-4.0096,-4.0096,-4.0096,-4.0096,-4.0096,-4.0096,-4.0096,-4.0096,-4.0096,-4.0096,-4.0096,-4.0096,-4.0096,-2.5283,-2.6446,-2.7944,-3.0179,-3.0708,0.0,0.0,-3.5713,-3.6777,-3.8863,-3.8816,0.0,0.0,0.0,0.0,0.0,0.0,0.0,0.0,0.0,0.0,0.0,0.0,0.0,0.0,0.0,0.0,0.0,0.0,0.0,0.0,0.0,0.0,0.0,0.0,-4.118,-4.3276,-4.297,-4.3259,-4.4093,-4.444,-4.4615,-4.4615,-4.4615,-4.4615,-4.4615,-4.4615,-4.4615,-4.4615,-4.4615,-4.4615,-4.4615,-4.4615,-4.3589,-4.201,-4.1183,-3.9885,-3.8373,-3.7248,-3.6686,-3.6372,-3.5714,-3.5504,-3.5504,-3.5504,-3.5504,-3.5504,-3.5504,-3.5701,-3.6023,-3.6461,-3.7541,-3.8553,-3.8827,-3.9516,-4.0096,-4.0096,-4.0096,-4.0096,-4.0096,-4.0096,-4.0096,-4.0096,-4.0096,-4.0096,-4.0096,-4.0096,-4.0096,-4.0096,-4.0096,-4.0096,-4.0096,-4.0096,-4.0096,-4.0096,-4.0096,-4.0096,-4.0096,-4.0096,-4.0096,-4.0096,-4.0096,-4.0096,-4.0096,-4.0096,-4.0096,-4.0096,-4.0096,-4.0096,-4.0096,-4.0096,-4.0096,-2.4446,-2.5792,-2.7731,-3.0186,0.0,0.0,-3.5572,-3.7448,-3.9319,-4.1415,0.0,0.0,0.0,0.0,0.0,0.0,0.0,0.0,0.0,0.0,0.0,0.0,0.0,0.0,0.0,0.0,0.0,0.0,0.0,0.0,0.0,0.0,0.0,0.0,0.0,0.0,-4.2458,-4.2754,-4.3336,-4.4196,-4.4485,-4.4615,-4.4615,-4.4615,-4.4615,-4.4615,-4.4615,-4.4615,-4.4615,-4.4615,-4.4615,-4.4581,-4.4316,-4.3394,-4.2081,-4.1041,-3.9645,-3.8095,-3.6911,-3.6357,-3.6103,-3.5654,-3.5504,-3.5504,-3.5504,-3.5504,-3.5504,-3.5504,-3.5504,-3.5668,-3.6415,-3.7379,-3.8258,-3.8497,-3.9156,-3.9782,-4.0045,-4.0096,-4.0096,-4.0096,-4.0096,-4.0096,-4.0096,-4.0096,-4.0096,-4.0096,-4.0096,-4.0096,-4.0096,-4.0096,-4.0096,-4.0096,-4.0096,-4.0096,-4.0096,-4.0096,-4.0096,-4.0096,-4.0096,-4.0096,-4.0096,-4.0096,-4.0096,-4.0096,-4.0096,-4.0096,-4.0096,-4.0096,-4.0096,-4.0096,-4.0096,-4.0096,-2.5182,-2.6019,-2.7163,0.0,0.0,0.0,-3.7203,-3.7888,-3.899,0.0,0.0,0.0,0.0,0.0,0.0,0.0,0.0,0.0,0.0,0.0,0.0,0.0,0.0,0.0,0.0,0.0,0.0,0.0,0.0,0.0,0.0,0.0,0.0,0.0,0.0,0.0,-4.0675,-4.156,-4.2442,-4.3306,-4.4196,-4.4615,-4.4615,-4.4615,-4.4615,-4.4615,-4.4615,-4.4615,-4.4615,-4.4598,-4.4581,-4.4513,-4.3707,-4.2897,-4.1999,-4.0476,-3.8934,-3.7496,-3.6763,-3.6058,-3.5504,-3.5504,-3.5504,-3.5504,-3.5504,-3.5504,-3.5504,-3.5504,-3.5504,-3.5668,-3.6415,-3.6615,-3.6813,-3.7632,-3.8358,-3.9139,-3.9927,-4.0096,-4.0096,-4.0096,-4.0096,-4.0096,-4.0096,-4.0096,-4.0096,-4.0096,-4.0096,-4.0096,-4.0096,-4.0096,-4.0096,-4.0096,-4.0096,-4.0096,-4.0096,-4.0096,-4.0096,-4.0096,-4.0096,-4.0096,-4.0096,-4.0096,-4.0096,-4.0096,-4.0096,-4.0096,-4.0096,-4.0096,-4.0096,-4.0096,-4.0096,-4.0096,-2.6109,-2.75,0.0,0.0,0.0,0.0,0.0,0.0,0.0,0.0,0.0,0.0,0.0,0.0,0.0,0.0,0.0,0.0,0.0,0.0,0.0,0.0,0.0,0.0,0.0,0.0,0.0,0.0,0.0,0.0,0.0,0.0,0.0,0.0,0.0,0.0,-3.9995,-4.1465,-4.2583,-4.3306,-4.4196,-4.4615,-4.4615,-4.4615,-4.4615,-4.4615,-4.4615,-4.4615,-4.4564,-4.3995,-4.3453,-4.2973,-4.2709,-4.2153,-4.1395,-4.0395,-3.9069,-3.7638,-3.6847,-3.611,-3.5504,-3.5504,-3.5504,-3.5504,-3.5504,-3.5504,-3.5504,-3.5504,-3.5863,-3.6337,-3.6554,-3.7024,-3.7645,-3.8386,-3.9183,-3.9808,-4.0045,-4.0096,-4.0096,-4.0096,-4.0096,-4.0096,-4.0096,-4.0096,-4.0096,-4.0096,-4.0096,-4.0096,-4.0096,-4.0096,-4.0096,-4.0096,-4.0096,-4.0096,-4.0096,-4.0096,-4.0096,-4.0096,-4.0096,-4.0096,-4.0096,-4.0096,-4.0096,-4.0096,-4.0096,-4.0096,-4.0096,-4.0096,-4.0096,-4.0096,-4.0096,-4.0096,-2.7303,0.0,0.0,0.0,0.0,0.0,0.0,0.0,0.0,0.0,0.0,0.0,0.0,0.0,0.0,0.0,0.0,0.0,0.0,0.0,0.0,0.0,0.0,0.0,0.0,0.0,0.0,0.0,0.0,0.0,0.0,0.0,0.0,0.0,0.0,0.0,-3.8797,-4.0479,-4.1542,-4.1952,-4.3131,-4.3701,-4.3718,-4.4327,-4.4445,-4.4096,-4.3819,-4.3701,-4.3667,-4.3166,-4.2709,-4.2252,-4.1965,-4.1418,-4.0672,-3.9907,-3.886,-3.769,-3.6873,-3.6306,-3.5894,-3.5587,-3.5504,-3.5504,-3.5504,-3.5504,-3.5554,-3.5863,-3.6244,-3.6661,-3.6994,-3.7645,-3.8358,-3.8799,-3.9262,-3.9714,-4.002,-4.0096,-4.0096,-4.0096,-4.0096,-4.0096,-4.0096,-4.0096,-4.0096,-4.0096,-4.0096,-4.0096,-4.0096,-4.0096,-4.0096,-4.0096,-4.0096,-4.0096,-4.0096,-4.0096,-4.0096,-4.0096,-4.0096,-4.0096,-4.0096,-4.0096,-4.0096,-4.0096,-4.0096,-4.0096,-4.0096,-4.0096,-4.0096,-4.0096,-4.0096,-4.0096,0.0,0.0,0.0,0.0,0.0,0.0,0.0,0.0,0.0,0.0,0.0,0.0,0.0,0.0,0.0,0.0,0.0,0.0,0.0,0.0,0.0,0.0,0.0,0.0,0.0,0.0,0.0,0.0,0.0,0.0,0.0,0.0,0.0,0.0,0.0,0.0,-3.733,-3.8888,-3.973,0.0,-4.1354,-4.2136,-4.2257,-4.3724,-4.3978,-4.324,-4.2591,-4.2252,-4.2202,-4.2202,-4.2151,-4.2016,-4.1356,-4.0685,-3.9985,-3.9199,-3.8442,-3.769,-3.6873,-3.6554,-3.6384,-3.5814,-3.5587,-3.5619,-3.5683,-3.5716,-3.5846,-3.6508,-3.6752,-3.6994,-3.7719,-3.8442,-3.9005,-3.9005,-3.9005,-3.9193,-3.9952,-4.0096,-4.0096,-4.0096,-4.0096,-4.0096,-4.0096,-4.0096,-4.0096,-4.0096,-4.0096,-4.0096,-4.0096,-4.0096,-4.0096,-4.0096,-4.0096,-4.0096,-4.0096,-4.0096,-4.0096,-4.0096,-4.0096,-4.0096,-4.0096,-4.0096,-4.0096,-4.0096,-4.0096,-4.0096,-4.0096,-4.0096,-4.0096,-4.0096,-4.0096,-4.0096,0.0,-3.09,0.0,0.0,0.0,0.0,0.0,0.0,0.0,0.0,0.0,0.0,0.0,0.0,0.0,0.0,0.0,0.0,0.0,0.0,0.0,0.0,0.0,0.0,0.0,0.0,0.0,0.0,0.0,0.0,0.0,0.0,0.0,0.0,0.0,-3.6686,-3.6686,-3.7695,-3.8435,0.0,-4.0005,-4.0823,-4.146,-4.2364,-4.2692,-4.2523,-4.2354,-4.1965,-4.1441,-4.1441,-4.1085,-4.057,-4.04,-4.0231,-4.0001,-3.9206,-3.8442,-3.769,-3.6873,-3.6228,-3.5814,-3.6228,-3.6353,-3.6477,-3.7115,-3.7294,-3.7354,-3.7485,-3.7962,-3.8453,-3.8635,-3.9236,-3.9833,-3.9833,-3.9833,-3.9901,-4.007,-4.0096,-4.0096,-4.0096,-4.0096,-4.0096,-4.0096,-4.0096,-4.0096,-4.0096,-4.0096,-4.0096,-4.0096,-4.0096,-4.0096,-4.0096,-4.0096,-4.0096,-4.0096,-4.0096,-4.0096,-4.0096,-4.0096,-4.0096,-4.0096,-4.0096,-4.0096,-4.0096,-4.0096,-4.0096,-4.0096,-4.0096,-4.0096,-4.0096,-4.0096,-4.0096,0.0,0.0,0.0,0.0,0.0,0.0,0.0,0.0,0.0,0.0,0.0,0.0,0.0,0.0,0.0,0.0,0.0,0.0,0.0,0.0,0.0,0.0,0.0,0.0,0.0,0.0,0.0,0.0,0.0,0.0,0.0,0.0,0.0,0.0,-3.5833,-3.6013,-3.6013,-3.678,-3.7359,-3.77,-3.8921,-3.9888,-4.0702,-4.1435,-4.1762,-4.1745,-4.139,-4.0802,-4.0127,-4.0517,-4.0229,-3.9516,-3.9516,-3.9516,-3.9463,-3.9043,-3.8442,-3.7719,-3.7338,-3.6661,-3.6023,-3.6054,-3.6086,-3.6149,-3.6569,-3.6692,-3.686,-3.7589,-3.8092,-3.8525,-3.9289,-3.9782,-4.0096,-4.0096,-4.0096,-4.0096,-4.0096,-4.0096,-4.0096,-4.0096,-4.0096,-4.0096,-4.0096,-4.0096,-4.0096,-4.0096,-4.0096,-4.0096,-4.0096,-4.0096,-4.0096,-4.0096,-4.0096,-4.0096,-4.0096,-4.0096,-4.0096,-4.0096,-4.0096,-4.0096,-4.0096,-4.0096,-4.0096,-4.0096,-4.0096,-4.0096,-4.0096,-4.0096,-4.0096,-4.0096,-4.0096,-4.0096,0.0,0.0,0.0,0.0,0.0,0.0,0.0,0.0,0.0,0.0,0.0,0.0,0.0,0.0,0.0,0.0,0.0,0.0,0.0,0.0,0.0,0.0,0.0,0.0,0.0,0.0,0.0,0.0,0.0,0.0,0.0,0.0,-3.5504,-3.5504,-3.5504,-3.5504,-3.5504,-3.6117,-3.6415,-3.6415,-3.7815,-3.8908,-3.9722,-4.0464,-4.0897,-4.0984,-4.0367,-3.9731,-3.9139,-3.9662,-3.9568,-3.9086,-3.8962,-3.8908,-3.8881,-3.8772,-3.8246,-3.7573,-3.7442,-3.6965,-3.6337,-3.5831,-3.5701,-3.5733,-3.6022,-3.6085,-3.6337,-3.7632,-3.7978,-3.8262,-3.9401,-3.9799,-3.9901,-3.9901,-3.9995,-4.0096,-4.0096,-4.0096,-4.0096,-4.0096,-4.0096,-4.0096,-4.0096,-4.0096,-4.0096,-4.0096,-4.0096,-4.0096,-4.0096,-4.0096,-4.0096,-4.0096,-4.0096,-4.0096,-4.0096,-4.0096,-4.0096,-4.0096,-4.0096,-4.0096,-4.0096,-4.0096,-4.0096,-4.0096,-4.0096,-4.0096,-4.0096,-4.0096,-4.0096,-4.0096,-4.0096,-4.0096,0.0,0.0,0.0,0.0,0.0,0.0,0.0,0.0,0.0,0.0,0.0,0.0,0.0,0.0,0.0,0.0,0.0,0.0,0.0,0.0,0.0,0.0,0.0,0.0,0.0,0.0,0.0,0.0,0.0,0.0,0.0,-3.5504,-3.5504,-3.5504,-3.5504,-3.5504,-3.5504,-3.5587,-3.5636,-3.5651,-3.6508,-3.7352,-3.8121,-3.8887,-3.9587,-4.0248,-4.0146,-4.0045,-3.9901,-3.9315,-3.9411,-3.9876,-3.9166,-3.8908,-3.8827,-3.8161,-3.744,-3.6676,-3.6022,-3.5733,-3.5733,-3.6275,-3.6446,-3.6707,-3.806,-3.8453,-3.8481,-3.869,-3.8745,-3.8663,-3.8234,-3.858,-3.9059,-3.9059,-3.9584,-4.0096,-4.0096,-4.0096,-4.0096,-4.0096,-4.0096,-4.0096,-4.0096,-4.0096,-4.0096,-4.0096,-4.0096,-4.0096,-4.0096,-4.0096,-4.0096,-4.0096,-4.0096,-4.0096,-4.0096,-4.0096,-4.0096,-4.0096,-4.0096,-4.0096,-4.0096,-4.0096,-4.0096,-4.0096,-4.0096,-4.0096,-4.0096,-4.0096,-4.0096,-4.0096,-4.0096,-4.0096,0.0,0.0,0.0,0.0,0.0,0.0,0.0,0.0,0.0,0.0,0.0,0.0,0.0,0.0,0.0,0.0,0.0,0.0,0.0,0.0,0.0,0.0,0.0,0.0,0.0,0.0,0.0,0.0,0.0,0.0,-3.5504,-3.5504,-3.5504,-3.5504,-3.5504,-3.5504,-3.5504,-3.5504,-3.5701,-3.6117,-3.6446,-3.7024,-3.7822,-3.8553,-3.9342,-4.0096,-4.0096,-3.9833,-3.9437,-3.9516,-3.9262,-3.8778,-3.843,-3.8274,-3.8189,-3.7411,-3.6904,-3.6554,-3.6228,-3.5846,-3.5554,-3.5863,-3.5975,-3.6117,-3.6783,-3.698,-3.7189,-3.8048,-3.8274,-3.843,-3.8941,-3.9332,-3.9584,-3.9584,-3.9833,-4.0096,-4.0096,-4.0096,-4.0096,-4.0096,-4.0096,-4.0096,-4.0096,-4.0096,-4.0096,-4.0096,-4.0096,-4.0096,-4.0096,-4.0096,-4.0096,-4.0096,-4.0096,-4.0096,-4.0096,-4.0096,-4.0096,-4.0096,-4.0096,-4.0096,-4.0096,-4.0096,-4.0096,-4.0096,-4.0096,-4.0096,-4.0096,-4.0096,-4.0096,-4.0096,-4.0096,-4.0096,0.0,0.0,0.0,0.0,0.0,0.0,0.0,0.0,0.0,0.0,0.0,0.0,0.0,0.0,0.0,0.0,0.0,0.0,0.0,0.0,0.0,0.0,0.0,0.0,0.0,0.0,0.0,0.0,0.0,0.0,-3.5504,-3.5504,-3.5504,-3.5504,-3.5504,-3.5504,-3.5504,-3.5504,-3.5782,-3.6337,-3.6337,-3.6737,-3.7515,-3.806,-3.8854,-3.9808,-4.002,-3.9636,-3.8935,-3.9358,-3.8941,-3.8035,-3.7661,-3.7485,-3.7427,-3.6813,-3.6461,-3.6337,-3.6337,-3.5943,-3.5504,-3.5504,-3.5504,-3.5537,-3.5733,-3.5782,-3.6006,-3.716,-3.7485,-3.7719,-3.8679,-3.9226,-3.9506,-3.9506,-3.9808,-4.0096,-4.0096,-4.0096,-4.0096,-4.0096,-4.0096,-4.0096,-4.0096,-4.0096,-4.0096,-4.0096,-4.0096,-4.0096,-4.0096,-4.0096,-4.0096,-4.0096,-4.0096,-4.0096,-4.0096,-4.0096,-4.0096,-4.0096,-4.0096,-4.0096,-4.0096,-4.0096,-4.0096,-4.0096,-4.0096,-4.0096,-4.0096,-4.0096,-4.0096,-4.0096,-4.0096,-4.0096,0.0,0.0,0.0,0.0,0.0,0.0,0.0,0.0,0.0,0.0,0.0,0.0,0.0,0.0,0.0,0.0,0.0,0.0,0.0,0.0,0.0,0.0,0.0,0.0,0.0,0.0,0.0,0.0,0.0,0.0,-3.5504,-3.5504,-3.5504,-3.5504,-3.5504,-3.5504,-3.5504,-3.5504,-3.5537,-3.5554,-3.5554,-3.5958,-3.6661,-3.6691,-3.7526,-3.8989,-3.9782,-3.9636,-3.8854,-3.8206,-3.8274,-3.8718,-3.7247,-3.6661,-3.6661,-3.6615,-3.6165,-3.5554,-3.5554,-3.5537,-3.5504,-3.5504,-3.5504,-3.5651,-3.6337,-3.6554,-3.6554,-3.6646,-3.6661,-3.6538,-3.5894,-3.6829,-3.7921,-3.7921,-3.9022,-4.0096,-4.0096,-4.0096,-4.0096,-4.0096,-4.0096,-4.0096,-4.0096,-4.0096,-4.0096,-4.0096,-4.0096,-4.0096,-4.0096,-4.0096,-4.0096,-4.0096,-4.0096,-4.0096,-4.0096,-4.0096,-4.0096,-4.0096,-4.0096,-4.0096,-4.0096,-4.0096,-4.0096,-4.0096,-4.0096,-4.0096,-4.0096,-4.0096,-4.0096,-4.0096,-4.0096,-4.0096,0.0,0.0,0.0,0.0,0.0,0.0,0.0,0.0,0.0,0.0,0.0,0.0,0.0,0.0,0.0,0.0,0.0,0.0,0.0,0.0,0.0,0.0,0.0,0.0,0.0,0.0,0.0,0.0,0.0,0.0,-3.4543,-3.5133,-3.5504,-3.5504,-3.5504,-3.5504,-3.5504,-3.5504,-3.5504,-3.5504,-3.5504,-3.5651,-3.5926,-3.6384,-3.6646,-3.6783,-3.8064,-3.8734,-3.8854,-3.8121,-3.795,-3.8076,-3.7024,-3.6615,-3.6554,-3.6054,-3.5733,-3.5504,-3.5504,-3.5504,-3.5504,-3.5504,-3.5504,-3.5554,-3.5799,-3.5894,-3.6006,-3.6477,-3.6615,-3.6752,-3.7483,-3.8088,-3.8635,-3.9156,-3.9705,-4.0096,-4.0096,-4.0096,-4.0096,-4.0096,-4.0096,-4.0096,-4.0096,-4.0096,-4.0096,-4.0096,-4.0096,-4.0096,-4.0096,-4.0096,-4.0096,-4.0096,-4.0096,-4.0096,-4.0096,-4.0096,-4.0096,-4.0096,-4.0096,-4.0096,-4.0096,-4.0096,-4.0096,-4.0096,-4.0096,-4.0096,-4.0096,-4.0096,-4.0096,-4.0096,-4.0096,-4.0096,-1.8561,0.0,0.0,0.0,0.0,0.0,0.0,0.0,0.0,0.0,0.0,0.0,0.0,0.0,0.0,0.0,0.0,0.0,0.0,0.0,0.0,0.0,0.0,0.0,0.0,0.0,0.0,0.0,0.0,0.0,-3.3518,-3.4476,-3.5133,-3.5504,-3.5504,-3.5504,-3.5504,-3.5504,-3.5504,-3.5504,-3.5504,-3.5504,-3.5537,-3.6006,-3.6086,-3.5926,-3.6692,-3.7456,-3.8072,-3.7616,-3.7397,-3.7308,-3.6538,-3.6228,-3.6165,-3.5668,-3.5504,-3.5504,-3.5504,-3.5504,-3.5504,-3.5504,-3.5504,-3.5569,-3.5782,-3.5863,-3.6038,-3.6798,-3.6994,-3.7233,-3.8258,-3.8718,-3.9113,-3.9901,-4.0096,-4.0096,-4.0096,-4.0096,-4.0096,-4.0096,-4.0096,-4.0096,-4.0096,-4.0096,-4.0096,-4.0096,-4.0096,-4.0096,-4.0096,-4.0096,-4.0096,-4.0096,-4.0096,-4.0096,-4.0096,-4.0096,-4.0096,-4.0096,-4.0096,-4.0096,-4.0096,-4.0096,-4.0096,-4.0096,-4.0096,-4.0096,-4.0096,-4.0096,-4.0096,-4.0096,-4.0096,-4.0096,0.0,0.0,0.0,0.0,0.0,0.0,0.0,0.0,0.0,0.0,0.0,0.0,0.0,0.0,0.0,0.0,0.0,0.0,0.0,0.0,0.0,0.0,0.0,0.0,0.0,0.0,0.0,0.0,0.0,-3.2558,-3.2593,-3.3518,-3.4495,-3.5472,-3.5504,-3.5504,-3.5504,-3.5504,-3.5504,-3.5504,-3.5537,-3.5537,-3.5504,-3.5537,-3.5911,-3.6523,-3.5814,-3.5926,-3.6584,-3.6584,-3.6584,-3.6523,-3.5782,-3.5504,-3.5537,-3.5504,-3.5504,-3.5504,-3.5504,-3.5504,-3.5504,-3.5504,-3.5504,-3.5651,-3.6399,-3.6569,-3.6737,-3.7573,-3.7777,-3.7793,-3.7822,-3.8386,-3.9139,-3.9927,-4.0096,-4.0096,-4.0096,-4.0096,-4.0096,-4.0096,-4.0096,-4.0096,-4.0096,-4.0096,-4.0096,-4.0096,-4.0096,-4.0096,-4.0096,-4.0096,-4.0096,-4.0096,-4.0096,-4.0096,-4.0096,-4.0096,-4.0096,-4.0096,-4.0096,-4.0096,-4.0096,-4.0096,-4.0096,-4.0096,-4.0096,-4.0096,-4.0096,-4.0096,-4.0096,-4.0096,-4.0096,-4.0096,-1.8281,0.0,0.0,0.0,0.0,0.0,0.0,0.0,0.0,0.0,0.0,0.0,0.0,0.0,0.0,0.0,0.0,0.0,0.0,0.0,0.0,0.0,0.0,0.0,0.0,0.0,0.0,0.0,-3.0942,-3.1888,-3.2558,-3.4192,-3.5213,-3.5504,-3.5504,-3.5504,-3.5504,-3.5504,-3.5504,-3.5504,-3.6023,-3.6038,-3.5537,-3.6054,-3.6117,-3.5782,-3.5587,-3.5619,-3.5814,-3.5814,-3.6117,-3.6523,-3.5782,-3.5846,-3.6228,-3.5701,-3.5504,-3.5504,-3.5504,-3.5504,-3.5504,-3.5504,-3.5504,-3.5651,-3.6399,-3.6228,-3.607,-3.7427,-3.7397,-3.7203,-3.8302,-3.9183,-3.9808,-4.0045,-4.0096,-4.0096,-4.0096,-4.0096,-4.0096,-4.0096,-4.0096,-4.0096,-4.0096,-4.0096,-4.0096,-4.0096,-4.0096,-4.0096,-4.0096,-4.0096,-4.0096,-4.0096,-4.0096,-4.0096,-4.0096,-4.0096,-4.0096,-4.0096,-4.0096,-4.0096,-4.0096,-4.0096,-4.0096,-4.0096,-4.0096,-4.0096,-4.0096,-4.0096,-4.0096,-4.0096,-4.0096,-4.0096,-1.998,-2.0918,0.0,0.0,0.0,0.0,0.0,0.0,0.0,0.0,0.0,0.0,0.0,0.0,0.0,0.0,0.0,0.0,0.0,0.0,0.0,0.0,0.0,0.0,0.0,0.0,0.0,0.0,-2.9957,-3.1124,-3.2723,-3.3883,-3.4801,-3.5472,-3.5504,-3.5504,-3.5504,-3.5504,-3.5504,-3.5504,-3.5958,-3.5926,-3.5504,-3.5943,-3.5926,-3.5504,-3.5504,-3.5504,-3.5504,-3.5504,-3.575,-3.6086,-3.5668,-3.575,-3.6086,-3.5651,-3.5504,-3.5504,-3.5504,-3.5504,-3.5504,-3.5504,-3.5504,-3.5651,-3.6399,-3.6306,-3.629,-3.7819,-3.8145,-3.8286,-3.9183,-3.9756,-4.0096,-4.0096,-4.0096,-4.0096,-4.0096,-4.0096,-4.0096,-4.0096,-4.0096,-4.0096,-4.0096,-4.0096,-4.0096,-4.0096,-4.0096,-4.0096,-4.0096,-4.0096,-4.0096,-4.0096,-4.0096,-4.0096,-4.0096,-4.0096,-4.0096,-4.0096,-4.0096,-4.0096,-4.0096,-4.0096,-4.0096,-4.0096,-4.0096,-4.0096,-4.0096,-4.0096,-4.0096,-4.0096,-4.0096,-4.0096,-2.2578,-2.2927,-2.3852,0.0,0.0,0.0,0.0,-2.5453,0.0,0.0,0.0,0.0,0.0,0.0,0.0,0.0,0.0,0.0,0.0,0.0,0.0,0.0,0.0,0.0,0.0,0.0,0.0,-2.9429,-2.9586,-3.0672,-3.2858,-3.3099,-3.3831,-3.5337,-3.5385,-3.5429,-3.5504,-3.5504,-3.5504,-3.5504,-3.5587,-3.5587,-3.5504,-3.5587,-3.5587,-3.5504,-3.5504,-3.5504,-3.5504,-3.5504,-3.5504,-3.5504,-3.5504,-3.5504,-3.5504,-3.5504,-3.5504,-3.5504,-3.5504,-3.5504,-3.5504,-3.5504,-3.5504,-3.5651,-3.6399,-3.6554,-3.6783,-3.8342,-3.9411,-4.0096,-4.0096,-4.0096,-4.0096,-4.0096,-4.0096,-4.0096,-4.0096,-4.0096,-4.0096,-4.0096,-4.0096,-4.0096,-4.0096,-4.0096,-4.0096,-4.0096,-4.0096,-4.0096,-4.0096,-4.0096,-4.0096,-4.0096,-4.0096,-4.0096,-4.0096,-4.0096,-4.0096,-4.0096,-4.0096,-4.0096,-4.0096,-4.0096,-4.0096,-4.0096,-4.0096,-4.0096,-4.0096,-4.0096,-4.0096,-4.0096,-4.0096,-4.0096,-2.5371,-2.6009,-2.6692,-2.4966,0.0,0.0,0.0,-2.4261,0.0,0.0,0.0,0.0,0.0,0.0,0.0,0.0,0.0,0.0,0.0,0.0,0.0,0.0,0.0,0.0,0.0,0.0,-2.9717,-2.9717,-3.0853,-3.1795,-3.2263,-3.301,-3.3822,-3.4651,-3.4713,-3.4936,-3.5504,-3.5504,-3.5504,-3.5504,-3.6117,-3.6086,-3.5537,-3.6102,-3.6054,-3.5504,-3.5504,-3.5504,-3.5504,-3.5504,-3.5504,-3.5504,-3.5504,-3.5504,-3.5504,-3.5504,-3.5504,-3.5504,-3.5504,-3.5504,-3.5504,-3.5504,-3.5504,-3.5651,-3.6399,-3.6196,-3.6053,-3.7573,-3.9022,-4.0096,-4.0096,-4.0096,-4.0096,-4.0096,-4.0096,-4.0096,-4.0096,-4.0096,-4.0096,-4.0096,-4.0096,-4.0096,-4.0096,-4.0096,-4.0096,-4.0096,-4.0096,-4.0096,-4.0096,-4.0096,-4.0096,-4.0096,-4.0096,-4.0096,-4.0096,-4.0096,-4.0096,-4.0096,-4.0096,-4.0096,-4.0096,-4.0096,-4.0096,-4.0096,-4.0096,-4.0096,-4.0096,-4.0096,-4.0096,-4.0096,-4.0096,-4.0096,-2.7436,-2.7514,-2.7887,-2.6971,0.0,0.0,0.0,0.0,0.0,0.0,0.0,0.0,0.0,0.0,0.0,0.0,0.0,0.0,0.0,0.0,0.0,0.0,0.0,0.0,0.0,0.0,-2.9693,-3.0034,-3.0768,-3.1505,-3.2258,-3.2748,-3.3305,-3.3994,-3.3978,-3.4307,-3.4981,-3.4996,-3.516,-3.5504,-3.5863,-3.5863,-3.5504,-3.5894,-3.5831,-3.5504,-3.5504,-3.5504,-3.5504,-3.5504,-3.5504,-3.5504,-3.5504,-3.5504,-3.5504,-3.5504,-3.5504,-3.5504,-3.5504,-3.5504,-3.5504,-3.5504,-3.5504,-3.5554,-3.5943,-3.6054,-3.629,-3.7456,-3.8624,-3.9584,-3.9995,-4.0096,-4.0096,-4.0096,-4.0096,-4.0096,-4.0096,-4.0096,-4.0096,-4.0096,-4.0096,-4.0096,-4.0096,-4.0096,-4.0096,-4.0096,-4.0096,-4.0096,-4.0096,-4.0096,-4.0096,-4.0096,-4.0096,-4.0096,-4.0096,-4.0096,-4.0096,-4.0096,-4.0096,-4.0096,-4.0096,-4.0096,-4.0096,-4.0096,-4.0096,-4.0096,-4.0096,-4.0096,-4.0096,-4.0096,-4.0096,-4.0096,0.0,0.0,0.0,0.0,0.0,-2.6781,0.0,0.0,0.0,-2.5375,0.0,0.0,0.0,0.0,0.0,0.0,0.0,0.0,0.0,0.0,0.0,0.0,0.0,0.0,0.0,0.0,-2.9305,-3.0103,-3.0045,-3.0617,-3.2049,-3.2258,-3.2617,-3.329,-3.3305,-3.3619,-3.4309,-3.4324,-3.4622,-3.531,-3.531,-3.5385,-3.5504,-3.5504,-3.5504,-3.5504,-3.5504,-3.5504,-3.5504,-3.5504,-3.5504,-3.5504,-3.5504,-3.5504,-3.5504,-3.5504,-3.5504,-3.5504,-3.5504,-3.5504,-3.5504,-3.5504,-3.5504,-3.5537,-3.5668,-3.6243,-3.6994,-3.7806,-3.8553,-3.9289,-3.9927,-4.0096,-4.0096,-4.0096,-4.0096,-4.0096,-4.0096,-4.0096,-4.0096,-4.0096,-4.0096,-4.0096,-4.0096,-4.0096,-4.0096,-4.0096,-4.0096,-4.0096,-4.0096,-4.0096,-4.0096,-4.0096,-4.0096,-4.0096,-4.0096,-4.0096,-4.0096,-4.0096,-4.0096,-4.0096,-4.0096,-4.0096,-4.0096,-4.0096,-4.0096,-4.0096,-4.0096,-4.0096,-4.0096,-4.0096,-4.0096,-4.0096,0.0,0.0,0.0,0.0,-3.009,0.0,0.0,0.0,-2.5576,-2.323,0.0,0.0,0.0,0.0,0.0,0.0,0.0,0.0,0.0,0.0,0.0,0.0,0.0,0.0,0.0,0.0,0.0,-2.959,-2.9116,-2.9364,-3.0672,-3.1286,-3.1914,-3.2602,-3.2617,-3.2946,-3.3604,-3.3604,-3.3933,-3.4623,-3.4623,-3.4906,-3.5504,-3.5504,-3.5504,-3.5504,-3.5504,-3.5504,-3.5504,-3.5504,-3.5504,-3.5504,-3.5504,-3.5504,-3.5504,-3.5504,-3.5504,-3.5504,-3.5504,-3.5504,-3.5504,-3.5504,-3.5504,-3.5619,-3.6275,-3.704,-3.7835,-3.858,-3.9342,-3.9978,-4.007,-4.0096,-4.0096,-4.0096,-4.0096,-4.0096,-4.0096,-4.0096,-4.0096,-4.0096,-4.0096,-4.0096,-4.0096,-4.0096,-4.0096,-4.0096,-4.0096,-4.0096,-4.0096,-4.0096,-4.0096,-4.0096,-4.0096,-4.0096,-4.0096,-4.0096,-4.0096,-4.0096,-4.0096,-4.0096,-4.0096,-4.0096,-4.0096,-4.0096,-4.0096,-4.0096,-4.0096,-4.0096,-4.0096,-4.0096,-4.0096,-4.0096,0.0,0.0,0.0,0.0,0.0,0.0,0.0,0.0,-2.5705,0.0,0.0,0.0,0.0,0.0,0.0,0.0,0.0,0.0,0.0,0.0,0.0,0.0,0.0,0.0,0.0,0.0,0.0,0.0,0.0,-2.8008,-2.9325,-3.0372,-3.1061,-3.1345,-3.1705,-3.2228,-3.2916,-3.2931,-3.326,-3.3903,-3.3903,-3.4068,-3.4352,-3.4741,-3.4906,-3.4936,-3.5325,-3.5504,-3.5504,-3.5504,-3.5504,-3.5504,-3.5504,-3.5504,-3.5504,-3.5504,-3.5504,-3.5504,-3.5504,-3.5504,-3.5554,-3.6006,-3.6134,-3.629,-3.707,-3.7544,-3.795,-3.869,-3.9139,-3.9516,-3.9978,-4.0096,-4.0096,-4.0096,-4.0096,-4.0096,-4.0096,-4.0096,-4.0096,-4.0096,-4.0096,-4.0096,-4.0096,-4.0096,-4.0096,-4.0096,-4.0096,-4.0096,-4.0096,-4.0096,-4.0096,-4.0096,-4.0096,-4.0096,-4.0096,-4.0096,-4.0096,-4.0096,-4.0096,-4.0096,-4.0096,-4.0096,-4.0096,-4.0096,-4.0096,-4.0096,-4.0096,-4.0096,-4.0096,-4.0096,-4.0096,-4.0096,-3.0915,0.0,0.0,0.0,0.0,0.0,0.0,0.0,0.0,0.0,0.0,0.0,0.0,0.0,0.0,0.0,0.0,0.0,0.0,0.0,0.0,0.0,0.0,0.0,0.0,0.0,0.0,0.0,0.0,0.0,-2.7949,-2.928,-3.0148,-3.0492,-3.1152,-3.1735,-3.2213,-3.2213,-3.2572,-3.323,-3.323,-3.332,-3.3514,-3.3978,-3.4234,-3.4279,-3.4921,-3.522,-3.5235,-3.5429,-3.5504,-3.5504,-3.5504,-3.5504,-3.5504,-3.5504,-3.5504,-3.5504,-3.5504,-3.5504,-3.5587,-3.6102,-3.6446,-3.6752,-3.7544,-3.795,-3.8262,-3.9005,-3.9236,-3.9368,-3.9952,-4.0096,-4.0096,-4.0096,-4.0096,-4.0096,-4.0096,-4.0096,-4.0096,-4.0096,-4.0096,-4.0096,-4.0096,-4.0096,-4.0096,-4.0096,-4.0096,-4.0096,-4.0096,-4.0096,-4.0096,-4.0096,-4.0096,-4.0096,-4.0096,-4.0096,-4.0096,-4.0096,-4.0096,-4.0096,-4.0096,-4.0096,-4.0096,-4.0096,-4.0096,-4.0096,-4.0096,-4.0096,-4.0096,-4.0096,-4.0096,-4.0096,0.0,0.0,0.0,-2.8116,0.0,0.0,0.0,0.0,-2.6653,0.0,0.0,0.0,0.0,0.0,-2.357,-2.3247,0.0,0.0,0.0,0.0,0.0,0.0,0.0,0.0,0.0,0.0,0.0,0.0,0.0,0.0,-2.6482,-2.7934,-2.9235,-3.0462,-3.1152,-3.1511,-3.154,-3.154,-3.1869,-3.2512,-3.2512,-3.2886,-3.3499,-3.3514,-3.3529,-3.3559,-3.4218,-3.4533,-3.4593,-3.5235,-3.5504,-3.5504,-3.5504,-3.5504,-3.5504,-3.5504,-3.5504,-3.5504,-3.5504,-3.5504,-3.5504,-3.5537,-3.6038,-3.6752,-3.7544,-3.8302,-3.9032,-3.985,-4.007,-4.007,-4.0096,-4.0096,-4.0096,-4.0096,-4.0096,-4.0096,-4.0096,-4.0096,-4.0096,-4.0096,-4.0096,-4.0096,-4.0096,-4.0096,-4.0096,-4.0096,-4.0096,-4.0096,-4.0096,-4.0096,-4.0096,-4.0096,-4.0096,-4.0096,-4.0096,-4.0096,-4.0096,-4.0096,-4.0096,-4.0096,-4.0096,-4.0096,-4.0096,-4.0096,-4.0096,-4.0096,-4.0096,-4.0096,-4.0096,-4.0096,-4.0096,-4.0096,0.0,0.0,-3.1529,-2.9021,0.0,0.0,0.0,0.0,0.0,0.0,0.0,0.0,0.0,0.0,-2.3588,-2.3247,-2.2923,0.0,0.0,0.0,0.0,0.0,0.0,0.0,0.0,0.0,0.0,0.0,0.0,0.0,0.0,-2.7055,-2.8718,-2.922,-3.0749,-3.1772,-3.2216,-3.268,-3.2788,-3.2568,-3.2568,-3.2435,-3.2183,-3.2647,-3.2841,-3.2886,-3.3544,-3.4099,-3.4533,-3.4726,-3.51,-3.5504,-3.5504,-3.5504,-3.5504,-3.5504,-3.5504,-3.5504,-3.5504,-3.5504,-3.5587,-3.6054,-3.6753,-3.7528,-3.8302,-3.9059,-3.9756,-4.002,-4.0096,-4.0096,-4.0096,-4.0096,-4.0096,-4.0096,-4.0096,-4.0096,-4.0096,-4.0096,-4.0096,-4.0096,-4.0096,-4.0096,-4.0096,-4.0096,-4.0096,-4.0096,-4.0096,-4.0096,-4.0096,-4.0096,-4.0096,-4.0096,-4.0096,-4.0096,-4.0096,-4.0096,-4.0096,-4.0096,-4.0096,-4.0096,-4.0096,-4.0096,-4.0096,-4.0096,-4.0096,-4.0096,-4.0096,-4.0096,-4.0096,-4.0096,-4.0096,-4.0096,-3.1064,-3.1382,0.0,0.0,-2.8961,0.0,-2.6411,0.0,0.0,0.0,0.0,0.0,0.0,0.0,-2.3775,-2.3986,-2.3377,-2.22,0.0,0.0,0.0,0.0,0.0,0.0,0.0,0.0,-1.9815,-2.125,0.0,0.0,0.0,0.0,-2.8381,-2.9204,-3.0979,-3.2128,-3.2586,-3.3013,-3.2879,-3.2216,-3.2216,-3.2092,-3.1925,-3.2349,-3.2546,-3.2576,-3.3228,-3.3593,-3.3799,-3.4038,-3.4532,-3.513,-3.513,-3.5295,-3.5504,-3.5504,-3.5504,-3.5504,-3.5504,-3.5504,-3.5587,-3.6054,-3.6935,-3.7892,-3.8358,-3.9236,-4.0096,-4.0096,-4.0096,-4.0096,-4.0096,-4.0096,-4.0096,-4.0096,-4.0096,-4.0096,-4.0096,-4.0096,-4.0096,-4.0096,-4.0096,-4.0096,-4.0096,-4.0096,-4.0096,-4.0096,-4.0096,-4.0096,-4.0096,-4.0096,-4.0096,-4.0096,-4.0096,-4.0096,-4.0096,-4.0096,-4.0096,-4.0096,-4.0096,-4.0096,-4.0096,-4.0096,-4.0096,-4.0096,-4.0096,-4.0096,-4.0096,-4.0096,-4.0096,-4.0096,-4.0096,-4.0096]},{"header":{"parameterUnit":"m.s-1","parameterCategory":1,"la1":30.6,"la2":29.2853,"lo1":-89.7004,"lo2":-87.6739,"dy":0.0162,"dx":0.0183,"nx":112,"ny":82,"refTime":"2024-08-12T18:00:00:Z","depth":0,"parameterNumber":3,"parameterNumberName":"V-component_of_WINDS"},"data":[0.0,0.0,0.0,0.0,0.0,0.0,0.0,0.0,0.0,0.0,0.0,0.0,0.0,0.0,0.0,0.0,0.0,0.0,0.0,0.0,0.0,0.0,0.0,0.0,0.0,0.0,0.0,0.0,0.0,0.0,0.0,0.0,0.0,0.0,0.0,0.0,0.0,0.0,0.0,0.0,0.0,0.0,0.0,0.0,0.0,0.0,0.0,0.0,0.0,0.0,0.0,0.0,0.0,0.0,0.0,0.0,0.0,0.0,0.0,0.0,0.0,0.0,0.0,0.0,0.0,0.0,0.0,0.0,0.0,0.0,0.0,0.0,0.0,0.0,0.0,0.0,0.0,0.0,0.0,0.0,0.0,0.0,0.0,0.0,0.0,0.0,0.0,0.0,0.0,0.0,0.0,-2.151,-2.4673,-2.6298,-2.5774,-2.5498,-2.3766,-2.0011,0.0,0.0,0.0,0.0,0.0,0.0,0.0,0.0,0.0,0.0,0.0,0.0,0.0,0.0,0.0,0.0,0.0,0.0,0.0,0.0,0.0,0.0,0.0,0.0,0.0,0.0,0.0,0.0,0.0,0.0,0.0,0.0,0.0,0.0,0.0,0.0,0.0,0.0,0.0,0.0,0.0,0.0,0.0,0.0,0.0,0.0,0.0,0.0,0.0,0.0,0.0,0.0,0.0,0.0,0.0,0.0,0.0,0.0,0.0,0.0,0.0,0.0,0.0,0.0,0.0,0.0,0.0,0.0,0.0,0.0,0.0,0.0,0.0,0.0,0.0,0.0,0.0,0.0,0.0,0.0,0.0,0.0,0.0,0.0,0.0,0.0,0.0,0.0,0.0,0.0,0.0,0.0,0.0,0.0,0.0,0.0,0.0,0.0,0.0,0.0,0.0,0.0,0.0,0.0,-1.9052,-2.3779,-2.5615,-2.6461,-2.6373,-2.5046,-2.2967,-1.9918,0.0,0.0,0.0,0.0,0.0,0.0,0.0,0.0,0.0,0.0,0.0,0.0,0.0,0.0,0.0,0.0,0.0,0.0,0.0,0.0,0.0,0.0,0.0,0.0,0.0,0.0,0.0,0.0,0.0,0.0,0.0,0.0,0.0,0.0,0.0,0.0,0.0,0.0,0.0,0.0,0.0,0.0,0.0,0.0,0.0,0.0,0.0,0.0,0.0,0.0,0.0,0.0,0.0,0.0,0.0,0.0,0.0,0.0,0.0,0.0,0.0,0.0,0.0,0.0,0.0,0.0,0.0,0.0,0.0,0.0,0.0,0.0,0.0,0.0,0.0,0.0,0.0,0.0,0.0,0.0,0.0,0.0,0.0,0.0,0.0,0.0,0.0,0.0,0.0,0.0,0.0,0.0,0.0,0.0,0.0,0.0,0.0,0.0,0.0,0.0,0.0,0.0,0.0,-1.8076,-2.0996,-2.4437,-2.5799,-2.6361,-2.6047,-2.477,-2.2802,-1.9915,-1.7002,0.0,0.0,0.0,0.0,0.0,0.0,0.0,0.0,0.0,0.0,0.0,0.0,0.0,0.0,0.0,0.0,0.0,0.0,0.0,0.0,0.0,0.0,0.0,0.0,0.0,0.0,0.0,0.0,0.0,0.0,0.0,0.0,0.0,0.0,0.0,0.0,0.0,0.0,0.0,0.0,0.0,0.0,0.0,0.0,0.0,0.0,0.0,0.0,0.0,0.0,0.0,0.0,0.0,0.0,0.0,0.0,0.0,0.0,0.0,0.0,0.0,0.0,0.0,0.0,0.0,0.0,0.0,0.0,0.0,0.0,0.0,0.0,0.0,0.0,0.0,0.0,0.0,0.0,0.0,0.0,0.0,0.0,0.0,0.0,0.0,0.0,0.0,0.0,0.0,0.0,0.0,0.0,0.0,0.0,0.0,0.0,0.0,0.0,0.0,0.0,0.0,0.0,-2.0566,-2.2636,-2.4575,-2.5799,-2.626,-2.5649,-2.4368,-2.2451,-1.9753,-1.6381,0.0,0.0,0.0,0.0,0.0,0.0,0.0,0.0,0.0,0.0,0.0,0.0,0.0,0.0,0.0,0.0,0.0,0.0,0.0,0.0,0.0,0.0,0.0,0.0,0.0,0.0,0.0,0.0,0.0,0.0,0.0,0.0,0.0,0.0,0.0,0.0,0.0,0.0,0.0,0.0,0.0,0.0,0.0,0.0,0.0,0.0,0.0,0.0,0.0,0.0,0.0,0.0,0.0,0.0,0.0,0.0,0.0,0.0,0.0,0.0,0.0,0.0,0.0,0.0,0.0,0.0,0.0,0.0,0.0,0.0,0.0,0.0,0.0,0.0,0.0,0.0,0.0,0.0,0.0,0.0,0.0,0.0,0.0,0.0,0.0,0.0,0.0,0.0,0.0,0.0,0.0,0.0,0.0,0.0,0.0,0.0,0.0,0.0,0.0,0.0,0.0,0.0,-2.0751,-2.3446,-2.4662,-2.5799,-2.626,-2.5649,-2.3653,-2.1414,-1.9112,-1.593,0.0,0.0,0.0,0.0,0.0,0.0,0.0,0.0,0.0,0.0,0.0,0.0,0.0,0.0,0.0,0.0,0.0,0.0,0.0,0.0,0.0,0.0,0.0,0.0,0.0,0.0,0.0,0.0,0.0,0.0,0.0,0.0,0.0,0.0,0.0,0.0,0.0,0.0,0.0,0.0,0.0,0.0,0.0,0.0,0.0,0.0,0.0,0.0,0.0,0.0,0.0,0.0,0.0,0.0,0.0,0.0,0.0,0.0,0.0,0.0,0.0,0.0,0.0,0.0,0.0,0.0,0.0,0.0,0.0,0.0,0.0,0.0,0.0,0.0,0.0,0.0,0.0,0.0,0.0,0.0,0.0,0.0,0.0,0.0,0.0,0.0,0.0,0.0,0.0,0.0,0.0,0.0,0.0,0.0,0.0,0.0,0.0,0.0,0.0,0.0,0.0,0.0,-1.9701,-2.2422,0.0,-2.5197,-2.5347,-2.5134,-2.3389,-2.1082,-1.8209,0.0,0.0,0.0,0.0,0.0,0.0,0.0,0.0,0.0,0.0,0.0,0.0,0.0,0.0,0.0,0.0,0.0,0.0,0.0,0.0,0.0,0.0,0.0,0.0,0.0,0.0,0.0,0.0,0.0,0.0,0.0,0.0,0.0,0.0,0.0,0.0,0.0,0.0,0.0,0.0,0.0,0.0,0.0,0.0,0.0,0.0,0.0,0.0,0.0,0.0,0.0,0.0,0.0,0.0,0.0,0.0,0.0,0.0,0.0,0.0,0.0,0.0,0.0,0.0,0.0,0.0,0.0,0.0,0.0,0.0,0.0,0.0,0.0,0.0,0.0,0.0,0.0,0.0,0.0,0.0,0.0,0.0,0.0,0.0,0.0,0.0,0.0,0.0,0.0,0.0,0.0,0.0,0.0,0.0,0.0,0.0,0.0,0.0,0.0,0.0,0.0,0.0,-1.6585,-1.9442,-2.2087,0.0,-2.4687,-2.4713,-2.4569,-2.2686,-2.0289,-1.746,0.0,0.0,0.0,0.0,0.0,0.0,0.0,0.0,0.0,0.0,0.0,0.0,0.0,0.0,0.0,0.0,0.0,0.0,0.0,0.0,0.0,0.0,0.0,0.0,0.0,0.0,0.0,0.0,0.0,0.0,0.0,0.0,0.0,0.0,0.0,0.0,0.0,0.0,0.0,0.0,0.0,0.0,0.0,0.0,0.0,0.0,0.0,0.0,0.0,0.0,0.0,0.0,0.0,0.0,0.0,0.0,0.0,0.0,0.0,0.0,0.0,0.0,0.0,0.0,0.0,0.0,0.0,0.0,0.0,0.0,0.0,0.0,0.0,0.0,0.0,0.0,0.0,0.0,0.0,0.0,0.0,0.0,0.0,0.0,0.0,0.0,0.0,0.0,0.0,0.0,0.0,0.0,0.0,0.0,0.0,0.0,0.0,0.0,0.0,0.0,0.0,0.0,-1.7171,-2.0293,-2.2736,-2.3879,-2.4481,-2.4582,-2.4042,-2.143,-1.8971,0.0,0.0,0.0,0.0,0.0,0.0,0.0,0.0,0.0,0.0,0.0,0.0,0.0,0.0,0.0,0.0,0.0,0.0,0.0,0.0,0.0,0.0,0.0,0.0,0.0,0.0,0.0,0.0,0.0,0.0,0.0,0.0,0.0,0.0,0.0,0.0,0.0,0.0,0.0,0.0,0.0,0.0,0.0,0.0,0.0,0.0,0.0,0.0,0.0,0.0,0.0,0.0,0.0,0.0,0.0,0.0,0.0,0.0,0.0,0.0,0.0,0.0,0.0,0.0,0.0,0.0,0.0,0.0,0.0,0.0,0.0,0.0,0.0,0.0,0.0,0.0,0.0,0.0,0.0,0.0,0.0,0.0,0.0,0.0,0.0,0.0,0.0,0.0,0.0,0.0,0.0,0.0,0.0,0.0,0.0,0.0,0.0,0.0,0.0,0.0,0.0,0.0,0.0,-1.6654,-1.976,-2.2309,-2.3841,-2.3747,-2.3697,-2.3979,-2.2146,-1.9784,-1.6916,0.0,0.0,0.0,0.0,0.0,0.0,0.0,0.0,0.0,0.0,0.0,0.0,0.0,0.0,0.0,0.0,0.0,0.0,0.0,0.0,0.0,0.0,0.0,0.0,0.0,0.0,0.0,0.0,0.0,0.0,0.0,0.0,0.0,0.0,0.0,0.0,0.0,0.0,0.0,0.0,0.0,0.0,0.0,0.0,0.0,0.0,0.0,0.0,0.0,0.0,0.0,0.0,0.0,0.0,0.0,0.0,0.0,0.0,0.0,0.0,0.0,0.0,0.0,0.0,0.0,0.0,0.0,0.0,0.0,0.0,0.0,0.0,0.0,0.0,0.0,0.0,0.0,0.0,0.0,0.0,0.0,0.0,0.0,0.0,0.0,0.0,0.0,0.0,0.0,0.0,0.0,0.0,0.0,0.0,0.0,0.0,0.0,0.0,0.0,0.0,0.0,0.0,-1.7003,-1.9758,-2.2046,-2.3502,-2.3308,-2.3246,-2.3597,-2.2121,-1.9996,-1.7239,0.0,0.0,0.0,0.0,0.0,0.0,0.0,0.0,0.0,0.0,0.0,0.0,0.0,0.0,0.0,0.0,0.0,0.0,0.0,0.0,0.0,0.0,0.0,0.0,0.0,0.0,0.0,0.0,0.0,0.0,0.0,0.0,0.0,0.0,0.0,0.0,0.0,0.0,0.0,0.0,0.0,0.0,0.0,0.0,0.0,0.0,0.0,0.0,0.0,0.0,0.0,0.0,0.0,0.0,0.0,0.0,0.0,0.0,0.0,0.0,0.0,0.0,0.0,0.0,0.0,0.0,0.0,0.0,0.0,0.0,0.0,0.0,0.0,0.0,0.0,0.0,0.0,0.0,0.0,0.0,0.0,0.0,0.0,0.0,0.0,0.0,0.0,0.0,0.0,0.0,0.0,0.0,0.0,0.0,0.0,0.0,0.0,0.0,0.0,0.0,0.0,0.0,-1.7861,-2.0136,-2.1907,-2.2995,-2.3108,-2.3108,-2.3108,-2.1656,-1.9919,-1.7861,0.0,0.0,0.0,0.0,0.0,0.0,0.0,0.0,0.0,0.0,0.0,0.0,0.0,0.0,0.0,0.0,0.0,0.0,0.0,0.0,0.0,0.0,0.0,0.0,0.0,0.0,0.0,0.0,0.0,0.0,0.0,0.0,0.0,0.0,0.0,0.0,0.0,0.0,0.0,0.0,0.0,0.0,0.0,0.0,0.0,0.0,0.0,0.0,0.0,0.0,0.0,0.0,0.0,0.0,0.0,0.0,0.0,0.0,0.0,0.0,-2.0301,0.0,0.0,0.0,0.0,0.0,0.0,0.0,0.0,0.0,0.0,0.0,0.0,0.0,0.0,0.0,0.0,0.0,0.0,0.0,0.0,0.0,0.0,0.0,0.0,0.0,0.0,0.0,0.0,0.0,0.0,0.0,0.0,0.0,0.0,0.0,0.0,0.0,0.0,0.0,0.0,0.0,-1.7946,-2.0163,-2.1907,-2.2995,-2.3108,-2.3108,-2.3108,-2.202,-2.0588,-1.8905,0.0,0.0,0.0,0.0,0.0,0.0,0.0,0.0,0.0,0.0,0.0,0.0,0.0,0.0,0.0,0.0,0.0,0.0,0.0,0.0,0.0,0.0,0.0,0.0,0.0,0.0,0.0,0.0,0.0,0.0,0.0,0.0,0.0,0.0,0.0,0.0,0.0,0.0,0.0,0.0,0.0,0.0,0.0,0.0,0.0,0.0,0.0,0.0,0.0,0.0,0.0,0.0,0.0,0.0,0.0,0.0,0.0,0.0,0.0,0.0,0.0,-2.2202,0.0,0.0,0.0,0.0,0.0,0.0,0.0,0.0,0.0,0.0,0.0,0.0,0.0,0.0,0.0,0.0,0.0,0.0,0.0,0.0,0.0,0.0,0.0,0.0,0.0,0.0,0.0,0.0,0.0,0.0,0.0,0.0,0.0,0.0,0.0,0.0,0.0,0.0,0.0,0.0,-1.8351,-2.0528,-2.2209,-2.3007,-2.3108,-2.3108,-2.3108,-2.2343,-2.1294,-1.9943,-1.7689,0.0,0.0,0.0,0.0,0.0,0.0,0.0,0.0,0.0,0.0,0.0,0.0,0.0,0.0,0.0,0.0,0.0,0.0,0.0,0.0,0.0,0.0,0.0,0.0,0.0,0.0,0.0,0.0,0.0,0.0,0.0,0.0,0.0,0.0,0.0,0.0,0.0,0.0,0.0,0.0,0.0,0.0,0.0,0.0,0.0,0.0,0.0,0.0,0.0,0.0,0.0,0.0,0.0,0.0,-2.8858,-2.8648,-2.931,-2.9924,-3.0285,-2.728,-2.6792,-2.7823,0.0,0.0,0.0,0.0,0.0,0.0,0.0,0.0,0.0,0.0,0.0,0.0,0.0,0.0,0.0,0.0,0.0,0.0,0.0,0.0,0.0,0.0,0.0,0.0,0.0,-2.2347,-2.1845,0.0,0.0,0.0,0.0,0.0,0.0,0.0,0.0,0.0,0.0,0.0,0.0,-1.9058,-2.1039,-2.2493,-2.3045,-2.3108,-2.3108,-2.3108,-2.2606,-2.1825,-2.073,-1.8853,-1.7098,0.0,0.0,0.0,0.0,0.0,0.0,0.0,0.0,0.0,0.0,0.0,0.0,0.0,0.0,0.0,0.0,0.0,0.0,0.0,0.0,0.0,0.0,0.0,0.0,0.0,0.0,0.0,0.0,0.0,0.0,0.0,0.0,-1.7029,-1.7605,0.0,0.0,0.0,0.0,0.0,0.0,0.0,0.0,0.0,0.0,0.0,0.0,0.0,0.0,-2.8085,-3.0524,-3.1437,-3.0917,-3.3319,-3.3844,-3.2736,-3.344,-3.3785,-3.3845,-3.3348,0.0,-2.9232,-2.761,0.0,0.0,0.0,0.0,0.0,0.0,0.0,0.0,0.0,0.0,0.0,0.0,0.0,0.0,0.0,0.0,0.0,0.0,0.0,0.0,0.0,0.0,-2.4632,-2.3853,-2.4092,-2.4186,0.0,-2.1217,-1.9346,-1.8506,0.0,0.0,0.0,0.0,0.0,0.0,0.0,0.0,-2.0201,-2.1543,-2.2493,-2.3045,-2.3108,-2.3108,-2.3108,-2.2606,-2.1774,-2.0506,-1.9251,-1.8019,-1.6814,-1.4994,0.0,0.0,0.0,0.0,0.0,0.0,0.0,0.0,0.0,0.0,0.0,0.0,0.0,0.0,0.0,0.0,0.0,0.0,0.0,0.0,0.0,0.0,0.0,0.0,0.0,0.0,0.0,0.0,0.0,-1.6401,-1.9174,-1.9524,-2.0627,-2.0961,0.0,0.0,0.0,0.0,0.0,0.0,0.0,0.0,0.0,-2.8323,-2.9567,-3.0776,-3.1898,-3.3051,-3.3664,-3.3753,-3.4951,-3.519,-3.4637,-3.4921,-3.5055,-3.5055,-3.5055,-3.4256,-3.2772,-3.0778,-2.8684,-2.6608,0.0,0.0,0.0,0.0,0.0,-2.3973,-2.5551,-2.5528,0.0,0.0,0.0,0.0,0.0,0.0,0.0,0.0,0.0,0.0,0.0,0.0,0.0,-2.5875,-2.6025,-2.605,-2.5531,-2.4155,-2.2623,0.0,-2.0249,-1.9133,-1.7099,0.0,0.0,0.0,0.0,0.0,-2.0993,-2.2096,-2.2832,-2.3083,-2.3108,-2.3108,-2.3108,-2.2882,-2.2251,-2.1096,-2.0563,-1.9443,-1.7566,-1.6757,-1.5453,0.0,0.0,0.0,0.0,0.0,0.0,0.0,0.0,0.0,0.0,0.0,0.0,0.0,0.0,0.0,0.0,0.0,0.0,0.0,0.0,0.0,0.0,0.0,0.0,0.0,0.0,0.0,0.0,-1.8572,-2.0968,-2.1396,-2.2921,-2.3362,0.0,0.0,0.0,0.0,0.0,0.0,-2.7784,-2.9131,-3.0372,-3.148,-3.2347,-3.3499,-3.5013,-3.5177,-3.5489,-3.5998,-3.5998,-3.5998,-3.5998,-3.5998,-3.5908,-3.5759,-3.5759,-3.5669,-3.5352,-3.3229,-3.1598,-3.0309,-2.8626,-2.7513,-2.699,-2.8222,-2.8218,-2.7797,-2.8861,-2.8832,-2.8033,-2.6379,0.0,-2.4293,-2.2502,0.0,0.0,0.0,0.0,-2.433,-2.5837,-2.6553,-2.7014,-2.7394,-2.7381,-2.7203,-2.6788,-2.6248,-2.5285,0.0,-2.2924,-2.2046,-1.9823,0.0,0.0,0.0,0.0,-2.1443,-2.1857,-2.2749,-2.3271,-2.312,-2.3108,-2.3108,-2.3108,-2.297,-2.2422,-2.1278,-2.0911,-1.9854,-1.7894,-1.7601,-1.6591,-1.4677,0.0,0.0,0.0,0.0,0.0,0.0,0.0,0.0,0.0,0.0,0.0,0.0,0.0,0.0,0.0,0.0,0.0,0.0,0.0,0.0,0.0,0.0,0.0,0.0,0.0,0.0,0.0,0.0,0.0,-2.3402,-2.5773,0.0,0.0,0.0,0.0,-2.73,-2.8603,-2.9909,-3.1197,-3.2542,-3.3559,-3.4294,-3.5582,-3.6282,-3.6387,-3.6971,-3.7285,-3.7315,-3.7315,-3.7315,-3.7315,-3.7315,-3.6985,-3.6432,-3.6432,-3.6088,-3.5444,-3.4681,-3.3526,-3.2208,-3.1464,-3.0337,-2.9299,-3.0692,-3.0657,-3.0012,-3.0522,-3.0133,-2.9346,-2.8845,-2.7645,-2.6248,-2.5548,-2.4632,0.0,0.0,-2.5858,-2.6587,-2.7682,-2.7996,-2.8034,-2.8059,-2.7657,-2.7268,-2.7291,-2.6839,-2.6248,0.0,-2.4607,-2.369,-2.2982,0.0,-2.2096,-2.2071,-2.2581,-2.2995,-2.302,-2.3577,-2.3753,-2.3158,-2.3108,-2.3108,-2.3108,-2.2631,-2.1807,-2.0545,-1.9321,-1.8351,-1.7638,-1.646,-1.5924,-1.6076,-1.4744,0.0,0.0,0.0,0.0,0.0,0.0,0.0,0.0,0.0,0.0,0.0,0.0,0.0,0.0,0.0,0.0,0.0,0.0,0.0,0.0,0.0,0.0,0.0,0.0,0.0,0.0,0.0,0.0,-2.6718,-2.8771,0.0,0.0,-2.8607,-2.9385,-3.0073,-3.1345,-3.2497,-3.338,-3.4696,-3.5534,-3.5759,-3.6626,-3.7075,-3.7075,-3.73,-3.7404,-3.7404,-3.7404,-3.7404,-3.7404,-3.7404,-3.7285,-3.7075,-3.7075,-3.6941,-3.6686,-3.6043,-3.524,-3.4374,-3.412,-3.3741,-3.3358,-3.3832,-3.3423,-3.2534,-3.2097,-3.1373,-3.0401,-2.925,-2.8285,-2.7482,-2.7268,-2.6942,-2.6791,-2.7532,-2.7896,-2.8222,-2.8988,-2.9189,-2.9101,-2.8725,-2.8486,-2.8147,-2.7444,-2.7165,-2.6864,-2.6298,-2.5548,-2.4745,-2.3853,-2.3816,-2.3647,-2.292,-2.3597,-2.4186,-2.4186,-2.4092,-2.3916,-2.3715,-2.3333,-2.3108,-2.3108,-2.2606,-2.1806,-2.0674,-1.9799,-1.8725,-1.7333,-1.6933,-1.6375,-1.5633,-1.5257,-1.3918,0.0,0.0,0.0,0.0,0.0,0.0,0.0,0.0,0.0,0.0,0.0,0.0,0.0,0.0,0.0,0.0,0.0,0.0,0.0,0.0,0.0,0.0,0.0,0.0,0.0,0.0,-2.7942,-2.9107,-3.0986,-3.1689,-3.0372,-3.121,-3.2033,-3.2497,-3.3754,-3.4696,-3.5162,-3.6193,-3.6791,-3.6791,-3.7404,-3.7749,-3.7749,-3.7973,-3.8078,-3.8078,-3.8078,-3.8078,-3.8078,-3.8078,-3.7958,-3.7749,-3.7749,-3.7614,-3.7375,-3.6971,-3.6537,-3.6103,-3.5669,-3.5504,-3.5472,-3.5133,-3.4806,-3.4327,-3.3031,-3.1792,-3.0556,-2.9555,-2.8976,-2.8674,-2.8674,-2.8674,-2.875,-2.9114,-2.9176,-2.9315,-2.9691,-2.9792,-2.9691,-2.9315,-2.9026,-2.87,-2.7996,-2.7695,-2.7394,-2.6876,-2.6311,-2.5695,-2.4978,-2.5134,-2.5121,-2.4368,-2.4895,-2.531,-2.5109,-2.477,-2.4406,-2.4042,-2.3653,-2.3321,-2.312,-2.2213,-2.1366,-2.0637,-1.939,-1.8166,-1.7055,-1.6641,-1.6098,-1.5317,-1.5324,-1.4547,-1.2972,0.0,0.0,0.0,0.0,0.0,0.0,0.0,0.0,0.0,0.0,0.0,0.0,0.0,0.0,0.0,0.0,0.0,0.0,0.0,0.0,0.0,0.0,0.0,-2.5008,-2.7302,-2.9353,-3.0496,-3.2362,-3.3051,-3.175,-3.341,-3.4563,-3.4563,-3.5759,-3.6507,-3.6507,-3.7105,-3.7434,-3.7434,-3.8078,-3.8422,-3.8422,-3.9095,-3.9388,-3.9388,-3.9388,-3.9388,-3.9388,-3.9388,-3.905,-3.8422,-3.8422,-3.8063,-3.7464,-3.7449,-3.7434,-3.7315,-3.6028,-3.5534,-3.5422,-3.4361,-3.4576,-3.51,-3.3185,-3.1304,-2.9792,-2.9792,-2.9792,-2.9792,-2.9792,-2.9792,-2.9792,-2.9792,-2.9792,-2.9792,-2.9792,-2.9792,-2.9792,-2.9792,-2.9365,-2.8913,-2.8888,-2.8511,-2.7959,-2.7394,-2.6889,-2.6512,-2.6499,-2.6499,-2.6499,-2.6499,-2.6499,0.0,-2.5686,-2.5598,-2.5197,-2.4123,-2.3985,-2.3704,-2.311,-2.144,-2.0394,-2.0399,-1.7978,-1.6631,-1.6863,-1.5564,-1.5018,-1.5337,-1.5024,-1.4933,-1.513,0.0,0.0,0.0,0.0,0.0,0.0,0.0,0.0,0.0,0.0,0.0,0.0,0.0,0.0,0.0,0.0,0.0,0.0,0.0,0.0,0.0,0.0,-2.6229,-2.7549,-3.0308,-3.2497,-3.3305,-3.4322,-3.4816,-3.4457,-3.534,-3.5971,-3.5971,-3.6686,-3.715,-3.715,-3.7764,-3.8123,-3.8123,-3.8781,-3.914,-3.914,-3.9334,-3.9388,-3.9388,-3.9388,-3.9388,-3.9388,-3.9388,-3.932,-3.914,-3.914,-3.9035,-3.8826,-3.8332,-3.8123,-3.7988,-3.6716,-3.6222,-3.6048,-3.4569,-3.331,-3.2227,-3.0996,-3.0216,-2.9792,-2.9792,-2.9792,-2.9792,-2.9792,-2.9792,-2.9792,-2.9792,-2.9792,-2.9792,-2.9792,-2.9792,-2.9792,-2.9792,-2.9666,-2.944,-2.8976,-2.8775,-2.8423,-2.7469,-2.719,-2.6964,-2.6562,-2.6499,-2.6499,-2.6499,-2.6499,0.0,-2.6273,-2.585,-2.524,-2.4244,-2.3486,-2.2966,-2.2702,-2.1176,-2.037,0.0,-1.8394,-1.7488,-1.8358,-1.6837,-1.614,-1.6527,-1.6015,-1.5659,0.0,0.0,0.0,0.0,0.0,0.0,0.0,0.0,0.0,0.0,0.0,0.0,0.0,0.0,0.0,0.0,0.0,0.0,0.0,0.0,0.0,0.0,-2.5882,-2.8109,-2.9747,-3.192,-3.3576,-3.4209,-3.5008,-3.5609,-3.5893,-3.6267,-3.6596,-3.6851,-3.7464,-3.7823,-3.7823,-3.8452,-3.8826,-3.8826,-3.9215,-3.9388,-3.9388,-3.9388,-3.9388,-3.9388,-3.9388,-3.9388,-3.9388,-3.9388,-3.9388,0.0,-3.9388,-3.9388,-3.9394,-3.899,-3.8826,0.0,0.0,0.0,0.0,0.0,-3.2464,-3.1106,-3.0595,-3.0139,-2.9792,-2.9792,-2.9792,-2.9792,-2.9792,-2.9792,-2.9792,-2.9792,-2.9792,-2.9792,-2.9792,-2.9792,-2.9792,-2.9792,-2.9792,-2.9691,-2.9365,-2.9289,-2.9038,-2.8147,0.0,0.0,-2.6939,-2.665,-2.6499,-2.6499,-2.6499,-2.6499,-2.6499,-2.6197,-2.566,-2.4871,-2.4253,-2.3693,-2.3179,-2.1788,0.0,0.0,0.0,-1.7821,-1.8315,-1.7405,0.0,0.0,0.0,0.0,0.0,0.0,0.0,0.0,-1.8285,-1.8477,0.0,0.0,0.0,0.0,0.0,0.0,0.0,0.0,0.0,0.0,0.0,0.0,0.0,0.0,0.0,0.0,-2.8339,-2.9883,-3.12,-3.235,-3.3288,-3.3921,-3.4931,-3.5848,-3.6432,-3.6611,-3.6926,-3.7479,-3.8123,-3.8497,-3.8497,0.0,0.0,0.0,0.0,-3.9649,-3.9649,-3.9649,-3.9649,-3.9649,-3.9649,-3.9649,-3.9634,-3.9574,-3.9493,-3.9493,-3.9418,-3.9388,-3.9388,-3.9388,-3.9265,-3.8825,-3.6787,-3.5568,-3.4732,-3.3139,-3.1959,0.0,0.0,0.0,0.0,-2.9792,-2.9792,-2.9792,-2.9792,-2.9792,-2.9792,-2.9792,-2.9792,-2.9792,-2.9792,-2.9792,-2.9792,-2.9792,-2.9792,-2.9792,-2.9792,-2.9792,-2.9616,-2.9001,-2.8536,-2.8009,-2.7394,-2.6864,-2.6499,-2.6499,-2.6499,-2.6499,-2.6499,-2.6499,-2.6264,-2.5602,0.0,0.0,-2.3926,-2.2636,-2.1663,-2.1272,-1.9409,-1.8112,-1.7567,-1.7845,-1.8295,-1.8895,-2.0117,-2.1194,-2.2116,-2.3343,-2.4023,-2.4086,-2.0593,-2.0196,0.0,0.0,0.0,0.0,0.0,0.0,0.0,0.0,0.0,0.0,0.0,0.0,0.0,0.0,0.0,-2.6971,-2.8212,-2.9288,-3.0036,-3.1631,-3.301,-3.391,-3.5377,-3.6357,-3.6477,-3.7419,-3.8063,-3.8197,-3.8841,-3.923,-3.923,-3.9843,0.0,-4.0217,-4.0726,-4.0995,-4.0995,-4.0995,-4.0995,-4.0995,0.0,0.0,-4.098,-4.0442,-4.0217,-4.0187,-3.9649,-3.9388,-3.9388,-3.9388,-3.8368,-3.6806,-3.6691,-3.5747,-3.434,-3.2707,-3.1524,-3.0632,-3.0227,-2.9934,-2.9792,-2.9792,-2.9792,-2.9792,-2.9792,-2.9792,0.0,-2.9792,-2.9792,-2.9792,-2.9792,-2.9792,-2.9792,-2.9792,-2.9792,-2.9792,-2.9792,-2.9792,-2.9616,-2.9001,-2.8813,-2.8448,-2.7457,-2.6864,-2.6499,-2.6499,-2.6499,-2.6499,-2.6499,-2.6499,-2.6126,-2.5226,-2.4792,-2.4135,-2.304,-2.1661,-2.1086,-2.1556,-2.0867,-1.9802,-1.8427,-1.9746,-2.0614,-2.0844,-2.1427,-2.2068,-2.2719,-2.3324,-2.4181,-2.5259,-2.4071,-2.358,0.0,0.0,0.0,0.0,0.0,0.0,0.0,0.0,0.0,0.0,0.0,-2.1914,0.0,0.0,-2.7218,-2.836,-2.9001,-2.9465,-2.9754,-3.102,-3.2249,-3.3206,-3.5195,-3.6611,-3.6911,-3.7823,-3.8542,-3.8886,-3.9529,-3.9903,-3.9903,-4.0531,-4.0891,-4.0891,-4.1205,-4.1422,-4.1422,-4.1422,-4.1422,-4.1422,-4.1422,-4.1422,-4.1407,-4.104,-4.0891,-4.0876,-4.0546,-4.0217,-3.9837,-3.8952,-3.7648,-3.617,-3.5855,-3.5061,-3.3854,-3.228,-3.1524,-3.1215,-3.0478,-3.0018,-2.9792,-2.9792,-2.9792,-2.9792,-2.9792,-2.9792,-2.9792,-2.9792,-2.9792,-2.9792,-2.9792,-2.9792,-2.9792,-2.9792,-2.9792,-2.9792,-2.9792,-2.9792,-2.9704,-2.9415,-2.9126,-2.8712,-2.8197,-2.7419,-2.6813,-2.6537,-2.6499,-2.6499,-2.6499,-2.6499,-2.6314,-2.5804,-2.5546,-2.5046,-2.4208,-2.2801,-2.1715,-2.1174,-2.0919,-2.0457,-1.9634,-2.0452,-2.1144,-2.1655,-2.209,-2.2501,-2.2796,-2.3787,-2.4604,-2.5306,-2.5548,-2.5498,0.0,0.0,0.0,0.0,0.0,0.0,0.0,0.0,-1.7738,-1.9938,-2.1905,-2.3722,-2.5505,-2.7249,-2.8762,-2.9792,-2.9955,-2.9993,-3.0093,-3.0815,-3.1696,-3.2629,-3.4894,-3.6682,-3.7325,-3.8123,-3.8826,-3.9379,-4.0023,-4.0397,-4.0397,-4.1145,-4.1564,-4.1564,-4.1698,-4.1758,-4.1758,-4.1758,-4.1758,-4.1758,-4.1758,-4.1758,-4.1758,-4.1624,-4.1488,-4.1228,-4.0888,-4.0344,-3.9658,-3.8232,-3.6978,-3.5814,-3.502,-3.4222,-3.3437,-3.2066,-3.176,-3.1902,-3.0936,-3.0331,-2.993,-2.9829,-2.9792,-2.9792,-2.9792,-2.9792,-2.9792,-2.9792,-2.9792,-2.9792,-2.9792,-2.9792,-2.9792,-2.9792,-2.9792,-2.9792,-2.9792,-2.9792,-2.9792,-2.9792,-2.9415,-2.9026,-2.8913,-2.8185,-2.7381,-2.6751,-2.6562,-2.6499,-2.6499,-2.6499,-2.6499,-2.6499,-2.6499,-2.6111,-2.5154,-2.3736,-2.2182,-2.0471,-2.0496,-2.0573,-2.0452,-2.0452,-2.0913,-2.1908,-2.2328,-2.267,-2.286,-2.4104,-2.4826,-2.5016,-2.5838,-2.6314,-1.3887,-1.5146,-1.6075,-1.6917,-1.7129,-1.7881,0.0,0.0,-2.122,-2.2618,-2.4942,-2.6792,-2.7064,-2.8478,-2.9804,-3.0419,-3.052,-3.0683,-3.1148,-3.1603,-3.2273,-3.3212,-3.4946,-3.6389,-3.7321,-3.8556,-3.9298,-3.9373,-4.0023,-4.0397,-4.0397,-4.1617,-4.2291,-4.2291,-4.2821,-4.308,-4.308,-4.308,-4.308,-4.308,-4.308,-4.308,-4.305,-4.2506,-4.1701,-4.0602,-3.9,-3.8004,-3.7473,-3.7243,-3.6252,-3.4856,-3.4746,-3.4069,-3.3076,-3.237,-3.216,-3.2041,-3.0987,-3.057,-3.0444,-2.9942,-2.9792,-2.9792,-2.9792,-2.9792,-2.9792,-2.9792,-2.9792,-2.9792,-2.9792,-2.9792,-2.9792,-2.9792,-2.9792,-2.9792,-2.9792,-2.9792,-2.9792,-2.9792,-2.9741,-2.9528,-2.8976,-2.8787,-2.8398,-2.7344,-2.6813,-2.6499,-2.6499,-2.6499,-2.6499,-2.6499,-2.6499,-2.5618,-2.3408,-2.2124,-2.0886,-1.9525,-2.015,-2.0396,-2.0011,-1.9984,-2.0591,-2.1982,-2.2035,-2.2504,-2.3399,-2.3565,-2.412,-2.5004,-2.5123,-2.5664,-1.6558,-1.748,0.0,0.0,-1.9619,-2.0332,-2.1602,-2.1769,-2.2158,-2.3825,-2.5595,-2.7007,-2.7644,-2.8868,-2.998,0.0,-3.062,-3.0796,-3.1323,-3.1269,-3.1732,-3.3211,-3.4128,-3.5354,-3.7222,-3.8257,-3.914,-3.9933,-4.0591,-4.113,-4.1557,-4.2417,-4.2925,-4.2925,-4.3155,-4.329,-4.329,-4.329,-4.329,-4.329,-4.329,-4.329,-4.329,-4.3045,-4.2286,-4.1073,-3.9257,-3.8013,-3.7147,-3.6461,-3.5389,-3.4204,-3.3883,-3.3471,-3.3056,-3.2805,-3.2503,-3.2152,-3.17,-3.1135,-3.057,-3.0344,-3.0055,-2.9792,-2.9792,-2.9792,-2.9792,-2.9792,-2.9792,-2.9792,-2.9792,-2.9792,-2.9792,-2.9792,-2.9792,-2.9792,-2.9792,-2.9792,-2.9792,-2.9792,-2.9792,-2.9716,-2.9478,-2.9113,-2.8737,-2.831,-2.7494,-2.6977,-2.6977,-2.6688,-2.6499,-2.6499,-2.599,-2.498,-2.3379,-2.2299,-2.1196,-2.0115,-2.0387,-2.0514,-2.0321,-2.0293,-2.0592,-2.1183,-2.1193,-2.1375,-2.1821,-2.2366,-2.329,-2.463,-2.5179,-2.6166,-1.7626,0.0,0.0,-2.045,-2.1406,-2.209,-2.2207,-2.2236,-2.2646,-2.4035,-2.5263,-2.6378,-2.7441,-2.8569,0.0,-3.0681,-3.0834,-3.1072,-3.1763,-3.126,-3.1419,-3.3046,-3.3266,-3.4284,-3.6768,-3.7848,-3.8871,-4.0038,-4.0905,-4.1632,-4.2111,-4.288,-4.329,-4.329,-4.329,-4.329,-4.329,-4.329,-4.3155,-4.282,-4.282,-4.2684,-4.2345,-4.2029,-4.142,-4.0519,-3.8913,-3.7692,-3.6694,-3.5718,-3.473,-3.3847,-3.3294,-3.3124,-3.3124,-3.3124,-3.2805,-3.2428,-3.2265,-3.1599,-3.0809,-3.0658,-3.0244,-2.9792,-2.9792,-2.9792,-2.9792,-2.9792,-2.9792,-2.9792,-2.9792,-2.9792,-2.9792,-2.9792,-2.9792,-2.9792,-2.9792,-2.9792,-2.9792,-2.9792,-2.9792,-2.9792,-2.9792,-2.9453,-2.9126,-2.9126,-2.8348,-2.762,-2.7318,-2.6839,-2.6499,-2.6499,-2.5358,-2.4301,-2.3551,-2.2328,-2.1336,-2.0644,-2.0605,-2.0605,-2.0605,-2.0605,-2.0605,-2.0605,-2.0605,-2.0605,-2.0605,-2.1727,-2.2967,-2.4329,-2.5478,-2.6858,0.0,0.0,-1.9487,-2.0854,-2.1855,-2.2598,-2.2964,-2.3052,-2.3062,-2.3135,-2.4049,-2.521,-2.6348,-2.7452,-2.8843,-3.101,-3.1361,-3.175,-3.291,-3.2064,-3.1741,-3.2686,-3.2729,-3.3535,0.0,-3.7467,-3.8691,-3.9394,-4.0651,-4.1384,-4.1452,-4.2626,-4.329,-4.329,-4.329,-4.329,-4.329,-4.329,-4.2765,-4.1629,-4.1629,-4.1085,-3.9942,-3.8783,-3.8243,-3.8153,-3.6998,-3.6125,-3.5491,-3.4972,-3.4387,-3.3847,-3.3294,-3.3124,-3.3124,-3.3124,-3.3111,-3.2968,-3.2403,-3.1838,-3.1286,-3.0783,-3.0244,-2.9792,-2.9792,-2.9792,-2.9792,-2.9792,-2.9792,-2.9792,-2.9792,-2.9792,-2.9792,-2.9792,-2.9792,-2.9792,-2.9792,-2.9792,-2.9792,-2.9792,-2.9792,-2.9792,-2.9792,-2.9779,-2.9767,-2.9767,-2.9264,-2.8499,-2.7419,-2.6839,-2.6499,-2.6499,-2.4731,-2.3514,-2.3514,-2.1745,-2.0644,-2.0605,-2.0605,-2.0605,-2.0605,-2.0605,-2.0605,-2.0605,-2.0605,-2.0605,-2.0605,-2.2123,-2.3377,-2.434,-2.5878,-2.7417,0.0,0.0,-2.06,-2.0815,-2.1874,-2.2916,-2.3062,-2.3091,-2.3091,-2.3091,-2.3772,-2.4502,-2.4886,-2.6451,-2.8179,-2.9654,-3.0728,-3.1788,-3.296,-3.2416,-3.2298,-3.3275,-3.3625,0.0,0.0,0.0,0.0,-3.9933,-4.0487,-4.1115,-4.2021,-4.2851,-4.329,-4.329,-4.329,-4.329,-4.329,-4.2548,-4.1988,-4.1587,-4.0831,-4.0275,-3.9855,-3.8649,-3.8107,-3.8017,-3.6883,-3.6304,-3.6044,-3.5445,-3.4893,-3.4399,-3.3847,-3.3395,-3.3124,-3.3124,-3.3124,-3.3056,-3.2855,-3.2416,-3.1851,-3.1311,-3.0771,-3.0269,-2.9905,-2.9792,-2.9792,-2.9792,-2.9792,-2.9792,-2.9792,-2.9792,-2.9792,-2.9792,-2.9792,-2.9792,-2.9792,-2.9792,-2.9792,-2.9792,-2.9792,-2.9792,-2.9792,-2.9792,-2.9792,-2.9792,-2.9302,-2.8624,-2.7921,-2.7344,-2.704,-2.704,-2.5504,-2.4492,-2.4492,-2.2675,-2.1517,-2.1517,-2.0934,-2.0605,-2.0605,-2.0605,-2.0605,-2.0605,-2.0605,-2.0752,-2.1016,-2.1501,-2.2987,-2.5318,-2.583,-2.7308,0.0,-1.8645,-2.0375,-2.082,-2.203,-2.3091,-2.3091,-2.3091,-2.3013,-2.2711,-2.3042,-2.3381,-2.3473,-2.4898,-2.6558,-2.7964,-2.9691,-3.1213,-3.2259,-3.2299,-3.2528,-3.3385,-3.39,0.0,0.0,0.0,0.0,-4.021,-4.0831,-4.1512,-4.2351,-4.297,-4.329,-4.329,-4.329,-4.329,-4.329,-4.2548,-4.1809,-4.0958,-3.9404,-3.8662,-3.8617,-3.7861,-3.7507,-3.7461,-3.6709,-3.6405,-3.6367,-3.5768,-3.5169,-3.4663,-3.411,-3.3558,-3.3124,-3.3124,-3.3124,-3.3124,-3.3124,-3.2692,-3.2127,-3.1574,-3.1035,-3.0507,-2.9955,-2.9792,-2.9792,-2.9792,-2.9792,-2.9792,-2.9792,-2.9792,-2.9792,-2.9792,-2.9792,-2.9792,-2.9792,-2.9792,-2.9792,-2.9792,-2.9792,-2.9792,-2.9792,-2.9792,-2.9792,-2.9792,-2.9478,-2.9038,-2.8473,-2.7921,-2.7582,-2.7582,-2.6396,-2.5504,-2.529,-2.3475,-2.2216,-2.2,-2.1116,-2.0605,-2.0605,-2.0605,-2.0683,-2.0801,-2.0801,-2.1025,-2.1465,-2.1998,-2.3276,-2.5249,-2.6194,-2.7549,-1.6249,-1.7696,-1.9151,-2.0793,-2.2173,-2.3091,-2.3091,-2.3062,-2.2799,-2.2021,-2.1797,-2.1798,0.0,0.0,-2.4168,-2.6134,-2.8386,-3.0196,-3.1169,-3.1896,-3.2516,0.0,0.0,0.0,0.0,0.0,0.0,-4.0293,0.0,-4.2366,-4.2396,-4.297,-4.329,-4.329,-4.329,-4.325,-4.321,-4.3076,-4.1906,-3.9681,-3.7474,-3.6405,-3.6405,-3.6405,-3.6405,-3.6405,-3.6405,-3.6405,-3.6367,-3.5805,-3.5194,-3.4675,-3.4148,-3.3583,-3.3124,-3.3124,-3.3124,-3.3124,-3.3124,-3.2717,-3.2164,-3.1612,-3.1085,-3.0557,-2.9993,-2.9817,-2.9792,-2.9792,-2.9792,-2.9792,-2.9792,-2.9792,-2.9792,-2.9792,-2.9792,-2.9792,-2.9792,-2.9792,-2.9792,-2.9792,-2.9792,-2.9792,-2.9792,-2.9792,-2.9792,-2.9792,-2.9792,-2.9591,-2.9001,-2.8449,-2.8147,-2.8147,-2.7249,-2.6436,-2.5898,-2.4098,-2.2738,-2.2094,-2.1187,-2.0674,-2.0674,-2.0674,-2.084,-2.122,-2.1229,-2.1484,-2.1924,-2.3392,-2.4167,-2.4281,-2.6794,-2.8004,-1.5501,-1.7963,-2.0509,-2.0073,-2.1543,-2.3091,-2.3091,-2.2656,-2.2051,-2.1473,-2.0625,-1.9789,-1.9198,0.0,0.0,-2.4648,-2.8273,0.0,-3.2457,-3.3121,0.0,0.0,0.0,-3.5881,-3.6471,-3.8544,0.0,0.0,-4.1246,-4.1886,-4.2366,-4.297,-4.329,-4.329,-4.329,-4.29,-4.2029,-4.029,-3.8725,-3.7302,-3.6675,-3.6405,-3.6405,-3.6405,-3.6405,-3.6405,-3.6405,-3.6405,-3.6405,-3.6207,-3.5592,-3.4713,-3.4562,-3.3922,-3.3124,-3.3124,-3.3124,-3.3124,-3.3124,-3.298,-3.2754,-3.219,-3.1637,-3.1097,-3.057,-3.0118,-2.9792,-2.9792,-2.9792,-2.9792,-2.9792,-2.9792,-2.9792,-2.9792,-2.9792,-2.9792,-2.9792,-2.9792,-2.9792,-2.9792,-2.9792,-2.9792,-2.9792,-2.9792,-2.9792,-2.9792,-2.9792,-2.9741,-2.9591,-2.9076,-2.8687,-2.8687,-2.8114,-2.7348,-2.6421,-2.5161,-2.4059,-2.3027,-2.208,-2.1593,-2.1593,-2.1593,-2.1602,-2.1719,-2.1719,-2.1924,-2.2353,-2.2737,-2.3519,-2.4661,-2.5314,-2.6521,-1.5682,-1.7695,-1.9728,-1.9041,-2.0616,-2.2164,-2.1575,-2.154,-2.1211,-1.9824,-1.8965,0.0,-1.7061,0.0,0.0,0.0,0.0,0.0,-3.1761,-3.3065,-3.411,0.0,-3.5443,0.0,-3.7042,-3.8551,-3.9943,0.0,-4.176,-4.2402,-4.2761,-4.3135,-4.329,-4.329,-4.329,-4.2765,-4.1587,-3.9288,-3.7756,-3.715,-3.6628,-3.6405,-3.6405,-3.6405,-3.6405,-3.6405,0.0,-3.6405,-3.6405,-3.6405,-3.5717,-3.468,-3.468,-3.4048,-3.3124,-3.3124,-3.3124,-3.3124,-3.3124,-3.3124,-3.298,-3.2403,-3.2001,-3.1612,-3.0846,-3.0407,-3.0105,-2.9867,-2.9792,-2.9792,-2.9792,-2.9792,-2.9792,-2.9792,-2.9792,-2.9792,-2.9792,-2.9792,-2.9792,-2.9792,-2.9792,-2.9792,-2.9792,-2.9792,-2.9792,-2.9792,-2.9792,-2.9792,-2.9792,-2.9503,-2.9302,-2.9302,-2.8572,-2.777,-2.6919,-2.5515,-2.4266,-2.3372,-2.2421,-2.1885,-2.1885,-2.1885,-2.1973,-2.2158,-2.2158,-2.2373,-2.274,-2.274,-2.3483,-2.483,-2.5294,-2.6449,-1.6192,-1.7146,-1.807,-1.8115,-1.9589,-2.0747,-1.9671,-2.0046,-2.0014,-1.7759,0.0,-1.665,-1.5391,0.0,-2.0238,-2.1377,0.0,-2.9127,-3.044,-3.2505,-3.4135,-3.4705,-3.527,-3.6222,-3.7717,-3.803,-3.8934,-4.0986,-4.233,-4.3155,-4.329,-4.329,-4.325,-4.3076,-4.2765,-4.2152,-4.1155,-3.8979,-3.7848,-3.7848,-3.6896,-3.6405,-3.6405,-3.6405,-3.6405,-3.6405,0.0,0.0,-3.6405,-3.6405,-3.5717,-3.468,-3.468,-3.4048,-3.3124,-3.3124,-3.3124,-3.3124,-3.3124,-3.3124,-3.2993,-3.2491,-3.2277,-3.2026,-3.1022,-3.067,-3.0507,-2.9942,-2.9792,-2.9792,-2.9792,-2.9792,-2.9792,-2.9792,-2.9792,-2.9792,-2.9792,-2.9792,-2.9792,-2.9792,-2.9792,-2.9792,-2.9792,-2.9792,-2.9792,-2.9792,-2.9792,-2.9792,-2.9792,-2.9792,-2.9792,-2.9792,-2.8767,-2.7866,-2.7258,-2.5407,-2.399,-2.3338,-2.2509,-2.2051,-2.2051,-2.2051,-2.2217,-2.2588,-2.2598,-2.273,-2.3091,-2.3256,-2.3833,-2.483,-2.5964,-2.7087,-1.6192,-1.7039,-1.7834,-1.8055,-1.8812,-1.9459,-1.9401,-1.8533,0.0,0.0,0.0,-1.4951,-1.4014,-1.6506,0.0,-2.1071,0.0,0.0,0.0,0.0,-3.4274,0.0,0.0,0.0,0.0,0.0,0.0,0.0,0.0,0.0,-4.325,-4.329,-4.286,-4.1932,-4.0017,-3.889,-3.8725,-3.7368,-3.6675,-3.6675,-3.6499,-3.6405,-3.6405,-3.6405,-3.6405,-3.6405,0.0,0.0,-3.6405,-3.6405,-3.5717,-3.468,-3.468,-3.4048,-3.3124,-3.3124,-3.3124,-3.3124,-3.3124,-3.3124,-3.3056,-3.2998,-3.2604,-3.2089,-3.1449,-3.0959,-3.0507,-2.9942,-2.9792,-2.9792,-2.9792,-2.9792,-2.9792,-2.9792,-2.9792,-2.9792,-2.9792,-2.9792,-2.9792,-2.9792,-2.9792,-2.9792,-2.9792,-2.9792,-2.9792,-2.9792,-2.9792,-2.9792,-2.9792,-2.9792,-2.9792,-2.9792,-2.8767,-2.7688,-2.6717,-2.5416,-2.427,-2.3203,-2.2997,-2.2877,-2.2877,-2.2877,-2.2916,-2.2984,-2.2984,-2.3023,-2.3091,-2.4049,-2.4628,-2.483,-2.5964,-2.7087,-1.6239,-1.6642,-1.6991,-1.7139,-1.7662,-1.7954,-1.7278,0.0,0.0,0.0,0.0,-1.3926,-1.3301,0.0,0.0,0.0,0.0,0.0,0.0,0.0,0.0,0.0,0.0,0.0,0.0,0.0,0.0,0.0,0.0,0.0,-4.1491,-4.1532,-4.1267,-4.0746,-3.9023,-3.8107,-3.8107,-3.6977,-3.6405,-3.6405,-3.6405,-3.6405,-3.6405,-3.6405,-3.6405,-3.6405,-3.6405,0.0,-3.6405,-3.6405,-3.5717,-3.468,-3.468,-3.4048,-3.3124,-3.3124,-3.3124,-3.3124,-3.3124,-3.3124,-3.3124,-3.3124,-3.288,-3.2503,-3.165,-3.1223,-3.0846,-3.003,-2.9792,-2.9792,-2.9792,-2.9792,-2.9792,-2.9792,-2.9792,-2.9792,-2.9792,-2.9792,-2.9792,-2.9792,-2.9792,-2.9792,-2.9792,-2.9792,-2.9792,-2.9792,-2.9792,-2.9792,-2.9792,-2.9287,-2.8937,-2.8937,-2.74,-2.6149,-2.5672,-2.4585,-2.3671,-2.3135,-2.3091,-2.3091,-2.3091,-2.3091,-2.3091,-2.3091,-2.3091,-2.3091,-2.3091,-2.3627,-2.4553,-2.5714,-2.6265,-2.7383,-1.6239,-1.6274,-1.6192,-1.6259,-1.6455,-1.635,-1.5249,-1.5344,0.0,0.0,0.0,-1.3271,-1.2964,0.0,0.0,0.0,0.0,0.0,0.0,0.0,0.0,0.0,0.0,0.0,0.0,0.0,0.0,0.0,0.0,0.0,0.0,-3.9623,-3.9492,-3.9492,-3.8347,-3.7756,-3.7756,-3.6849,-3.6405,-3.6405,-3.6405,-3.6405,-3.6405,-3.6405,-3.6405,-3.6405,-3.6405,0.0,0.0,-3.6405,-3.5717,-3.468,-3.468,-3.4048,-3.3124,-3.3124,-3.3124,-3.3124,-3.3124,-3.3124,-3.3124,-3.3124,-3.3124,-3.291,-3.1738,-3.1386,-3.116,-3.0093,-2.9792,-2.9792,-2.9792,-2.9792,-2.9792,-2.9792,-2.9792,-2.9792,-2.9792,-2.9792,-2.9792,-2.9792,-2.9792,-2.9792,-2.9792,-2.9792,-2.9792,-2.9792,-2.9792,-2.9792,-2.9792,-2.8609,-2.7775,-2.7775,-2.5983,-2.4787,-2.4787,-2.3757,-2.3091,-2.3091,-2.3091,-2.3091,-2.3091,-2.3091,-2.3091,-2.3091,-2.3091,-2.3091,-2.3091,-2.3343,-2.4382,-2.6141,-2.6637,-2.7787,-1.6126,-1.6079,-1.5939,-1.6206,-1.5517,-1.4774,-1.4958,0.0,0.0,0.0,-1.3203,-1.2954,-1.2915,-1.3396,0.0,0.0,0.0,0.0,0.0,0.0,0.0,0.0,0.0,0.0,0.0,0.0,0.0,0.0,0.0,0.0,0.0,-3.8872,-3.8289,-3.8289,-3.715,-3.6534,-3.6534,-3.6452,-3.6405,-3.6405,-3.6405,-3.6405,-3.6405,-3.6405,-3.6405,-3.6405,0.0,0.0,0.0,-3.6405,-3.5717,-3.468,-3.468,-3.4048,-3.3124,-3.3124,-3.3124,-3.3124,-3.3124,-3.3124,-3.3124,-3.3124,-3.3124,-3.291,-3.1738,-3.1386,-3.116,-3.0093,-2.9792,-2.9792,-2.9792,-2.9792,-2.9792,-2.9792,-2.9792,-2.9792,-2.9792,-2.9792,-2.9792,-2.9792,-2.9792,-2.9792,-2.9792,-2.9792,-2.9792,-2.9792,-2.9792,-2.9792,-2.9792,-2.7959,-2.6637,-2.6637,-2.5546,-2.4787,-2.4787,-2.3757,-2.3091,-2.3091,-2.3091,-2.3091,-2.3091,-2.3091,-2.3091,-2.3091,-2.3091,-2.3091,-2.3091,-2.4125,-2.4745,-2.4999,-2.7023,-2.8044,-1.5585,-1.5785,-1.5811,-1.5979,-1.5257,-1.4494,-1.4576,0.0,-1.3044,-1.3105,-1.3023,-1.2905,-1.2905,-1.3223,-1.4113,0.0,-1.7181,-1.924,0.0,0.0,0.0,0.0,0.0,0.0,0.0,0.0,0.0,0.0,0.0,0.0,0.0,-3.7335,-3.7057,-3.7057,-3.6628,-3.6405,-3.6405,-3.6405,-3.6405,-3.6405,-3.6405,-3.6405,-3.6405,-3.6405,-3.6405,-3.6405,0.0,0.0,0.0,-3.6006,-3.5416,-3.4688,-3.4361,-3.3759,-3.3124,-3.3124,-3.3124,-3.3124,-3.3124,-3.3124,-3.3124,-3.3124,-3.3124,-3.291,-3.1738,-3.1386,-3.116,-3.0093,-2.9792,-2.9792,-2.9792,-2.9792,-2.9792,-2.9792,-2.9792,-2.9792,-2.9792,-2.9792,-2.9792,-2.9792,-2.9792,-2.9792,-2.9792,-2.9792,-2.9792,-2.9792,-2.9792,-2.9792,-2.9792,-2.845,-2.7209,-2.6565,-2.5462,-2.45,-2.3844,-2.4006,-2.3833,-2.3135,-2.3091,-2.3091,-2.3091,-2.3091,-2.3091,-2.3091,-2.3091,-2.3091,-2.3091,-2.3551,-2.4125,-2.483,-2.5692,-2.6491,-1.5064,-1.5478,-1.5705,-1.5705,-1.5044,-1.4288,0.0,0.0,-1.2811,-1.263,-1.2749,-1.2905,-1.2905,-1.3125,-1.3643,0.0,-1.5768,-1.7632,-2.0813,0.0,0.0,0.0,0.0,0.0,0.0,0.0,0.0,0.0,0.0,0.0,0.0,-3.6405,-3.6405,-3.6405,-3.6405,-3.6405,-3.6405,-3.6405,-3.6405,-3.6405,-3.6405,-3.6405,-3.6405,-3.6405,-3.6405,-3.6405,0.0,0.0,0.0,-3.5658,-3.5082,-3.4449,-3.4048,-3.3558,-3.3124,-3.3124,-3.3124,-3.3124,-3.3124,-3.3124,-3.3124,-3.3124,-3.3124,-3.291,-3.1738,-3.1386,-3.116,-3.0093,-2.9792,-2.9792,-2.9792,-2.9792,-2.9792,-2.9792,-2.9792,-2.9792,-2.9792,-2.9792,-2.9792,-2.9792,-2.9792,-2.9792,-2.9792,-2.9534,-2.9287,-2.9287,-2.904,-2.8831,-2.8831,-2.7815,-2.6819,-2.6088,-2.5294,-2.4339,-2.3222,-2.3844,-2.3963,-2.3135,-2.3091,-2.3091,-2.3091,-2.3091,-2.3091,-2.3091,-2.3091,-2.3091,-2.3091,-2.3091,-2.3507,-2.4296,-2.4617,-2.542,-1.4693,-1.5177,-1.5398,-1.5398,-1.4743,-1.3906,0.0,-1.2767,-1.2448,-1.1909,-1.2393,-1.2905,-1.2905,-1.2905,-1.3326,-1.458,-1.5527,-1.7389,-2.1085,0.0,0.0,0.0,0.0,0.0,0.0,0.0,0.0,0.0,0.0,0.0,0.0,0.0,-3.6405,-3.6405,-3.6405,-3.6405,-3.6405,-3.6405,-3.6405,-3.6405,-3.6405,-3.6405,-3.6405,-3.6405,-3.6405,0.0,0.0,0.0,0.0,-3.5495,-3.4856,-3.3909,-3.3897,-3.3558,-3.3124,-3.3124,-3.3124,-3.3124,-3.3124,-3.3124,-3.3124,-3.3124,-3.3124,-3.291,-3.1738,-3.1386,-3.116,-3.0093,-2.9792,-2.9792,-2.9792,-2.9792,-2.9792,-2.9792,-2.9792,-2.9792,-2.9792,-2.9792,-2.9792,-2.9792,-2.9792,-2.9792,-2.9792,-2.8858,-2.8136,-2.8136,-2.7209,-2.6524,-2.6524,-2.5546,-2.483,-2.483,-2.4787,-2.4339,-2.3222,-2.3091,-2.3091,-2.3091,-2.3091,-2.3091,-2.3091,-2.3091,-2.3091,-2.3091,-2.3091,-2.3091,-2.3091,-2.3091,-2.3101,-2.3135,-2.4253,-2.542,-1.273,-1.3246,-1.3574,-1.3333,-1.2926,-1.2505,-1.2097,-1.1793,-1.1618,-1.178,-1.1996,-1.2295,-1.2798,-1.2905,-1.3512,-1.5381,-1.5919,0.0,0.0,0.0,0.0,0.0,0.0,0.0,0.0,0.0,0.0,0.0,0.0,0.0,0.0,0.0,-3.6405,-3.6405,-3.6405,-3.6405,-3.6405,-3.6405,-3.6405,-3.6405,-3.6405,-3.6405,-3.6405,-3.6405,0.0,0.0,0.0,0.0,0.0,-3.5094,-3.4562,-3.3859,-3.3483,-3.3232,-3.3124,-3.3124,-3.3124,-3.3124,-3.3124,-3.3124,-3.3124,-3.3124,-3.2805,-3.2353,-3.1612,-3.1386,-3.116,-3.0093,-2.9792,-2.9792,-2.9792,-2.9792,-2.9792,-2.9792,-2.9792,-2.9792,-2.9792,-2.9792,-2.9573,-2.8806,-2.8636,-2.8398,-2.7678,-2.7261,-2.7005,-2.7005,-2.6719,-2.6524,-2.6524,-2.6182,-2.5672,-2.4872,-2.4787,-2.4339,-2.3222,-2.38,-2.392,-2.3135,-2.3091,-2.3091,-2.3091,-2.3091,-2.3091,-2.3091,-2.3091,-2.3091,-2.3091,-2.3091,-2.3091,-2.3091,-2.3464,-2.3844,0.0,-1.2087,-1.2409,-1.2184,-1.1917,-1.1607,-1.1136,-1.0979,-1.1037,-1.137,-1.1616,-1.203,-1.2774,-1.2905,-1.3443,-1.5068,0.0,0.0,0.0,0.0,0.0,0.0,0.0,0.0,0.0,0.0,0.0,0.0,0.0,0.0,0.0,0.0,-3.6405,-3.6405,-3.6405,-3.6405,-3.6405,-3.6405,-3.6405,-3.6405,-3.6405,-3.6405,-3.6405,-3.6405,0.0,0.0,0.0,0.0,0.0,-3.4638,-3.4085,-3.3558,-3.3206,-3.3124,-3.3124,-3.3124,-3.3124,-3.3124,-3.3124,-3.3124,-3.3124,-3.3124,-3.2541,-3.18,-3.126,-3.0947,-3.0645,-2.998,-2.9792,-2.9792,-2.9792,-2.9792,-2.9792,-2.9792,-2.9792,-2.9663,-2.9236,-2.9157,-2.8819,-2.7695,-2.7481,-2.7279,-2.6637,-2.6141,-2.585,-2.585,-2.5473,-2.5231,-2.5231,-2.5231,-2.4935,-2.4211,-2.4168,-2.3887,-2.3178,-2.3757,-2.3844,-2.3135,-2.3091,-2.3091,-2.3091,-2.3091,-2.3091,-2.3091,-2.3091,-2.3091,-2.3091,-2.3091,-2.3091,-2.3091,-2.3091,-2.3091,0.0,-1.1422,-1.1712,-1.1692,-1.1456,-1.1016,-1.0214,-1.0311,0.0,-1.0782,-1.1291,-1.1999,-1.2865,-1.2993,-1.3262,-1.426,0.0,0.0,0.0,0.0,0.0,0.0,0.0,0.0,0.0,0.0,0.0,0.0,0.0,0.0,0.0,0.0,0.0,-3.6405,-3.6405,-3.6405,-3.6405,-3.6405,-3.6405,-3.6405,-3.6405,-3.6358,-3.6263,-3.6358,0.0,0.0,0.0,0.0,0.0,-3.3977,-3.3439,-3.2982,-3.3068,-3.3124,-3.3124,-3.3124,-3.3124,-3.3124,-3.3124,-3.3124,-3.3111,-3.3023,-3.2252,-3.1286,-3.0733,-3.0193,-2.9792,-2.9792,-2.9792,-2.9792,-2.9792,-2.9792,-2.9792,-2.9714,-2.9663,-2.9365,-2.8227,-2.7976,-2.7683,-2.6595,-2.6389,-2.6348,-2.6265,-2.5378,-2.467,-2.467,-2.38,-2.3091,-2.3091,-2.3091,-2.3091,-2.3091,-2.3091,-2.3091,-2.3091,-2.3091,-2.3091,-2.3091,-2.3091,-2.3091,-2.3091,-2.3091,-2.3091,-2.3091,-2.3091,-2.3091,-2.3091,-2.3091,-2.3091,-2.3091,-2.3091,-2.3091,-0.8175,0.0,-0.977,-0.9586,-0.961,-0.961,0.0,-0.9336,-0.9796,-1.0631,0.0,0.0,-1.3926,-1.3799,0.0,0.0,0.0,0.0,0.0,0.0,0.0,0.0,0.0,0.0,0.0,0.0,0.0,0.0,0.0,0.0,0.0,0.0,0.0,-3.6405,-3.6405,-3.6405,-3.6405,-3.6405,-3.6405,-3.6405,-3.6405,-3.5858,-3.4872,-3.5918,0.0,0.0,0.0,0.0,-3.2678,-3.2602,-3.2183,-3.1733,-3.2698,-3.3124,-3.3124,-3.3124,-3.3124,-3.3124,-3.3124,-3.3124,-3.2973,-3.2064,-3.1612,-3.121,-3.0269,-2.9892,-2.9792,-2.9792,-2.9792,-2.9792,-2.9792,-2.9792,-2.9573,-2.8727,-2.8518,-2.8187,-2.7128,-2.6883,-2.6543,-2.542,-2.521,-2.4925,-2.4059,-2.3681,-2.3507,-2.3507,-2.3256,-2.3091,-2.3091,-2.3091,-2.3091,-2.3091,-2.3091,-2.3091,-2.3091,-2.3091,-2.3091,-2.3091,-2.3091,-2.3091,-2.3091,-2.3091,-2.3091,-2.3091,-2.3091,-2.3091,-2.3091,-2.3091,-2.3091,-2.3091,-2.3091,-2.3091,-0.6578,-0.7874,-0.916,-0.9361,-0.9497,-0.957,-0.9446,0.0,0.0,0.0,0.0,0.0,0.0,0.0,0.0,0.0,0.0,0.0,0.0,0.0,0.0,0.0,0.0,0.0,0.0,0.0,0.0,0.0,0.0,0.0,0.0,0.0,0.0,-3.5604,-3.5604,-3.5855,-3.6405,-3.6405,-3.6405,-3.6405,-3.5563,-3.4798,-3.4065,-3.3947,0.0,0.0,0.0,0.0,-3.2019,-3.1213,-3.135,-3.2008,-3.1601,-3.2108,-3.3025,-3.2426,-3.2612,-3.3124,-3.3124,-3.2905,-3.2541,-3.1675,-3.1223,-3.0884,-3.0043,-2.9792,-2.9792,-2.9792,-2.9792,-2.9792,-2.9792,-2.9404,-2.8858,-2.8267,-2.7723,-2.7075,-2.5964,-2.5714,-2.5378,-2.4253,-2.4006,-2.3844,-2.3222,-2.3091,-2.3091,-2.3091,-2.3091,-2.3091,-2.3091,-2.3091,-2.3091,-2.3091,-2.3091,-2.3091,-2.3091,-2.3091,-2.3091,-2.3091,-2.3091,-2.3091,-2.3091,-2.3091,-2.3091,-2.3091,-2.3091,-2.3091,-2.3091,-2.3091,-2.3091,-2.3091,-2.3091,-2.3091,-0.5697,-0.7268,-0.9159,-0.9665,-0.9956,-1.0077,-1.006,0.0,0.0,0.0,0.0,0.0,0.0,0.0,0.0,0.0,0.0,0.0,0.0,0.0,0.0,0.0,0.0,0.0,0.0,0.0,0.0,0.0,0.0,0.0,0.0,0.0,0.0,-3.4429,-3.4577,-3.4982,-3.5598,-3.5752,-3.5859,-3.5846,-3.4113,-3.3172,-3.2969,-3.1595,-3.083,0.0,0.0,0.0,-3.1273,-2.977,-3.0373,-3.2064,-3.0147,-3.0777,-3.2655,-3.1589,-3.2008,-3.3111,-3.2968,-3.2629,-3.2102,-3.1474,-3.0972,-3.0507,-2.9955,-2.9792,-2.9792,-2.9792,-2.9792,-2.9753,-2.9585,-2.8806,-2.8004,-2.7683,-2.6912,-2.5933,-2.4798,-2.4542,-2.4253,-2.3309,-2.3091,-2.3091,-2.3091,-2.3091,-2.3091,-2.3091,-2.3091,-2.3091,-2.3091,-2.3091,-2.3091,-2.3091,-2.3091,-2.3091,-2.3091,-2.3091,-2.3091,-2.3091,-2.3091,-2.3091,-2.3091,-2.3091,-2.3091,-2.3091,-2.3091,-2.3091,-2.3091,-2.3091,-2.3091,-2.3091,-2.3091,-2.3091,-0.5735,-0.7565,-0.912,-0.8616,-0.93,-1.0053,-0.9806,0.0,0.0,0.0,0.0,0.0,0.0,0.0,0.0,0.0,0.0,0.0,0.0,0.0,0.0,0.0,0.0,0.0,0.0,0.0,0.0,0.0,0.0,0.0,0.0,0.0,0.0,-3.32,-3.4144,-3.3793,-3.1869,-3.2901,-3.344,-3.3428,-3.2038,-3.0842,-2.973,-3.0619,-3.0112,0.0,0.0,-2.8519,-2.8286,-2.7987,-2.8085,-2.8505,-2.9131,-3.0271,-3.1456,-3.1267,-3.2008,-3.3048,-3.2516,-3.229,-3.2051,-3.106,-3.0683,-3.0507,-2.9955,-2.9792,-2.9792,-2.9792,-2.9792,-2.9573,-2.8597,-2.8215,-2.7631,-2.5734,-2.5157,-2.4755,-2.3594,-2.3343,-2.3299,-2.3135,-2.3091,-2.3091,-2.3091,-2.3091,-2.3091,-2.3091,-2.3091,-2.3091,-2.3091,-2.3091,-2.3091,-2.3091,-2.3091,-2.3091,-2.3091,-2.3091,-2.3091,-2.3091,-2.3091,-2.3091,-2.3091,-2.3091,-2.3091,-2.3091,-2.3091,-2.3091,-2.3091,-2.3091,-2.3091,-2.3091,-2.3091,-2.3091,-0.4923,-0.6341,-0.7813,-0.8223,-0.9959,-1.1497,-1.1162,0.0,0.0,0.0,0.0,0.0,0.0,0.0,0.0,0.0,0.0,0.0,0.0,0.0,0.0,0.0,0.0,0.0,0.0,0.0,0.0,0.0,0.0,0.0,0.0,0.0,0.0,0.0,-3.3177,-3.2661,-3.0173,-3.0743,-3.1298,-3.1841,-3.033,-2.9246,-2.8673,-2.8324,-2.7669,-2.6865,0.0,-2.7177,-2.7542,-2.6849,-2.7352,-2.8495,-2.7709,-2.8577,-3.0316,-3.0944,-3.2008,-3.2993,-3.2416,-3.2014,-3.1637,-3.0871,-3.0407,-3.0118,-2.9867,-2.9792,-2.9792,-2.9792,-2.9365,-2.8897,-2.8976,-2.7683,-2.6232,-2.5797,-2.4798,-2.3757,-2.3222,-2.3091,-2.3091,-2.3091,-2.3091,-2.3091,-2.3091,-2.3091,-2.3091,-2.3091,-2.3091,-2.3091,-2.3091,-2.3091,-2.3091,-2.3091,-2.3091,-2.3091,-2.3091,-2.3091,-2.3091,-2.3091,-2.3091,-2.3091,-2.3091,-2.3091,-2.3091,-2.3091,-2.3091,-2.3091,-2.3091,-2.3091,-2.3091,-2.3091,-2.3091,-2.3091,-0.4378,-0.5392,-0.6715,-0.7787,0.0,-1.1989,-1.2321,0.0,0.0,0.0,0.0,0.0,0.0,0.0,0.0,0.0,0.0,0.0,0.0,0.0,0.0,0.0,0.0,0.0,0.0,0.0,0.0,0.0,0.0,0.0,0.0,0.0,0.0,0.0,-3.2426,-3.1789,-2.9004,-2.9269,-2.9695,-3.0193,-2.8561,-2.7786,-2.7728,-2.6356,-2.5693,-2.5693,-2.5693,-2.6245,-2.7078,-2.61,-2.6839,-2.8355,-2.6428,-2.721,-2.9544,-3.0765,-3.1923,-3.2792,-3.2215,-3.1662,-3.1122,-3.0595,-3.0131,-2.9792,-2.9792,-2.9792,-2.9792,-2.9792,-2.8976,-2.8307,-2.9197,-2.7319,-2.5336,-2.5975,-2.4553,-2.3091,-2.3091,-2.3091,-2.3091,-2.3091,-2.3091,-2.3091,-2.3091,-2.3091,-2.3091,-2.3091,-2.3091,-2.3091,-2.3091,-2.3091,-2.3091,-2.3091,-2.3091,-2.3091,-2.3091,-2.3091,-2.3091,-2.3091,-2.3091,-2.3091,-2.3091,-2.3091,-2.3091,-2.3091,-2.3091,-2.3091,-2.3091,-2.3091,-2.3091,-2.3091,-2.3091,-2.3091,-0.4729,-0.5693,-0.6649,-0.6924,-0.8153,0.0,-1.2234,-1.2044,0.0,-1.2852,0.0,0.0,0.0,0.0,0.0,0.0,0.0,0.0,0.0,0.0,0.0,0.0,0.0,0.0,0.0,0.0,0.0,0.0,0.0,0.0,0.0,0.0,0.0,0.0,0.0,-3.138,-2.7767,-2.8855,-2.8899,-2.7826,-2.6536,-2.5869,-2.5869,-2.5752,-2.5693,-2.5693,-2.5693,-2.5732,-2.583,-2.5732,-2.583,-2.5965,-2.5781,-2.721,-2.9544,-3.0765,-3.1636,-3.2202,-3.1637,-3.111,-3.0583,-3.003,-2.9829,-2.9792,-2.9792,-2.9792,-2.9792,-2.9792,-2.8976,-2.8136,-2.8215,-2.7279,-2.6141,-2.5168,-2.4006,-2.3091,-2.3091,-2.3091,-2.3091,-2.3091,-2.3091,-2.3091,-2.3091,-2.3091,-2.3091,-2.3091,-2.3091,-2.3091,-2.3091,-2.3091,-2.3091,-2.3091,-2.3091,-2.3091,-2.3091,-2.3091,-2.3091,-2.3091,-2.3091,-2.3091,-2.3091,-2.3091,-2.3091,-2.3091,-2.3091,-2.3091,-2.3091,-2.3091,-2.3091,-2.3091,-2.3091,-2.3091,-0.4288,-0.5501,-0.6677,-0.7071,-0.7942,0.0,0.0,-1.2123,-1.2574,-1.4001,-1.529,0.0,0.0,0.0,0.0,0.0,0.0,0.0,0.0,0.0,0.0,0.0,0.0,0.0,0.0,0.0,0.0,0.0,0.0,0.0,0.0,0.0,0.0,0.0,0.0,-3.0541,-2.7636,-2.8038,-2.7626,-2.6428,-2.5917,-2.5693,-2.5693,-2.5693,-2.5693,-2.5693,-2.5693,-2.5693,-2.5693,-2.5693,-2.5693,-2.5693,-2.5693,-2.6581,-2.8004,-2.9173,-3.0055,-3.0729,-3.0842,-3.0783,-3.052,-2.9967,-2.9792,-2.9792,-2.9792,-2.9792,-2.9792,-2.9792,-2.9495,-2.8976,-2.8295,-2.6778,-2.5336,-2.4914,-2.392,-2.3091,-2.3091,-2.3091,-2.3091,-2.3091,-2.3091,-2.3091,-2.3091,-2.3091,-2.3091,-2.3091,-2.3091,-2.3091,-2.3091,-2.3091,-2.3091,-2.3091,-2.3091,-2.3091,-2.3091,-2.3091,-2.3091,-2.3091,-2.3091,-2.3091,-2.3091,-2.3091,-2.3091,-2.3091,-2.3091,-2.3091,-2.3091,-2.3091,-2.3091,-2.3091,-2.3091,-2.3091,-0.3844,-0.4984,-0.6211,-0.7038,0.0,0.0,-1.143,-1.2168,-1.2918,-1.487,0.0,0.0,0.0,0.0,0.0,0.0,0.0,0.0,0.0,0.0,0.0,0.0,0.0,0.0,0.0,0.0,0.0,0.0,0.0,0.0,0.0,0.0,0.0,0.0,0.0,0.0,-2.8773,-2.8366,-2.7542,-2.6294,-2.5878,-2.5693,-2.5693,-2.5693,-2.5693,-2.5693,-2.5693,-2.5693,-2.5693,-2.5693,-2.5693,-2.5674,-2.5586,-2.6074,-2.7003,-2.8009,-2.887,-2.963,-3.036,-3.0507,-3.0294,-2.9917,-2.9792,-2.9792,-2.9792,-2.9792,-2.9792,-2.9792,-2.9792,-2.9534,-2.8386,-2.6971,-2.5744,-2.542,-2.4467,-2.3551,-2.3178,-2.3091,-2.3091,-2.3091,-2.3091,-2.3091,-2.3091,-2.3091,-2.3091,-2.3091,-2.3091,-2.3091,-2.3091,-2.3091,-2.3091,-2.3091,-2.3091,-2.3091,-2.3091,-2.3091,-2.3091,-2.3091,-2.3091,-2.3091,-2.3091,-2.3091,-2.3091,-2.3091,-2.3091,-2.3091,-2.3091,-2.3091,-2.3091,-2.3091,-2.3091,-2.3091,-0.3539,-0.415,-0.5096,0.0,0.0,0.0,-1.1909,-1.2265,-1.2668,0.0,0.0,0.0,0.0,0.0,0.0,0.0,0.0,0.0,0.0,0.0,0.0,0.0,0.0,0.0,0.0,0.0,0.0,0.0,0.0,0.0,0.0,0.0,0.0,0.0,0.0,0.0,-3.1211,-2.9988,-2.8762,-2.7589,-2.6294,-2.5693,-2.5693,-2.5693,-2.5693,-2.5693,-2.5693,-2.5693,-2.5693,-2.5684,-2.5674,-2.5635,-2.5234,-2.5839,-2.695,-2.7624,-2.8287,-2.9032,-3.0171,-3.0256,-2.9792,-2.9792,-2.9792,-2.9792,-2.9792,-2.9792,-2.9792,-2.9792,-2.9792,-2.9534,-2.8386,-2.8096,-2.7804,-2.6719,-2.563,-2.4457,-2.3343,-2.3091,-2.3091,-2.3091,-2.3091,-2.3091,-2.3091,-2.3091,-2.3091,-2.3091,-2.3091,-2.3091,-2.3091,-2.3091,-2.3091,-2.3091,-2.3091,-2.3091,-2.3091,-2.3091,-2.3091,-2.3091,-2.3091,-2.3091,-2.3091,-2.3091,-2.3091,-2.3091,-2.3091,-2.3091,-2.3091,-2.3091,-2.3091,-2.3091,-2.3091,-2.3091,-0.3235,-0.5097,0.0,0.0,0.0,0.0,0.0,0.0,0.0,0.0,0.0,0.0,0.0,0.0,0.0,0.0,0.0,0.0,0.0,0.0,0.0,0.0,0.0,0.0,0.0,0.0,0.0,0.0,0.0,0.0,0.0,0.0,0.0,0.0,0.0,0.0,-3.062,-2.8565,-2.7522,-2.7589,-2.6294,-2.5693,-2.5693,-2.5693,-2.5693,-2.5693,-2.5693,-2.5693,-2.5664,-2.54,-2.5088,-2.4748,-2.4658,-2.4644,-2.4811,-2.5797,-2.6601,-2.7346,-2.8466,-2.9241,-2.9792,-2.9792,-2.9792,-2.9792,-2.9792,-2.9792,-2.9792,-2.9792,-2.9236,-2.8518,-2.8176,-2.7522,-2.6666,-2.5588,-2.4425,-2.3507,-2.3178,-2.3091,-2.3091,-2.3091,-2.3091,-2.3091,-2.3091,-2.3091,-2.3091,-2.3091,-2.3091,-2.3091,-2.3091,-2.3091,-2.3091,-2.3091,-2.3091,-2.3091,-2.3091,-2.3091,-2.3091,-2.3091,-2.3091,-2.3091,-2.3091,-2.3091,-2.3091,-2.3091,-2.3091,-2.3091,-2.3091,-2.3091,-2.3091,-2.3091,-2.3091,-2.3091,-0.3443,0.0,0.0,0.0,0.0,0.0,0.0,0.0,0.0,0.0,0.0,0.0,0.0,0.0,0.0,0.0,0.0,0.0,0.0,0.0,0.0,0.0,0.0,0.0,0.0,0.0,0.0,0.0,0.0,0.0,0.0,0.0,0.0,0.0,0.0,0.0,-3.0792,-2.8409,-2.7366,-2.7702,-2.598,-2.5167,-2.5177,-2.5528,-2.5596,-2.5459,-2.5235,-2.5167,-2.5148,-2.4922,-2.4658,-2.4394,-2.4228,-2.4275,-2.4499,-2.4997,-2.5721,-2.6637,-2.7723,-2.8557,-2.9197,-2.9663,-2.9792,-2.9792,-2.9792,-2.9792,-2.9702,-2.9236,-2.8636,-2.8004,-2.7562,-2.6666,-2.563,-2.4957,-2.4296,-2.3627,-2.3222,-2.3091,-2.3091,-2.3091,-2.3091,-2.3091,-2.3091,-2.3091,-2.3091,-2.3091,-2.3091,-2.3091,-2.3091,-2.3091,-2.3091,-2.3091,-2.3091,-2.3091,-2.3091,-2.3091,-2.3091,-2.3091,-2.3091,-2.3091,-2.3091,-2.3091,-2.3091,-2.3091,-2.3091,-2.3091,-2.3091,-2.3091,-2.3091,-2.3091,-2.3091,-2.3091,0.0,0.0,0.0,0.0,0.0,0.0,0.0,0.0,0.0,0.0,0.0,0.0,0.0,0.0,0.0,0.0,0.0,0.0,0.0,0.0,0.0,0.0,0.0,0.0,0.0,0.0,0.0,0.0,0.0,0.0,0.0,0.0,0.0,0.0,0.0,0.0,-3.1323,-2.9106,-2.8014,0.0,-2.5778,-2.4634,-2.4582,-2.5244,-2.5391,-2.5028,-2.459,-2.4394,-2.4365,-2.4365,-2.4336,-2.4258,-2.3877,-2.4325,-2.5168,-2.4912,-2.5504,-2.6637,-2.7723,-2.8176,-2.8426,-2.9326,-2.9663,-2.9624,-2.9546,-2.9507,-2.9287,-2.8267,-2.7884,-2.7562,-2.6595,-2.5504,-2.467,-2.467,-2.467,-2.4372,-2.3299,-2.3091,-2.3091,-2.3091,-2.3091,-2.3091,-2.3091,-2.3091,-2.3091,-2.3091,-2.3091,-2.3091,-2.3091,-2.3091,-2.3091,-2.3091,-2.3091,-2.3091,-2.3091,-2.3091,-2.3091,-2.3091,-2.3091,-2.3091,-2.3091,-2.3091,-2.3091,-2.3091,-2.3091,-2.3091,-2.3091,-2.3091,-2.3091,-2.3091,-2.3091,-2.3091,0.0,-0.4791,0.0,0.0,0.0,0.0,0.0,0.0,0.0,0.0,0.0,0.0,0.0,0.0,0.0,0.0,0.0,0.0,0.0,0.0,0.0,0.0,0.0,0.0,0.0,0.0,0.0,0.0,0.0,0.0,0.0,0.0,0.0,0.0,0.0,-3.0783,-3.0783,-2.9318,-2.8831,0.0,-2.7688,-2.6574,-2.5719,-2.5017,-2.4648,-2.4551,-2.4453,-2.4228,-2.3926,-2.3926,-2.3721,-2.3364,-2.3266,-2.3403,-2.368,-2.4498,-2.5504,-2.6637,-2.7723,-2.8688,-2.9326,-2.8688,-2.8466,-2.8307,-2.7464,-2.7221,-2.7139,-2.6924,-2.6213,-2.5452,-2.521,-2.4339,-2.3464,-2.3464,-2.3464,-2.3387,-2.3135,-2.3091,-2.3091,-2.3091,-2.3091,-2.3091,-2.3091,-2.3091,-2.3091,-2.3091,-2.3091,-2.3091,-2.3091,-2.3091,-2.3091,-2.3091,-2.3091,-2.3091,-2.3091,-2.3091,-2.3091,-2.3091,-2.3091,-2.3091,-2.3091,-2.3091,-2.3091,-2.3091,-2.3091,-2.3091,-2.3091,-2.3091,-2.3091,-2.3091,-2.3091,-2.3091,0.0,0.0,0.0,0.0,0.0,0.0,0.0,0.0,0.0,0.0,0.0,0.0,0.0,0.0,0.0,0.0,0.0,0.0,0.0,0.0,0.0,0.0,0.0,0.0,0.0,0.0,0.0,0.0,0.0,0.0,0.0,0.0,0.0,0.0,-3.0068,-3.0218,-3.0218,-2.906,-2.8602,-2.8863,-2.7126,-2.5719,-2.4638,-2.4285,-2.4111,-2.4102,-2.3896,-2.3974,-2.423,-2.3688,-2.3638,-2.392,-2.392,-2.392,-2.4006,-2.4575,-2.5504,-2.6595,-2.7128,-2.8068,-2.8976,-2.8937,-2.8897,-2.8819,-2.8251,-2.8091,-2.7839,-2.6812,-2.6058,-2.5378,-2.4253,-2.3551,-2.3091,-2.3091,-2.3091,-2.3091,-2.3091,-2.3091,-2.3091,-2.3091,-2.3091,-2.3091,-2.3091,-2.3091,-2.3091,-2.3091,-2.3091,-2.3091,-2.3091,-2.3091,-2.3091,-2.3091,-2.3091,-2.3091,-2.3091,-2.3091,-2.3091,-2.3091,-2.3091,-2.3091,-2.3091,-2.3091,-2.3091,-2.3091,-2.3091,-2.3091,-2.3091,-2.3091,-2.3091,-2.3091,-2.3091,-2.3091,0.0,0.0,0.0,0.0,0.0,0.0,0.0,0.0,0.0,0.0,0.0,0.0,0.0,0.0,0.0,0.0,0.0,0.0,0.0,0.0,0.0,0.0,0.0,0.0,0.0,0.0,0.0,0.0,0.0,0.0,0.0,0.0,-2.9792,-2.9792,-2.9792,-2.9792,-2.9792,-2.8858,-2.8386,-2.8386,-2.6356,-2.4787,-2.3691,-2.3894,-2.385,-2.3662,-2.3247,-2.3637,-2.4457,-2.3714,-2.3833,-2.4542,-2.4702,-2.4787,-2.483,-2.4999,-2.5797,-2.6801,-2.7017,-2.7666,-2.8518,-2.9275,-2.9495,-2.9456,-2.904,-2.8961,-2.8581,-2.6719,-2.6224,-2.5808,-2.4145,-2.356,-2.3387,-2.3387,-2.3266,-2.3091,-2.3091,-2.3091,-2.3091,-2.3091,-2.3091,-2.3091,-2.3091,-2.3091,-2.3091,-2.3091,-2.3091,-2.3091,-2.3091,-2.3091,-2.3091,-2.3091,-2.3091,-2.3091,-2.3091,-2.3091,-2.3091,-2.3091,-2.3091,-2.3091,-2.3091,-2.3091,-2.3091,-2.3091,-2.3091,-2.3091,-2.3091,-2.3091,-2.3091,-2.3091,-2.3091,-2.3091,0.0,0.0,0.0,0.0,0.0,0.0,0.0,0.0,0.0,0.0,0.0,0.0,0.0,0.0,0.0,0.0,0.0,0.0,0.0,0.0,0.0,0.0,0.0,0.0,0.0,0.0,0.0,0.0,0.0,0.0,0.0,-2.9792,-2.9792,-2.9792,-2.9792,-2.9792,-2.9792,-2.9663,-2.9573,-2.9585,-2.8267,-2.7075,-2.6016,-2.5073,-2.414,-2.3179,-2.312,-2.3178,-2.3387,-2.4211,-2.4092,-2.343,-2.4414,-2.4787,-2.4914,-2.5922,-2.6953,-2.8016,-2.904,-2.9456,-2.9456,-2.8597,-2.8347,-2.7976,-2.6036,-2.5452,-2.541,-2.5126,-2.5041,-2.5168,-2.585,-2.5294,-2.4585,-2.4585,-2.3844,-2.3091,-2.3091,-2.3091,-2.3091,-2.3091,-2.3091,-2.3091,-2.3091,-2.3091,-2.3091,-2.3091,-2.3091,-2.3091,-2.3091,-2.3091,-2.3091,-2.3091,-2.3091,-2.3091,-2.3091,-2.3091,-2.3091,-2.3091,-2.3091,-2.3091,-2.3091,-2.3091,-2.3091,-2.3091,-2.3091,-2.3091,-2.3091,-2.3091,-2.3091,-2.3091,-2.3091,-2.3091,0.0,0.0,0.0,0.0,0.0,0.0,0.0,0.0,0.0,0.0,0.0,0.0,0.0,0.0,0.0,0.0,0.0,0.0,0.0,0.0,0.0,0.0,0.0,0.0,0.0,0.0,0.0,0.0,0.0,0.0,-2.9792,-2.9792,-2.9792,-2.9792,-2.9792,-2.9792,-2.9792,-2.9792,-2.9495,-2.8858,-2.8347,-2.7522,-2.6483,-2.5336,-2.4168,-2.3091,-2.3091,-2.3464,-2.4049,-2.392,-2.4296,-2.5062,-2.5557,-2.5755,-2.588,-2.6994,-2.7683,-2.8176,-2.8688,-2.9287,-2.9702,-2.9236,-2.9067,-2.8858,-2.7907,-2.7614,-2.7331,-2.6088,-2.5755,-2.5557,-2.4808,-2.4221,-2.3844,-2.3844,-2.3464,-2.3091,-2.3091,-2.3091,-2.3091,-2.3091,-2.3091,-2.3091,-2.3091,-2.3091,-2.3091,-2.3091,-2.3091,-2.3091,-2.3091,-2.3091,-2.3091,-2.3091,-2.3091,-2.3091,-2.3091,-2.3091,-2.3091,-2.3091,-2.3091,-2.3091,-2.3091,-2.3091,-2.3091,-2.3091,-2.3091,-2.3091,-2.3091,-2.3091,-2.3091,-2.3091,-2.3091,-2.3091,0.0,0.0,0.0,0.0,0.0,0.0,0.0,0.0,0.0,0.0,0.0,0.0,0.0,0.0,0.0,0.0,0.0,0.0,0.0,0.0,0.0,0.0,0.0,0.0,0.0,0.0,0.0,0.0,0.0,0.0,-2.9792,-2.9792,-2.9792,-2.9792,-2.9792,-2.9792,-2.9792,-2.9792,-2.9365,-2.8518,-2.8518,-2.7936,-2.6883,-2.6036,-2.4872,-2.3507,-2.3222,-2.3757,-2.4745,-2.4178,-2.4808,-2.6141,-2.6678,-2.6924,-2.7005,-2.7804,-2.8295,-2.8518,-2.8518,-2.9106,-2.9792,-2.9792,-2.9792,-2.9753,-2.9456,-2.9365,-2.9028,-2.7371,-2.6924,-2.6595,-2.5179,-2.4392,-2.3973,-2.3973,-2.3507,-2.3091,-2.3091,-2.3091,-2.3091,-2.3091,-2.3091,-2.3091,-2.3091,-2.3091,-2.3091,-2.3091,-2.3091,-2.3091,-2.3091,-2.3091,-2.3091,-2.3091,-2.3091,-2.3091,-2.3091,-2.3091,-2.3091,-2.3091,-2.3091,-2.3091,-2.3091,-2.3091,-2.3091,-2.3091,-2.3091,-2.3091,-2.3091,-2.3091,-2.3091,-2.3091,-2.3091,-2.3091,0.0,0.0,0.0,0.0,0.0,0.0,0.0,0.0,0.0,0.0,0.0,0.0,0.0,0.0,0.0,0.0,0.0,0.0,0.0,0.0,0.0,0.0,0.0,0.0,0.0,0.0,0.0,0.0,0.0,0.0,-2.9792,-2.9792,-2.9792,-2.9792,-2.9792,-2.9792,-2.9792,-2.9792,-2.9753,-2.9702,-2.9702,-2.9118,-2.8004,-2.7964,-2.6767,-2.466,-2.3551,-2.3757,-2.4872,-2.5891,-2.5755,-2.5083,-2.7186,-2.8004,-2.8004,-2.8096,-2.8767,-2.9702,-2.9702,-2.9753,-2.9792,-2.9792,-2.9792,-2.9585,-2.8518,-2.8176,-2.8176,-2.8056,-2.8004,-2.8227,-2.9197,-2.7879,-2.6307,-2.6307,-2.4681,-2.3091,-2.3091,-2.3091,-2.3091,-2.3091,-2.3091,-2.3091,-2.3091,-2.3091,-2.3091,-2.3091,-2.3091,-2.3091,-2.3091,-2.3091,-2.3091,-2.3091,-2.3091,-2.3091,-2.3091,-2.3091,-2.3091,-2.3091,-2.3091,-2.3091,-2.3091,-2.3091,-2.3091,-2.3091,-2.3091,-2.3091,-2.3091,-2.3091,-2.3091,-2.3091,-2.3091,-2.3091,0.0,0.0,0.0,0.0,0.0,0.0,0.0,0.0,0.0,0.0,0.0,0.0,0.0,0.0,0.0,0.0,0.0,0.0,0.0,0.0,0.0,0.0,0.0,0.0,0.0,0.0,0.0,0.0,0.0,0.0,-3.0696,-3.0139,-2.9792,-2.9792,-2.9792,-2.9792,-2.9792,-2.9792,-2.9792,-2.9792,-2.9792,-2.9585,-2.9157,-2.8426,-2.8056,-2.7907,-2.6099,-2.5094,-2.4872,-2.6016,-2.6265,-2.6047,-2.7522,-2.8096,-2.8176,-2.8937,-2.9456,-2.9792,-2.9792,-2.9792,-2.9792,-2.9792,-2.9792,-2.9702,-2.9314,-2.9197,-2.9028,-2.8307,-2.8096,-2.7884,-2.686,-2.5994,-2.521,-2.4467,-2.3681,-2.3091,-2.3091,-2.3091,-2.3091,-2.3091,-2.3091,-2.3091,-2.3091,-2.3091,-2.3091,-2.3091,-2.3091,-2.3091,-2.3091,-2.3091,-2.3091,-2.3091,-2.3091,-2.3091,-2.3091,-2.3091,-2.3091,-2.3091,-2.3091,-2.3091,-2.3091,-2.3091,-2.3091,-2.3091,-2.3091,-2.3091,-2.3091,-2.3091,-2.3091,-2.3091,-2.3091,-2.3091,-0.0709,0.0,0.0,0.0,0.0,0.0,0.0,0.0,0.0,0.0,0.0,0.0,0.0,0.0,0.0,0.0,0.0,0.0,0.0,0.0,0.0,0.0,0.0,0.0,0.0,0.0,0.0,0.0,0.0,0.0,-3.1669,-3.0771,-3.0139,-2.9792,-2.9792,-2.9792,-2.9792,-2.9792,-2.9792,-2.9792,-2.9792,-2.9792,-2.9753,-2.9028,-2.8897,-2.9157,-2.8091,-2.6964,-2.5983,-2.6707,-2.7046,-2.7168,-2.8227,-2.8688,-2.8767,-2.9534,-2.9792,-2.9792,-2.9792,-2.9792,-2.9792,-2.9792,-2.9792,-2.9714,-2.9365,-2.9236,-2.8988,-2.7855,-2.7562,-2.7238,-2.5744,-2.5083,-2.45,-2.3387,-2.3091,-2.3091,-2.3091,-2.3091,-2.3091,-2.3091,-2.3091,-2.3091,-2.3091,-2.3091,-2.3091,-2.3091,-2.3091,-2.3091,-2.3091,-2.3091,-2.3091,-2.3091,-2.3091,-2.3091,-2.3091,-2.3091,-2.3091,-2.3091,-2.3091,-2.3091,-2.3091,-2.3091,-2.3091,-2.3091,-2.3091,-2.3091,-2.3091,-2.3091,-2.3091,-2.3091,-2.3091,-2.3091,0.0,0.0,0.0,0.0,0.0,0.0,0.0,0.0,0.0,0.0,0.0,0.0,0.0,0.0,0.0,0.0,0.0,0.0,0.0,0.0,0.0,0.0,0.0,0.0,0.0,0.0,0.0,0.0,0.0,-3.2629,-3.2593,-3.1669,-3.072,-2.983,-2.9792,-2.9792,-2.9792,-2.9792,-2.9792,-2.9792,-2.9753,-2.9753,-2.9792,-2.9753,-2.9145,-2.8215,-2.9326,-2.9157,-2.8136,-2.8136,-2.8136,-2.8215,-2.9365,-2.9792,-2.9753,-2.9792,-2.9792,-2.9792,-2.9792,-2.9792,-2.9792,-2.9792,-2.9792,-2.9585,-2.8438,-2.8124,-2.7936,-2.6801,-2.6513,-2.6524,-2.6483,-2.5588,-2.4457,-2.3343,-2.3091,-2.3091,-2.3091,-2.3091,-2.3091,-2.3091,-2.3091,-2.3091,-2.3091,-2.3091,-2.3091,-2.3091,-2.3091,-2.3091,-2.3091,-2.3091,-2.3091,-2.3091,-2.3091,-2.3091,-2.3091,-2.3091,-2.3091,-2.3091,-2.3091,-2.3091,-2.3091,-2.3091,-2.3091,-2.3091,-2.3091,-2.3091,-2.3091,-2.3091,-2.3091,-2.3091,-2.3091,-2.3091,0.0,0.0,0.0,0.0,0.0,0.0,0.0,0.0,0.0,0.0,0.0,0.0,0.0,0.0,0.0,0.0,0.0,0.0,0.0,0.0,0.0,0.0,0.0,0.0,0.0,0.0,0.0,0.0,-3.3768,-3.331,-3.2629,-3.1057,-3.0075,-2.9792,-2.9792,-2.9792,-2.9792,-2.9792,-2.9792,-2.9792,-2.8976,-2.8988,-2.9753,-2.8937,-2.8858,-2.9365,-2.9663,-2.9624,-2.9326,-2.9326,-2.8858,-2.8215,-2.9365,-2.9287,-2.8688,-2.9495,-2.9792,-2.9792,-2.9792,-2.9792,-2.9792,-2.9792,-2.9792,-2.9585,-2.8438,-2.8688,-2.8949,-2.7005,-2.7046,-2.7279,-2.5714,-2.4425,-2.3507,-2.3178,-2.3091,-2.3091,-2.3091,-2.3091,-2.3091,-2.3091,-2.3091,-2.3091,-2.3091,-2.3091,-2.3091,-2.3091,-2.3091,-2.3091,-2.3091,-2.3091,-2.3091,-2.3091,-2.3091,-2.3091,-2.3091,-2.3091,-2.3091,-2.3091,-2.3091,-2.3091,-2.3091,-2.3091,-2.3091,-2.3091,-2.3091,-2.3091,-2.3091,-2.3091,-2.3091,-2.3091,-2.3091,-2.3091,0.0,-0.0913,0.0,0.0,0.0,0.0,0.0,0.0,0.0,0.0,0.0,0.0,0.0,0.0,0.0,0.0,0.0,0.0,0.0,0.0,0.0,0.0,0.0,0.0,0.0,0.0,0.0,0.0,-3.3344,-3.2798,-3.1738,-3.0642,-2.9986,-2.983,-2.9792,-2.9792,-2.9792,-2.9792,-2.9792,-2.9792,-2.9118,-2.9157,-2.9792,-2.9106,-2.9157,-2.9792,-2.9792,-2.9792,-2.9792,-2.9792,-2.9404,-2.8897,-2.9534,-2.9404,-2.8897,-2.9585,-2.9792,-2.9792,-2.9792,-2.9792,-2.9792,-2.9792,-2.9792,-2.9585,-2.8438,-2.8557,-2.8609,-2.6419,-2.5911,-2.5703,-2.4425,-2.3594,-2.3091,-2.3091,-2.3091,-2.3091,-2.3091,-2.3091,-2.3091,-2.3091,-2.3091,-2.3091,-2.3091,-2.3091,-2.3091,-2.3091,-2.3091,-2.3091,-2.3091,-2.3091,-2.3091,-2.3091,-2.3091,-2.3091,-2.3091,-2.3091,-2.3091,-2.3091,-2.3091,-2.3091,-2.3091,-2.3091,-2.3091,-2.3091,-2.3091,-2.3091,-2.3091,-2.3091,-2.3091,-2.3091,-2.3091,-2.3091,0.0,-0.1001,-0.2113,0.0,0.0,0.0,0.0,-0.7389,0.0,0.0,0.0,0.0,0.0,0.0,0.0,0.0,0.0,0.0,0.0,0.0,0.0,0.0,0.0,0.0,0.0,0.0,0.0,-3.1976,-3.1937,-3.1417,-3.0374,-3.0197,-2.9997,-2.9717,-2.9691,-2.9729,-2.9792,-2.9792,-2.9792,-2.9792,-2.9663,-2.9663,-2.9792,-2.9663,-2.9663,-2.9792,-2.9792,-2.9792,-2.9792,-2.9792,-2.9792,-2.9792,-2.9792,-2.9792,-2.9792,-2.9792,-2.9792,-2.9792,-2.9792,-2.9792,-2.9792,-2.9792,-2.9792,-2.9585,-2.8438,-2.8176,-2.7844,-2.5619,-2.4092,-2.3091,-2.3091,-2.3091,-2.3091,-2.3091,-2.3091,-2.3091,-2.3091,-2.3091,-2.3091,-2.3091,-2.3091,-2.3091,-2.3091,-2.3091,-2.3091,-2.3091,-2.3091,-2.3091,-2.3091,-2.3091,-2.3091,-2.3091,-2.3091,-2.3091,-2.3091,-2.3091,-2.3091,-2.3091,-2.3091,-2.3091,-2.3091,-2.3091,-2.3091,-2.3091,-2.3091,-2.3091,-2.3091,-2.3091,-2.3091,-2.3091,-2.3091,-2.3091,0.0,-0.1164,-0.2365,-0.2157,0.0,0.0,0.0,-0.5351,0.0,0.0,0.0,0.0,0.0,0.0,0.0,0.0,0.0,0.0,0.0,0.0,0.0,0.0,0.0,0.0,0.0,0.0,-3.0438,-3.0438,-3.0187,-2.991,-2.9693,-2.8949,-2.8696,-2.9076,-2.9063,-2.9315,-2.9792,-2.9792,-2.9792,-2.9792,-2.8858,-2.8897,-2.9753,-2.8846,-2.8937,-2.9792,-2.9792,-2.9792,-2.9792,-2.9792,-2.9792,-2.9792,-2.9792,-2.9792,-2.9792,-2.9792,-2.9792,-2.9792,-2.9792,-2.9792,-2.9792,-2.9792,-2.9792,-2.9585,-2.8438,-2.8727,-2.9,-2.6801,-2.4681,-2.3091,-2.3091,-2.3091,-2.3091,-2.3091,-2.3091,-2.3091,-2.3091,-2.3091,-2.3091,-2.3091,-2.3091,-2.3091,-2.3091,-2.3091,-2.3091,-2.3091,-2.3091,-2.3091,-2.3091,-2.3091,-2.3091,-2.3091,-2.3091,-2.3091,-2.3091,-2.3091,-2.3091,-2.3091,-2.3091,-2.3091,-2.3091,-2.3091,-2.3091,-2.3091,-2.3091,-2.3091,-2.3091,-2.3091,-2.3091,-2.3091,-2.3091,-2.3091,-0.0539,-0.1562,-0.2593,-0.2924,0.0,0.0,0.0,0.0,0.0,0.0,0.0,0.0,0.0,0.0,0.0,0.0,0.0,0.0,0.0,0.0,0.0,0.0,0.0,0.0,0.0,0.0,-2.8549,-2.8814,-2.8692,-2.8554,-2.8415,-2.7969,-2.7946,-2.8461,-2.8511,-2.8787,-2.9352,-2.9365,-2.9503,-2.9792,-2.9236,-2.9236,-2.9792,-2.9197,-2.9275,-2.9792,-2.9792,-2.9792,-2.9792,-2.9792,-2.9792,-2.9792,-2.9792,-2.9792,-2.9792,-2.9792,-2.9792,-2.9792,-2.9792,-2.9792,-2.9792,-2.9792,-2.9792,-2.9702,-2.9106,-2.8937,-2.8609,-2.6964,-2.5263,-2.3844,-2.3266,-2.3091,-2.3091,-2.3091,-2.3091,-2.3091,-2.3091,-2.3091,-2.3091,-2.3091,-2.3091,-2.3091,-2.3091,-2.3091,-2.3091,-2.3091,-2.3091,-2.3091,-2.3091,-2.3091,-2.3091,-2.3091,-2.3091,-2.3091,-2.3091,-2.3091,-2.3091,-2.3091,-2.3091,-2.3091,-2.3091,-2.3091,-2.3091,-2.3091,-2.3091,-2.3091,-2.3091,-2.3091,-2.3091,-2.3091,-2.3091,-2.3091,0.0,0.0,0.0,0.0,0.0,-0.4903,0.0,0.0,0.0,-0.849,0.0,0.0,0.0,0.0,0.0,0.0,0.0,0.0,0.0,0.0,0.0,0.0,0.0,0.0,0.0,0.0,-2.6444,-2.7105,-2.7053,-2.6969,-2.6952,-2.7067,-2.7369,-2.7934,-2.7946,-2.821,-2.8725,-2.8737,-2.9051,-2.9628,-2.9628,-2.9691,-2.9792,-2.9792,-2.9792,-2.9792,-2.9792,-2.9792,-2.9792,-2.9792,-2.9792,-2.9792,-2.9792,-2.9792,-2.9792,-2.9792,-2.9792,-2.9792,-2.9792,-2.9792,-2.9792,-2.9792,-2.9792,-2.9753,-2.9534,-2.87,-2.7562,-2.6472,-2.5336,-2.4253,-2.3343,-2.3091,-2.3091,-2.3091,-2.3091,-2.3091,-2.3091,-2.3091,-2.3091,-2.3091,-2.3091,-2.3091,-2.3091,-2.3091,-2.3091,-2.3091,-2.3091,-2.3091,-2.3091,-2.3091,-2.3091,-2.3091,-2.3091,-2.3091,-2.3091,-2.3091,-2.3091,-2.3091,-2.3091,-2.3091,-2.3091,-2.3091,-2.3091,-2.3091,-2.3091,-2.3091,-2.3091,-2.3091,-2.3091,-2.3091,-2.3091,-2.3091,0.0,0.0,0.0,0.0,-0.4665,0.0,0.0,0.0,-0.5174,-0.6197,0.0,0.0,0.0,0.0,0.0,0.0,0.0,0.0,0.0,0.0,0.0,0.0,0.0,0.0,0.0,0.0,0.0,-2.505,-2.4703,-2.4803,-2.5737,-2.6311,-2.6839,-2.7356,-2.7369,-2.7645,-2.8197,-2.8197,-2.8473,-2.8988,-2.8988,-2.9289,-2.9792,-2.9792,-2.9792,-2.9792,-2.9792,-2.9792,-2.9792,-2.9792,-2.9792,-2.9792,-2.9792,-2.9792,-2.9792,-2.9792,-2.9792,-2.9792,-2.9792,-2.9792,-2.9792,-2.9792,-2.9792,-2.9624,-2.8597,-2.7533,-2.6431,-2.5294,-2.4168,-2.3256,-2.3135,-2.3091,-2.3091,-2.3091,-2.3091,-2.3091,-2.3091,-2.3091,-2.3091,-2.3091,-2.3091,-2.3091,-2.3091,-2.3091,-2.3091,-2.3091,-2.3091,-2.3091,-2.3091,-2.3091,-2.3091,-2.3091,-2.3091,-2.3091,-2.3091,-2.3091,-2.3091,-2.3091,-2.3091,-2.3091,-2.3091,-2.3091,-2.3091,-2.3091,-2.3091,-2.3091,-2.3091,-2.3091,-2.3091,-2.3091,-2.3091,-2.3091,0.0,0.0,0.0,0.0,0.0,0.0,0.0,0.0,-0.5026,0.0,0.0,0.0,0.0,0.0,0.0,0.0,0.0,0.0,0.0,0.0,0.0,0.0,0.0,0.0,0.0,0.0,0.0,0.0,0.0,-2.3502,-2.4607,-2.5485,-2.6063,-2.6302,-2.6663,-2.7102,-2.762,-2.7632,-2.7908,-2.8448,-2.8448,-2.8586,-2.8825,-2.9151,-2.9289,-2.9315,-2.9641,-2.9792,-2.9792,-2.9792,-2.9792,-2.9792,-2.9792,-2.9792,-2.9792,-2.9792,-2.9792,-2.9792,-2.9792,-2.9792,-2.9702,-2.9028,-2.8806,-2.8609,-2.7493,-2.6842,-2.6265,-2.5126,-2.4457,-2.392,-2.3256,-2.3091,-2.3091,-2.3091,-2.3091,-2.3091,-2.3091,-2.3091,-2.3091,-2.3091,-2.3091,-2.3091,-2.3091,-2.3091,-2.3091,-2.3091,-2.3091,-2.3091,-2.3091,-2.3091,-2.3091,-2.3091,-2.3091,-2.3091,-2.3091,-2.3091,-2.3091,-2.3091,-2.3091,-2.3091,-2.3091,-2.3091,-2.3091,-2.3091,-2.3091,-2.3091,-2.3091,-2.3091,-2.3091,-2.3091,-2.3091,-2.3091,-0.5069,0.0,0.0,0.0,0.0,0.0,0.0,0.0,0.0,0.0,0.0,0.0,0.0,0.0,0.0,0.0,0.0,0.0,0.0,0.0,0.0,0.0,0.0,0.0,0.0,0.0,0.0,0.0,0.0,0.0,-2.3452,-2.4569,-2.5297,-2.5586,-2.6197,-2.6688,-2.709,-2.709,-2.7331,-2.7883,-2.7883,-2.7959,-2.8122,-2.8511,-2.8662,-2.87,-2.9302,-2.9553,-2.9566,-2.9729,-2.9792,-2.9792,-2.9792,-2.9792,-2.9792,-2.9792,-2.9792,-2.9792,-2.9792,-2.9792,-2.9663,-2.8846,-2.8347,-2.7884,-2.6842,-2.6265,-2.5808,-2.467,-2.4339,-2.4125,-2.3299,-2.3091,-2.3091,-2.3091,-2.3091,-2.3091,-2.3091,-2.3091,-2.3091,-2.3091,-2.3091,-2.3091,-2.3091,-2.3091,-2.3091,-2.3091,-2.3091,-2.3091,-2.3091,-2.3091,-2.3091,-2.3091,-2.3091,-2.3091,-2.3091,-2.3091,-2.3091,-2.3091,-2.3091,-2.3091,-2.3091,-2.3091,-2.3091,-2.3091,-2.3091,-2.3091,-2.3091,-2.3091,-2.3091,-2.3091,-2.3091,-2.3091,0.0,0.0,0.0,-0.7435,0.0,0.0,0.0,0.0,-0.7454,0.0,0.0,0.0,0.0,0.0,-1.0005,-1.0686,0.0,0.0,0.0,0.0,0.0,0.0,0.0,0.0,0.0,0.0,0.0,0.0,0.0,0.0,-2.2221,-2.3439,-2.4531,-2.5561,-2.6197,-2.6499,-2.6524,-2.6524,-2.6801,-2.7341,-2.7341,-2.7595,-2.8109,-2.8122,-2.8134,-2.816,-2.8712,-2.8913,-2.8963,-2.9566,-2.9792,-2.9792,-2.9792,-2.9792,-2.9792,-2.9792,-2.9792,-2.9792,-2.9792,-2.9792,-2.9792,-2.9753,-2.8988,-2.7884,-2.6842,-2.5714,-2.4628,-2.3474,-2.3135,-2.3135,-2.3091,-2.3091,-2.3091,-2.3091,-2.3091,-2.3091,-2.3091,-2.3091,-2.3091,-2.3091,-2.3091,-2.3091,-2.3091,-2.3091,-2.3091,-2.3091,-2.3091,-2.3091,-2.3091,-2.3091,-2.3091,-2.3091,-2.3091,-2.3091,-2.3091,-2.3091,-2.3091,-2.3091,-2.3091,-2.3091,-2.3091,-2.3091,-2.3091,-2.3091,-2.3091,-2.3091,-2.3091,-2.3091,-2.3091,-2.3091,-2.3091,-2.3091,0.0,0.0,-1.0473,-0.915,0.0,0.0,0.0,0.0,0.0,0.0,0.0,0.0,0.0,0.0,-1.0012,-1.0686,-1.1366,0.0,0.0,0.0,0.0,0.0,0.0,0.0,0.0,0.0,0.0,0.0,0.0,0.0,0.0,-2.1957,-2.3255,-2.4519,-2.4844,-2.516,-2.5511,-2.485,-2.4933,-2.579,-2.579,-2.6207,-2.7065,-2.7394,-2.7557,-2.7595,-2.8147,-2.8549,-2.8913,-2.9139,-2.9453,-2.9792,-2.9792,-2.9792,-2.9792,-2.9792,-2.9792,-2.9792,-2.9792,-2.9792,-2.9663,-2.8937,-2.7947,-2.683,-2.5714,-2.4585,-2.3594,-2.3222,-2.3091,-2.3091,-2.3091,-2.3091,-2.3091,-2.3091,-2.3091,-2.3091,-2.3091,-2.3091,-2.3091,-2.3091,-2.3091,-2.3091,-2.3091,-2.3091,-2.3091,-2.3091,-2.3091,-2.3091,-2.3091,-2.3091,-2.3091,-2.3091,-2.3091,-2.3091,-2.3091,-2.3091,-2.3091,-2.3091,-2.3091,-2.3091,-2.3091,-2.3091,-2.3091,-2.3091,-2.3091,-2.3091,-2.3091,-2.3091,-2.3091,-2.3091,-2.3091,-2.3091,-1.2788,-1.2839,0.0,0.0,-1.1045,0.0,-0.8901,0.0,0.0,0.0,0.0,0.0,0.0,0.0,-1.0122,-1.109,-1.137,-1.1495,0.0,0.0,0.0,0.0,0.0,0.0,0.0,0.0,-1.4429,-1.551,0.0,0.0,0.0,0.0,-2.163,-2.3023,-2.3504,-2.4155,-2.5004,-2.4373,-2.4552,-2.5511,-2.5511,-2.5699,-2.5968,-2.6313,-2.6473,-2.6498,-2.7028,-2.7692,-2.836,-2.8561,-2.8976,-2.9478,-2.9478,-2.9616,-2.9792,-2.9792,-2.9792,-2.9792,-2.9792,-2.9792,-2.9663,-2.8937,-2.7706,-2.6348,-2.563,-2.4339,-2.3091,-2.3091,-2.3091,-2.3091,-2.3091,-2.3091,-2.3091,-2.3091,-2.3091,-2.3091,-2.3091,-2.3091,-2.3091,-2.3091,-2.3091,-2.3091,-2.3091,-2.3091,-2.3091,-2.3091,-2.3091,-2.3091,-2.3091,-2.3091,-2.3091,-2.3091,-2.3091,-2.3091,-2.3091,-2.3091,-2.3091,-2.3091,-2.3091,-2.3091,-2.3091,-2.3091,-2.3091,-2.3091,-2.3091,-2.3091,-2.3091,-2.3091,-2.3091,-2.3091,-2.3091,-2.3091]}]]